MPMG - Transparência

Contra-cheque - Remuneração de todos os servidores ativos - Pré Resolução CNMP 200/2019

Período: 2014 - Dezembro

Ordem Matrícula Nome Cargo Efetivo Situação Unidade Administrativa Rendimentos Descontos Rendimento Líquido Total Indenizações Outras Remunerações Retroativas/Temporárias Data de Referência
Remuneração Básica Remuneração Eventual ou Temporária Total de Rendimentos Brutos Obrigatórios/Legais Total de Descontos
Remuneração do Cargo Efetivo Outras Verbas Remuneratórias Função de Confiança ou Cargo em Comissão Gratificação Natalina Férias Abono de Permanência Contribuição Previdenciária Imposto de Renda Retenção por Teto Constitucional
1 498900 ABDON MARCIO BARBOSA DA SILVA OFICIAL DO MP ATIVO ABRE CAMPO - COMARCA; ABRE CAMPO-PJ-02PJ 3.355,81 201,35 0,00 1.677,89 0,00 0,00 5.235,05 391,29 62,93 0,00 454,22 4.780,83 986,04 0,00 31/12/2014
2 177800 ADALBERTO MENEZES FARIA SAMORA OFICIAL DO MP ATIVO BELO HORIZONTE - COMARCA; CGMP-DIVIS DE APOIO FISC ORIENTACAO FUNCIONAL 9.358,72 2.807,62 0,00 2.556,22 4.055,45 0,00 18.778,01 1.544,20 3.167,97 0,00 4.712,17 14.065,84 920,50 1.871,74 31/12/2014
3 306400 ADALBERTO MOREIRA GONCALVES ANALISTA DO MP ATIVO CONTAGEM - COMARCA; CONTAGEM-PJ-01PJ 9.663,38 1.932,68 0,00 2.510,48 0,00 0,00 14.106,54 1.275,57 2.011,98 0,00 3.287,55 10.818,99 685,50 0,00 31/12/2014
4 179300 ADENISE AUXILIADORA SOUZA SAD OFICIAL DO MP ATIVO BARBACENA - COMARCA; BARBACENA-PJ-06PJ 8.501,02 2.550,31 0,00 3.753,67 3.683,78 0,00 18.488,78 1.402,67 2.792,86 0,00 4.195,53 14.293,25 685,50 1.700,20 31/12/2014
5 77700 ADIL EXPEDITO DE OLIVEIRA JUNIOR ASSESSOR ATIVO BELO HORIZONTE - COMARCA; SUPERINTENDENCIA DE RECURSOS HUMANOS 0,00 6.378,72 7.973,40 2.910,80 4.784,04 1.578,73 23.625,69 1.578,73 4.436,29 0,00 6.015,02 17.610,67 685,50 1.578,73 31/12/2014
6 272200 ADILSON BATISTA ORNELAS OFICIAL DO MP ATIVO LAVRAS - COMARCA; LAVRAS-PJ-SECRETARIA 3.938,84 787,77 0,00 1.621,13 1.575,54 0,00 7.923,28 519,93 615,70 0,00 1.135,63 6.787,65 685,50 0,00 31/12/2014
7 380100 ADILSON GONCALVES DE MELO JUNIOR ANALISTA DO MP ATIVO ARAXÁ - COMARCA; ARAXA-PJ-05PJ 7.014,37 701,44 0,00 2.045,71 2.571,94 0,00 12.333,46 848,74 1.670,74 0,00 2.519,48 9.813,98 920,50 0,00 31/12/2014
8 148800 ADILSON JANUARIO OFICIAL DO MP ATIVO BELO HORIZONTE - COMARCA; BH-22PJ PES COM DEF E IDOSOS-SECRETARIA 10.638,28 5.319,14 0,00 3.219,13 5.319,14 0,00 24.495,69 1.921,37 4.393,93 0,00 6.315,30 18.180,39 685,50 1.509,54 31/12/2014
9 322601 ADMILSON SILVEIRA ANALISTA DO MP ATIVO SAO JOAO DO PARAISO COMARCA; SAO JOAO DO PARAISO-PJ-UNPJ 4.404,59 0,00 0,00 653,35 0,00 0,00 5.057,94 526,04 354,67 0,00 880,71 4.177,23 685,50 377,60 31/12/2014
10 333700 ADRIANA ABRITTA TEIXEIRA OFICIAL DO MP ATIVO BELO HORIZONTE - COMARCA; DIRET DE PESSOAL DO MINISTERIO PUBLICO - DPMP 6.068,01 606,80 0,00 1.900,89 2.224,94 0,00 10.800,64 797,16 1.559,39 0,00 2.356,55 8.444,09 685,50 572,10 31/12/2014
11 468500 ADRIANA APARECIDA FIRMINO ANALISTA DO MP ATIVO CARATINGA - COMARCA; CARATINGA-PJ-04PJ 6.793,15 407,59 0,00 1.840,24 0,00 0,00 9.040,98 1.046,10 1.037,90 0,00 2.084,00 6.956,98 4.465,79 2.634,32 31/12/2014
12 326100 ADRIANA AUGUSTA AMARAL BELO OFICIAL DO MP ATIVO BARBACENA - COMARCA; BARBACENA-PJ-08PJ 6.068,01 606,80 0,00 1.999,73 0,00 0,00 8.674,54 734,23 708,67 0,00 1.442,90 7.231,64 920,50 0,00 31/12/2014
13 605700 ADRIANA COSTA LIRA OFICIAL DO MP ATIVO BELO HORIZONTE - COMARCA; DIRET DE FORMACAO, APERFEIC. E POS-GRADUACAO 2.859,08 0,00 0,00 1.058,28 0,00 0,00 3.917,36 330,68 66,58 0,00 397,26 3.520,10 685,50 147,06 31/12/2014
14 541100 ADRIANA CRISTINA DE OLIVEIRA OFICIAL DO MP ATIVO GUAPÉ - COMARCA; GUAPE-PJ-UNPJ 2.952,15 0,00 0,00 2.577,91 0,00 0,00 5.530,06 324,74 49,50 0,00 374,24 5.155,82 920,50 0,00 31/12/2014
15 254800 ADRIANA DAS GRACAS FERNANDES ANALISTA DO MP ATIVO UBERABA - COMARCA; UBERABA-PJ-07PJ 10.984,62 5.492,31 0,00 4.023,84 0,00 0,00 20.500,77 1.812,46 3.157,16 0,00 4.969,62 15.531,15 685,50 0,00 31/12/2014
16 246900 ADRIANA DE ALMEIDA ANTONINI ASSESSOR ATIVO BELO HORIZONTE - COMARCA; PROCON-MG-SECRETARIA DE FISCALIZACOES 0,00 471,82 2.359,08 1.360,57 943,63 0,00 5.135,10 698,20 313,52 0,00 1.011,72 4.123,38 685,50 0,00 31/12/2014
17 217400 ADRIANA DE CARVALHO CATAO BRAGA ASSESSOR ATIVO BELO HORIZONTE - COMARCA; EXTINTA - DIRETORIA DE CONTRATOS E CONVÊNIOS 0,00 1.253,12 6.265,58 2.650,66 0,00 0,00 10.169,36 965,86 1.297,20 0,00 2.263,06 7.906,30 685,50 0,00 31/12/2014
18 434600 ADRIANA FERREIRA DA SILVA ANALISTA DO MP ATIVO BELO HORIZONTE - COMARCA; BH-14PJ DEFESA CONSUMIDOR-GAB 112PJ 7.014,37 701,44 0,00 2.484,02 2.571,94 0,00 12.771,77 848,74 1.769,58 0,00 2.618,32 10.153,45 685,50 0,00 31/12/2014
19 499800 ADRIANA FERREIRA TIAGO OFICIAL DO MP ATIVO SALINAS - COMARCA; SALINAS-PJ-02PJ 4.000,95 240,06 0,00 1.508,58 0,00 0,00 5.749,59 573,73 246,30 0,00 820,03 4.929,56 685,50 974,79 31/12/2014
20 543400 ADRIANA GUIMARAES NUNES DE PAULA ANALISTA DO MP ATIVO PATROCÍNIO - COMARCA; PATROCINIO-PJ-01PJ 5.006,87 0,00 0,00 1.553,01 0,00 0,00 6.559,88 550,76 399,66 0,00 950,42 5.609,46 685,50 0,00 31/12/2014
21 471500 ADRIANA HORTA DE CARVALHO RODRIGUES DE SOUSA ANALISTA DO MP ATIVO NOVA LIMA - COMARCA; NOVA LIMA-PJ-03PJ 6.265,58 375,93 0,00 5.161,00 2.213,84 0,00 14.016,35 730,57 1.358,74 0,00 2.089,31 11.927,04 1.155,50 0,00 31/12/2014
22 86400 ADRIANA MOREIRA CALDEIRA BRANT OFICIAL DO MP ATIVO BELO HORIZONTE - COMARCA; EXTINTA-TUTELA DAS FUNDACOES-21 PJ- GABINETE 9.358,72 4.679,36 0,00 2.727,72 0,00 0,00 16.765,80 1.968,75 2.560,25 0,00 4.529,00 12.236,80 685,50 3.859,65 31/12/2014
23 480700 ADRIANA MOREIRA DE AVELLAR CEZILIO OFICIAL DO MP ATIVO BELO HORIZONTE - COMARCA; EXTINTA - DIVISAO DE MATERIAL DE CONSUMO 3.355,81 201,35 0,00 3.079,93 1.185,72 0,00 7.822,81 391,29 295,28 0,00 686,57 7.136,24 1.155,50 0,00 31/12/2014
24 326000 ADRIANA PEREIRA CARNEIRO RESENDE OFICIAL DO MP ATIVO BELO HORIZONTE - COMARCA; PJDH-COMB A VIOLENCIA DOMESTICA-ATENDIMENTO 5.691,44 569,14 0,00 1.805,66 0,00 0,00 8.066,24 753,82 607,29 0,00 1.361,11 6.705,13 803,97 603,21 31/12/2014
25 502200 ADRIANA PETRUCCI DAVINA OFICIAL DO MP ATIVO PATROCÍNIO - COMARCA; PATROCINIO-PJ-03PJ 4.000,95 240,06 0,00 1.870,83 0,00 0,00 6.111,84 466,51 246,30 0,00 712,81 5.399,03 685,50 0,00 31/12/2014
26 201900 ADRIANA REIS PIMENTA OFICIAL DO MP ATIVO TEÓFILO OTONI - COMARCA; TEOFILO OTONI-PJ-03PJ 8.501,02 2.550,31 0,00 2.431,35 3.683,78 0,00 17.166,46 1.215,65 2.891,70 0,00 4.107,35 13.059,11 685,50 0,00 31/12/2014
27 278700 ADRIANA RODRIGUES PINTO COELHO AMARAL ANALISTA DO MP ATIVO BELO HORIZONTE - COMARCA; ASSESS TECNICA DA CORREGEDORIA-GERAL DO MP 9.977,95 1.995,59 0,00 2.852,89 0,00 0,00 14.826,43 1.317,09 2.005,53 0,00 3.322,62 11.503,81 685,50 0,00 31/12/2014
28 468000 ADRIANA SANTOS DE SANTANA MOREIRA ANALISTA DO MP ATIVO ARAÇUAÍ - COMARCA; ARACUAI-PJ-01PJ 6.793,15 1.358,63 0,00 5.776,43 2.717,26 0,00 16.645,47 1.105,62 1.817,40 0,00 2.923,02 13.722,45 1.191,46 1.902,54 31/12/2014
29 194700 ADRIANA TSUKIDE OFICIAL DO MP ATIVO UBERABA - COMARCA; COORD REG BACIAS PARANAIBA BAIXO RIO GRANDE 8.501,02 2.550,31 0,00 7.457,91 0,00 0,00 18.509,24 1.402,67 1.829,24 0,00 3.231,91 15.277,33 685,50 1.700,20 31/12/2014
30 206400 ADRIANE MENDES DE SOUZA ANALISTA DO MP ATIVO BELO HORIZONTE - COMARCA; BH-23PJ CIVEL-FISC AC POL PUB II 12.356,19 6.178,10 0,00 3.920,59 0,00 0,00 22.454,88 2.038,77 3.660,70 0,00 5.699,47 16.755,41 685,50 0,00 31/12/2014
31 465500 ADRIANO CASSIANO MATOS ANALISTA DO MP ATIVO ARAXÁ - COMARCA; ARAXA-PJ-02PJ 6.265,58 375,93 0,00 1.702,43 0,00 0,00 8.343,94 931,40 799,36 0,00 1.730,76 6.613,18 685,50 1.825,77 31/12/2014
32 500500 ADRIANO DE ALMEIDA SILVA OFICIAL DO MP ATIVO UBERABA - COMARCA; UBERABA-PJ-12PJ 4.000,95 240,06 0,00 1.903,18 1.413,67 0,00 7.557,86 466,51 600,60 0,00 1.067,11 6.490,75 685,50 0,00 31/12/2014
33 187200 ADRIANO DE FREITAS MARON OFICIAL DO MP ATIVO PONTE NOVA - COMARCA; PONTE NOVA-PJ-03PJ 6.793,15 4.755,22 0,00 2.373,28 0,00 0,00 13.921,65 1.683,64 2.242,59 0,00 3.926,23 9.995,42 685,50 3.757,38 31/12/2014
34 477900 ADRIANO FERREIRA DE ALMEIDA OFICIAL DO MP ATIVO MONTES CLAROS - COMARCA; MONTES CLAROS-PJ-04PJ 4.000,95 240,06 0,00 1.476,76 0,00 0,00 5.717,77 466,51 177,23 0,00 643,74 5.074,03 1.381,22 34,79 31/12/2014
35 269101 ADRIANO PEREIRA SILVA ANALISTA DO MP ATIVO UBERABA - COMARCA; UBERABA-PJ-02PJ 6.793,15 407,59 0,00 2.250,51 2.400,25 0,00 11.851,50 792,08 1.497,46 0,00 2.289,54 9.561,96 920,50 0,00 31/12/2014
36 414200 ADRIANO RODRIGUES FERNANDES ANALISTA DO MP ATIVO CARANDAÍ - COMARCA; CARANDAI-PJ-UNPJ 6.469,61 646,96 0,00 1.913,36 2.372,19 0,00 11.402,12 998,05 1.419,72 0,00 2.417,77 8.984,35 920,50 1.956,63 31/12/2014
37 536700 ADRIELLE COSTA MARIA OFICIAL DO MP ATIVO SERRO - COMARCA; SERRO-PJ-SECRETARIA 2.952,15 0,00 0,00 1.282,21 984,05 0,00 5.218,41 324,74 209,62 0,00 534,36 4.684,05 685,50 0,00 31/12/2014
38 514300 ADRIENE DAMASCENO BRAGA ANALISTA DO MP ATIVO ALFENAS - COMARCA; ALFENAS-PJ-03PJ 6.068,01 364,08 0,00 1.707,52 0,00 0,00 8.139,61 787,63 748,10 0,00 1.535,73 6.603,88 1.049,58 761,53 31/12/2014
39 254600 ADRIENE DOMINGUES COSTA ANALISTA DO MP ATIVO BELO HORIZONTE - COMARCA; PROC. JUSTICA DIR. DIFUSOS E COLETIVOS-SEC 9.358,72 1.871,74 0,00 2.307,88 0,00 0,00 13.538,34 1.575,00 1.922,51 0,00 3.497,51 10.040,83 0,00 3.430,80 31/12/2014
40 252001 ADRIENE GOMES BARRETO ANALISTA DO MP ATIVO BELO HORIZONTE - COMARCA; BH-19PJ SAUDE-SECRETARIA 150PJ 8.233,02 2.469,91 0,00 2.331,72 0,00 0,00 13.034,65 1.288,70 1.793,39 0,00 3.082,09 9.952,56 685,50 1.012,53 31/12/2014
41 118100 AGENOR ALCIR RODRIGUES DA SILVA OFICIAL DO MP ATIVO SÃO JOÃO NEPOMUCENO - COMARCA; SAO JOAO NEPOMUCENO-PJ-01PJ 10.984,62 7.689,24 0,00 3.832,92 6.224,62 0,00 28.731,40 2.054,12 5.456,05 0,00 7.510,17 21.221,23 685,50 0,00 31/12/2014
42 302500 AGENOR JOSE DA SILVA JUNIOR ANALISTA DO MP ATIVO JUIZ DE FORA - COMARCA; JUIZ DE FORA-PJ-07PJ 9.663,38 966,34 0,00 2.468,96 0,00 0,00 13.098,68 1.169,27 1.676,63 0,00 2.845,90 10.252,78 685,50 0,00 31/12/2014
43 357500 AILSON WAGNER DE ALENCAR SILVA OFICIAL DO MP ATIVO BELO HORIZONTE - COMARCA; DIRETORIA DO COLEGIO E DA CAMARA DE PJ 5.876,69 1.763,01 0,00 2.898,97 2.546,57 0,00 13.085,24 919,84 1.595,71 0,00 2.515,55 10.569,69 920,50 722,49 31/12/2014
44 366400 AILTON ALEXSSANDRO ALVES OFICIAL DO MP ATIVO PARÁ DE MINAS - COMARCA; PARA DE MINAS-PJ-05PJ 5.511,94 1.653,58 0,00 5.303,90 2.388,51 0,00 14.857,93 862,78 1.584,45 0,00 2.447,23 12.410,70 685,50 677,91 31/12/2014
45 318900 AILTON DE CASTRO RIBEIRO JUNIOR OFICIAL DO MP ATIVO POUSO ALEGRE - COMARCA; POUSO ALEGRE-PJ-03PJ 5.511,94 2.210,71 0,00 2.783,41 2.574,22 0,00 13.080,28 911,93 1.657,14 0,00 2.569,07 10.511,21 685,50 1.675,98 31/12/2014
46 464400 ALAN MONTEIRO GASPAR ANALISTA DO MP ATIVO SETE LAGOAS - COMARCA; SETE LAGOAS-PJ-03PJ 6.793,15 407,59 0,00 2.555,79 0,00 0,00 9.756,53 976,62 936,23 0,00 1.912,85 7.843,68 685,50 1.677,66 31/12/2014
47 492000 ALANA DE CASTRO FREITAS OFICIAL DO MP ATIVO BOM SUCESSO - COMARCA; BOM SUCESSO-PJ-UNPJ 3.355,81 201,35 0,00 1.401,00 0,00 0,00 4.958,16 391,29 139,85 0,00 531,14 4.427,02 685,50 0,00 31/12/2014
48 306700 ALANA MARCIA DE OLIVEIRA OFICIAL DO MP ATIVO BELO HORIZONTE - COMARCA; DIRETORIA DE ADMINISTRACAO FINANCEIRA 5.691,44 1.138,29 0,00 1.818,16 2.276,58 0,00 10.924,47 751,27 1.471,49 0,00 2.222,76 8.701,71 685,50 0,00 31/12/2014
49 324500 ALANMAR COUTINHO COSTA OFICIAL DO MP ATIVO LEOPOLDINA - COMARCA; LEOPOLDINA-PJ-02PJ 5.338,12 533,81 0,00 2.336,76 1.957,31 0,00 10.166,00 645,91 755,28 0,00 1.401,19 8.764,81 920,50 0,00 31/12/2014
50 508200 ALBERTO DA SILVA VIEIRA ASSESSOR ATIVO BELO HORIZONTE - COMARCA; ASSESS ESPECIAL DO PGJ ATUACAO JUNTO A PGJAA 0,00 0,00 8.777,78 3.032,80 2.925,93 0,00 14.736,51 965,86 2.349,24 0,00 3.315,10 11.421,41 685,50 0,00 31/12/2014
51 407300 ALBERTO LUIZ SOARES DE OLIVEIRA ANALISTA DO MP ATIVO BELO HORIZONTE - COMARCA; SUPERINTENDÊNCIA DE ENGENHARIA E ARQUITETURA 7.721,95 772,20 0,00 6.307,00 0,00 0,00 14.801,15 934,36 1.252,79 0,00 2.187,15 12.614,00 685,50 0,00 31/12/2014
52 118200 ALBERTO PEREIRA DA COSTA OFICIAL DO MP ATIVO DORES DO INDAIÁ - COMARCA; DORES DO INDAIA-PJ-UNPJ 9.663,38 6.764,36 0,00 3.311,12 0,00 0,00 19.738,86 1.807,05 3.095,70 0,00 4.902,75 14.836,11 685,50 0,00 31/12/2014
53 282400 ALCILENE MARISE DE ARAUJO ANALISTA DO MP ATIVO BELO HORIZONTE - COMARCA; BH-23PJ INF-FISC MED SOC FEC 9.977,95 1.995,59 0,00 2.852,89 0,00 0,00 14.826,43 1.317,09 2.005,53 0,00 3.322,62 11.503,81 4.230,79 324,98 31/12/2014
54 112600 ALCIONE DA MOTA JARDIM OFICIAL DO MP ATIVO BELO HORIZONTE - COMARCA; CAO-CRIANCAS E ADOLESCENTES 7.973,40 3.189,36 0,00 2.445,83 3.720,92 0,00 17.329,51 1.344,07 2.879,77 0,00 4.223,84 13.105,67 920,50 1.056,12 31/12/2014
55 396400 ALCIONE DE FREITAS E SILVA ANALISTA DO MP ATIVO BELO HORIZONTE - COMARCA; DIRET DE PESSOAL DO MINISTERIO PUBLICO - DPMP 8.233,02 2.469,91 0,00 2.331,72 3.567,64 0,00 16.602,29 1.288,70 2.774,49 0,00 4.063,19 12.539,10 685,50 1.012,53 31/12/2014
56 161600 ALCIONE NERY SOUZA ASSESSOR ATIVO BELO HORIZONTE - COMARCA; GRUPO ESPECIAL DE DEFESA DA FAUNA 0,00 2.506,23 6.265,58 2.932,61 0,00 0,00 11.704,42 965,86 1.641,80 0,00 2.607,66 9.096,76 685,50 0,00 31/12/2014
57 376000 ALDA GOMES LANA OFICIAL DO MP ATIVO BELO HORIZONTE - COMARCA; BH-18PJ VIOLENCIA DOMESTICA-SECRETARIA 5.169,86 516,99 0,00 1.701,58 0,00 0,00 7.388,43 625,55 516,29 0,00 1.141,84 6.246,59 685,50 0,00 31/12/2014
58 148000 ALDA MARTINS SIMOES OFICIAL DO MP ATIVO BELO HORIZONTE - COMARCA; BH-23PJ CIVEL- FISC ENT AB POL 9.977,95 3.991,18 0,00 3.075,36 0,00 0,00 17.044,49 1.536,60 2.592,80 0,00 4.129,40 12.915,09 685,50 0,00 31/12/2014
59 318400 ALDO CREPALDI JUNIOR OFICIAL DO MP ATIVO BELO HORIZONTE - COMARCA; EXTINTA - DIVISAO DE MATERIAL DE CONSUMO 5.691,44 1.138,29 0,00 2.393,90 0,00 0,00 9.223,63 941,65 781,52 0,00 1.723,17 7.500,46 1.354,26 1.717,73 31/12/2014
60 118400 ALECIO JOSE GUIMARAES DE OLIVEIRA ANALISTA DO MP ATIVO BOM SUCESSO - COMARCA; BOM SUCESSO-PJ-UNPJ 14.432,31 11.545,84 0,00 3.813,63 0,00 2.857,60 32.649,38 2.857,60 6.317,84 0,00 9.175,44 23.473,94 685,50 2.857,60 31/12/2014
61 604500 ALENIZE APARECIDA RODRIGUES HENRIQUE OFICIAL DO MP ATIVO RIO NOVO - COMARCA; RIO NOVO-PJ-UNPJ 2.952,15 0,00 0,00 1.058,28 0,00 0,00 4.010,43 355,46 62,98 0,00 418,44 3.591,99 778,57 312,56 31/12/2014
62 197900 ALESSA DE SOUSA E SILVA OFICIAL DO MP ATIVO OLIVEIRA - COMARCA; OLIVEIRA-PJ-02PJ 9.358,72 2.807,62 0,00 2.556,22 4.055,45 0,00 18.778,01 1.544,20 3.167,97 0,00 4.712,17 14.065,84 1.040,50 1.871,74 31/12/2014
63 428500 ALESSANDRA ALVES DINIZ OFICIAL DO MP ATIVO BELO HORIZONTE - COMARCA; CENTRAL DE APOIO TECNICO-SECRETARIA 3.814,70 1.525,88 0,00 4.272,16 0,00 0,00 9.612,74 587,46 480,96 0,00 1.068,42 8.544,32 685,50 0,00 31/12/2014
64 286801 ALESSANDRA BOTELHO JUNQUEIRA DE MENEZES ANALISTA DO MP ATIVO PASSOS - COMARCA; PASSOS-PJ-05PJ 7.973,40 1.594,68 0,00 2.890,17 0,00 0,00 12.458,25 1.052,49 1.416,80 0,00 2.469,29 9.988,96 920,50 0,00 31/12/2014
65 307000 ALESSANDRA CRISTINA SANTOS MENDES ANALISTA DO MP ATIVO BELO HORIZONTE - COMARCA; BH-18PJ VIOLENCIA DOMESTICA 7.014,37 1.402,87 0,00 3.153,40 0,00 0,00 11.570,64 925,90 1.184,55 0,00 2.110,45 9.460,19 685,50 0,00 31/12/2014
66 264400 ALESSANDRA DE SOUZA SANTOS COORDENADOR/ANALISTA ATIVO BELO HORIZONTE - COMARCA; DIRETORIA DE PRODUCAO EDITORIAL 10.984,62 5.355,96 0,00 4.018,28 0,00 0,00 20.358,86 1.570,80 3.235,54 0,00 4.806,34 15.552,52 685,50 0,00 31/12/2014
67 441500 ALESSANDRA DRUMMOND DE FIGUEIREDO ROSSI ANALISTA DO MP ATIVO BELO HORIZONTE - COMARCA; DIRETORIA DE PROJETOS DE EDIFICACOES 6.469,61 646,96 0,00 1.930,38 0,00 0,00 9.046,95 896,69 915,63 0,00 1.812,32 7.234,63 685,50 1.035,12 31/12/2014
68 524000 ALESSANDRA LUCIOLI DE BARROS GUERRA ANALISTA DO MP ATIVO BELO HORIZONTE - COMARCA; EXTINTA-MEIO AMB PATRIM HIST CULTURAL-15PJGAB 6.068,01 0,00 0,00 4.889,79 0,00 0,00 10.957,80 667,48 510,74 0,00 1.178,22 9.779,58 685,50 0,00 31/12/2014
69 479900 ALESSANDRA MARA ANDRADE DE FARIA OFICIAL DO MP ATIVO UBERABA - COMARCA; UBERABA-PJ-09PJ 4.000,95 240,06 0,00 1.764,10 1.413,67 0,00 7.418,78 466,51 600,60 0,00 1.067,11 6.351,67 920,50 0,00 31/12/2014
70 226700 ALESSANDRA MARA VASCONCELOS REZENDE OFICIAL DO MP ATIVO CONSELHEIRO LAFAIETE - COMARCA; CONSELHEIRO LAFAIETE-PJ-07PJ 5.338,12 1.067,62 0,00 1.756,58 2.135,25 0,00 10.297,57 704,63 1.328,85 0,00 2.033,48 8.264,09 685,50 0,00 31/12/2014
71 112100 ALESSANDRA MARCIA FERREIRA OFICIAL DO MP ATIVO BELO HORIZONTE - COMARCA; BELO HORIZONTE- SECRETARIA DAS PROMOTORIAS 7.721,95 3.088,79 0,00 2.445,83 3.603,58 0,00 16.860,15 1.189,18 2.761,34 0,00 3.950,52 12.909,63 685,50 0,00 31/12/2014
72 196500 ALESSANDRA MARIA RIBEIRO LUCIANO OFICIAL DO MP ATIVO RIO PARANAÍBA - COMARCA; RIO PARANAIBA-PJ-UNPJ 9.358,72 2.807,62 0,00 2.480,77 0,00 0,00 14.647,11 1.706,25 2.102,14 0,00 3.808,39 10.838,72 920,50 3.345,03 31/12/2014
73 91400 ALESSANDRA MENDES VASCONCELOS DE SOUZA OFICIAL DO MP ATIVO BELO HORIZONTE - COMARCA; BH-23PJ INF-FISC MED SOC AB 12.356,19 6.178,10 0,00 3.871,17 6.178,10 0,00 28.583,56 2.038,77 5.409,10 0,00 7.447,87 21.135,69 685,50 0,00 31/12/2014
74 384900 ALESSANDRA RODRIGUES ANALISTA DO MP ATIVO VISCONDE DO RIO BRANCO - COMARCA; VISCONDE DO RIO BRANCO-PJ-03PJ 8.233,02 823,30 0,00 2.198,94 3.018,77 0,00 14.274,03 1.090,44 2.121,70 0,00 3.212,14 11.061,89 685,50 856,74 31/12/2014
75 390000 ALESSANDRA SPADANO MASSARA VASCONCELOS OFICIAL DO MP ATIVO BETIM - COMARCA; BETIM-PJ-10PJ 5.169,86 516,99 0,00 1.626,12 0,00 0,00 7.312,97 684,71 565,71 0,00 1.250,42 6.062,55 685,50 537,87 31/12/2014
76 426500 ALESSANDRO CAMPOS DE PAIVA COORDENADOR/ANALISTA ATIVO BELO HORIZONTE - COMARCA; DIRETORIA DE PUBLICIDADE INSTITUCIONAL 0,00 1.030,28 10.302,83 2.760,76 0,00 0,00 14.093,87 848,74 2.057,05 0,00 2.905,79 11.188,08 685,50 0,00 31/12/2014
77 623400 ALESSANDRO DE OLIVEIRA REZENDE ANALISTA DO MP ATIVO BELO HORIZONTE - COMARCA; DIVISAO DE MEMORIA INSTITUCIONAL 4.404,59 0,00 0,00 1.306,70 0,00 0,00 5.711,29 484,50 279,06 0,00 763,56 4.947,73 685,50 0,00 31/12/2014
78 420600 ALESSANDRO SILVA OFICIAL DO MP ATIVO VISCONDE DO RIO BRANCO - COMARCA; VISCONDE DO RIO BRANCO-PJ-02PJ 3.814,70 762,94 0,00 1.650,21 1.525,88 0,00 7.753,73 503,54 382,19 0,00 885,73 6.868,00 685,50 0,00 31/12/2014
79 375301 ALETHEIA PATRICIA ASSIS MORAIS MOREIRA ANALISTA DO MP ATIVO ITABIRA - COMARCA; ITABIRA-PJ-02PJ 5.511,94 0,00 0,00 1.626,76 0,00 0,00 7.138,70 606,31 522,90 0,00 1.129,21 6.009,49 685,50 0,00 31/12/2014
80 382300 ALEX CARVALHO LIMA ANALISTA DO MP ATIVO UBERLÂNDIA - COMARCA; UBERLANDIA-PJ-14PJ 8.233,02 823,30 0,00 6.485,47 0,00 0,00 15.541,79 1.090,44 1.270,92 0,00 2.361,36 13.180,43 685,50 856,74 31/12/2014
81 195201 ALEX DE CASTRO PEREIRA ANALISTA DO MP ATIVO UBERABA - COMARCA; UBERABA-PJ-09PJ 9.977,95 2.993,39 0,00 8.601,50 4.323,78 0,00 25.896,62 1.646,37 3.488,20 0,00 5.134,57 20.762,05 685,50 1.995,60 31/12/2014
82 358900 ALEX DE PAULA LANZA ASSESSOR ATIVO BELO HORIZONTE - COMARCA; DIRETORIA DE IMPRENSA 0,00 0,00 6.265,58 2.368,71 0,00 0,00 8.634,29 965,86 952,59 0,00 1.918,45 6.715,84 685,50 0,00 31/12/2014
83 178400 ALEX RODRIGO SALDANHA GUIMARAES OFICIAL DO MP ATIVO BELO HORIZONTE - COMARCA; DIRETORIA DE SISTEMAS DE INFORMACAO 4.696,06 1.408,82 0,00 1.644,67 0,00 0,00 7.749,55 774,86 668,02 0,00 1.442,88 6.306,67 685,50 939,22 31/12/2014
84 289200 ALEX SANDRO PEREIRA DE MATOS OFICIAL DO MP ATIVO BELO HORIZONTE - COMARCA; PROCON-MG-SECRETARIA DE FISCALIZACOES 4.696,06 2.047,53 0,00 2.262,94 2.247,86 0,00 11.254,39 619,88 1.476,03 0,00 2.095,91 9.158,48 4.230,79 324,98 31/12/2014
85 413500 ALEX VILELA OLIVEIRA ANALISTA DO MP ATIVO GOVERNADOR VALADARES - COMARCA; COORD REG PJ DEF EDU DIR CRIANCA ADOL RIODOCE 7.973,40 797,34 0,00 6.485,47 0,00 0,00 15.256,21 1.022,67 1.449,29 0,00 2.471,96 12.784,25 685,50 526,26 31/12/2014
86 264300 ALEXANDRA FATIMA SARAIVA SOARES ANALISTA DO MP ATIVO BELO HORIZONTE - COMARCA; CENTRAL DE APOIO TECN-SETOR DE MEIO AMBIENTE 10.984,62 2.196,92 0,00 3.344,77 4.393,85 0,00 20.920,16 1.449,97 3.608,34 0,00 5.058,31 15.861,85 685,50 0,00 31/12/2014
87 488000 ALEXANDRA LARA PAIS DE CARVALHO ANALISTA DO MP ATIVO GUANHÃES - COMARCA; GUANHAES-PJ-SECRETARIA 5.691,44 341,49 0,00 4.817,74 0,00 0,00 10.850,67 663,62 551,57 0,00 1.215,19 9.635,48 1.155,50 0,00 31/12/2014
88 256300 ALEXANDRA SANTOS GOMES OFICIAL DO MP ATIVO BELO HORIZONTE - COMARCA; EXTINTA - DIVISÃO DE COMPRAS 5.876,69 1.175,34 0,00 1.850,45 0,00 0,00 8.902,48 775,72 899,84 0,00 1.675,56 7.226,92 685,50 0,00 31/12/2014
89 403300 ALEXANDRE AUGUSTO RODRIGUES ANALISTA DO MP ATIVO ÁGUAS FORMOSAS - COMARCA; AGUAS FORMOSAS-PJ-UNPJ 7.014,37 701,44 0,00 2.246,49 0,00 0,00 9.962,30 848,74 1.062,29 0,00 1.911,03 8.051,27 685,50 0,00 31/12/2014
90 311700 ALEXANDRE BARCELOS RESENDE OFICIAL DO MP ATIVO BELO HORIZONTE - COMARCA; BH-07PJ 03 TRIBUNAL DO JURI-GAB 109PJ 4.696,06 469,61 0,00 1.813,14 1.721,89 0,00 8.700,70 568,22 911,67 0,00 1.479,89 7.220,81 685,50 0,00 31/12/2014
91 285600 ALEXANDRE CAMPOS DE OLIVEIRA OFICIAL DO MP ATIVO UBERABA - COMARCA; COORD REG BACIAS PARANAIBA BAIXO RIO GRANDE 6.578,93 1.315,79 0,00 6.068,48 0,00 0,00 13.963,20 1.017,29 1.289,07 0,00 2.306,36 11.656,84 1.155,50 1.353,40 31/12/2014
92 509200 ALEXANDRE CAPUANO DE REZENDE ANALISTA DO MP ATIVO BELO HORIZONTE - COMARCA; GABINETE DE PROCURADOR DE JUSTIÇA - SALA 514 6.265,58 375,93 0,00 2.126,99 0,00 0,00 8.768,50 730,57 749,94 0,00 1.480,51 7.287,99 685,50 0,00 31/12/2014
93 229400 ALEXANDRE CARLOS BOTREL DIRETOR/OFICIAL ATIVO BELO HORIZONTE - COMARCA; SUPERINTENDENCIA DOS ORGAOS COLEGIADOS 0,00 2.670,79 13.353,95 3.668,66 5.341,58 0,00 25.034,98 1.052,49 4.760,15 0,00 5.812,64 19.222,34 685,50 0,00 31/12/2014
94 411900 ALEXANDRE CARVALHO SANTOS RIBEIRO ANALISTA DO MP ATIVO PERDÕES - COMARCA; PERDOES-PJ-UNPJ 7.014,37 701,44 0,00 5.804,78 2.571,94 0,00 16.092,53 848,74 1.769,58 0,00 2.618,32 13.474,21 685,50 0,00 31/12/2014
95 201200 ALEXANDRE DE ALENCAR CORDEIRO OFICIAL DO MP ATIVO ÁGUAS FORMOSAS - COMARCA; AGUAS FORMOSAS-PJ-UNPJ 4.696,06 1.878,43 0,00 1.781,09 0,00 0,00 8.355,58 723,19 782,96 0,00 1.506,15 6.849,43 685,50 0,00 31/12/2014
96 288200 ALEXANDRE DE VASCONCELOS COSTA KER ANALISTA DO MP ATIVO BELO HORIZONTE - COMARCA; BH-03PJ EMPRESARIAL-SECRETARIA 9.663,38 1.932,68 0,00 2.559,90 3.865,35 0,00 18.021,31 1.275,57 3.025,54 0,00 4.301,11 13.720,20 685,50 0,00 31/12/2014
97 445000 ALEXANDRE DIOGENES OLIVEIRA ANALISTA DO MP ATIVO SALINAS - COMARCA; SALINAS-PJ-02PJ 7.014,37 701,44 0,00 2.047,39 0,00 0,00 9.763,20 929,04 1.062,29 0,00 1.991,33 7.771,87 685,50 730,02 31/12/2014
98 463400 ALEXANDRE LEAL WINKELSTROTER ANALISTA DO MP ATIVO TEÓFILO OTONI - COMARCA; TEOFILO OTONI-PJ-04PJ 6.265,58 375,93 0,00 1.751,85 2.213,84 0,00 10.607,20 931,40 1.358,74 0,00 2.290,14 8.317,06 685,50 1.825,77 31/12/2014
99 615700 ALEXANDRE LUIZ DE CASTRO MACIEL ANALISTA DO MP ATIVO IBIRITÉ - COMARCA; IBIRITE-PJ-02PJ 4.848,98 0,00 0,00 1.972,37 0,00 0,00 6.821,35 533,39 368,05 0,00 901,44 5.919,91 685,50 0,00 31/12/2014
100 356900 ALEXANDRE MOISES MENDONCA E ARAUJO OFICIAL DO MP ATIVO UBERABA - COMARCA; UBERABA-PJ-13PJ 4.696,06 469,61 0,00 1.813,14 0,00 0,00 6.978,81 568,22 438,15 0,00 1.006,37 5.972,44 685,50 0,00 31/12/2014
101 469900 ALEXANDRE PEREIRA GUEDES ANALISTA DO MP ATIVO CATAGUASES - COMARCA; CATAGUASES-PJ-03PJ 6.265,58 375,93 0,00 1.790,82 0,00 0,00 8.432,33 730,57 799,36 0,00 1.529,93 6.902,40 685,50 0,00 31/12/2014
102 208700 ALEXANDRE RESENDE FRAGA ANALISTA DO MP ATIVO BELO HORIZONTE - COMARCA; BH-19PJ SAUDE 12.356,19 3.706,86 0,00 3.128,09 5.354,35 0,00 24.545,49 2.038,78 4.429,47 0,00 6.468,25 18.077,24 1.390,50 2.471,24 31/12/2014
103 216401 ALEXANDRE RIBEIRO DE LIMA MAIORINO ANALISTA DO MP ATIVO UBERABA - COMARCA; UBERABA-PJ-03PJ 9.663,38 1.932,68 0,00 8.357,93 0,00 0,00 19.953,99 1.275,57 1.962,56 0,00 3.238,13 16.715,86 685,50 0,00 31/12/2014
104 475100 ALEXANDRE TEOTONIO COSTA ANALISTA DO MP ATIVO ARAGUARI - COMARCA; ARAGUARI-PJ-01PJ 6.265,58 375,93 0,00 1.889,66 2.213,84 0,00 10.745,01 730,57 1.309,32 0,00 2.039,89 8.705,12 1.155,50 0,00 31/12/2014
105 339000 ALEXANDRE VITOR CARDOSO OFICIAL DO MP ATIVO BELO HORIZONTE - COMARCA; BH-18PJ DIREITOS HUMANOS-SECRETARIA 4.696,06 469,61 0,00 1.704,45 1.721,89 0,00 8.592,01 568,22 763,41 0,00 1.331,63 7.260,38 685,50 0,00 31/12/2014
106 623100 ALEXSANDER BATISTA AGUIAR ANALISTA DO MP ATIVO BELO HORIZONTE - COMARCA; DIRETORIA DE SUPORTE E MANUTENCAO 4.848,98 0,00 0,00 1.438,53 0,00 0,00 6.287,51 533,39 287,18 0,00 820,57 5.466,94 685,50 0,00 31/12/2014
107 513300 ALFSON MIRANDA BRAGA ANALISTA DO MP ATIVO BELO HORIZONTE - COMARCA; BH-12PJ JUIZO CRIMINAL-GAB 092PJ 5.691,44 341,49 0,00 1.840,16 0,00 0,00 7.873,09 726,41 650,41 0,00 1.376,82 6.496,27 4.230,79 959,21 31/12/2014
108 618400 ALICE MAGALHAES MACEDO DE CARVALHO ANALISTA DO MP ATIVO AÇUCENA - COMARCA; ACUCENA-PJ-UNPJ 4.848,98 0,00 0,00 2.095,65 0,00 0,00 6.944,63 579,11 462,38 0,00 1.041,49 5.903,14 685,50 415,70 31/12/2014
109 471000 ALICE TITONELI MOREIRA ANALISTA DO MP ATIVO MIRADOURO - COMARCA; MIRADOURO-PJ-UNPJ 6.793,15 407,59 0,00 1.840,24 0,00 0,00 9.040,98 976,62 886,81 0,00 1.863,43 7.177,55 920,50 1.677,66 31/12/2014
110 622400 ALINE BALBINO PORTUGAL ANALISTA DO MP ATIVO TRÊS PONTAS - COMARCA; TRES PONTAS-PJ-SECRETARIA 4.848,98 0,00 0,00 1.797,38 0,00 0,00 6.646,36 533,39 368,05 0,00 901,44 5.744,92 685,50 0,00 31/12/2014
111 373000 ALINE BOTELHO RESENDE OFICIAL DO MP ATIVO PASSA QUATRO - COMARCA; PASSA QUATRO-PJ-SECRETARIA 5.338,12 533,81 0,00 2.113,59 0,00 0,00 7.985,52 645,91 611,01 0,00 1.256,92 6.728,60 685,50 0,00 31/12/2014
112 407700 ALINE CRISTINA RODRIGUES PEREIRA ANALISTA DO MP ATIVO BELO HORIZONTE - COMARCA; DIRETORIA DE PROJETOS DE EDIFICACOES 6.469,61 646,96 0,00 1.765,10 0,00 0,00 8.881,67 998,05 915,63 0,00 1.913,68 6.967,99 920,50 1.956,63 31/12/2014
113 193100 ALINE CRISTINA SENA OLIVEIRA OFICIAL DO MP ATIVO UBERLÂNDIA - COMARCA; UBERLANDIA-PJ-03PJ 8.501,02 2.808,52 0,00 2.559,96 3.769,85 0,00 17.639,35 1.228,26 2.962,68 0,00 4.190,94 13.448,41 685,50 964,80 31/12/2014
114 554200 ALINE CRISTINA SILVA SOUZA OFICIAL DO MP ATIVO TIROS - COMARCA; TIROS-PJ-UNPJ 2.952,15 0,00 0,00 1.320,52 0,00 0,00 4.272,67 324,74 62,98 0,00 387,72 3.884,95 685,50 0,00 31/12/2014
115 505500 ALINE DA CUNHA MARREIROS OLIVEIRA ANALISTA DO MP ATIVO CARANGOLA - COMARCA; CARANGOLA-PJ-03PJ 6.265,58 375,93 0,00 2.126,99 0,00 0,00 8.768,50 730,57 749,94 0,00 1.480,51 7.287,99 920,50 0,00 31/12/2014
116 433500 ALINE DE MELO QUEIROZ OFICIAL DO MP ATIVO BELO HORIZONTE - COMARCA; PROCON-MG-SECRETARIA DE FISCALIZACOES 5.006,87 1.609,01 0,00 1.947,25 2.205,29 0,00 10.768,42 725,53 1.571,89 0,00 2.297,42 8.471,00 685,50 19.157,41 31/12/2014
117 542700 ALINE DE SOUSA ALBINO ANALISTA DO MP ATIVO CARMO DO PARANAÍBA - COMARCA; CARMO DO PARANAIBA-PJ-01PJ 5.006,87 0,00 0,00 1.782,43 0,00 0,00 6.789,30 550,76 399,66 0,00 950,42 5.838,88 2.688,25 150,21 31/12/2014
118 330000 ALINE DIORIO MAYRINK OFICIAL DO MP ATIVO BELO HORIZONTE - COMARCA; COORD ESTADUAL DE DEFESA DA EDUCACAO 5.006,87 500,69 0,00 1.600,89 1.835,85 0,00 8.944,30 663,14 1.026,68 0,00 1.689,82 7.254,48 685,50 521,04 31/12/2014
119 499000 ALINE FERREIRA LOPES NEIVA ANALISTA DO MP ATIVO TEÓFILO OTONI - COMARCA; COORD. DE DEF. DO PAT. PUBLICO-JEQUIT./MUCURI 6.265,58 375,93 0,00 2.765,52 0,00 0,00 9.407,03 730,57 749,94 0,00 1.480,51 7.926,52 685,50 0,00 31/12/2014
120 405300 ALINE LAIA CARDOZO ANALISTA DO MP ATIVO BELO HORIZONTE - COMARCA; EXTINTA - DIRETORIA DE CONTRATOS E CONVÊNIOS 8.233,02 823,30 0,00 2.627,56 0,00 0,00 11.683,88 1.090,44 1.390,38 0,00 2.480,82 9.203,06 685,50 856,74 31/12/2014
121 278200 ALINE MARCIA FARIA BARBOSA OFICIAL DO MP ATIVO BARBACENA - COMARCA; BARBACENA-PJ-SECRETARIA 4.696,06 939,21 0,00 1.792,93 1.878,42 0,00 9.306,62 619,88 921,39 0,00 1.541,27 7.765,35 920,50 0,00 31/12/2014
122 389000 ALINE NERI NOBRE ANALISTA DO MP ATIVO MONTES CLAROS - COMARCA; COORD REG PJ DEF EDUC DIR CRIANCA ADOL NORTE 8.233,02 1.646,60 0,00 2.261,16 0,00 0,00 12.140,78 1.086,76 1.591,89 0,00 2.678,65 9.462,13 685,50 0,00 31/12/2014
123 294600 ALINE PATRICIA SILVA VIEIRA OFICIAL DO MP ATIVO UBERLÂNDIA - COMARCA; UBERLANDIA-PJ-03PJ 6.578,93 2.424,11 0,00 2.627,62 3.001,01 0,00 14.631,67 868,42 2.137,31 0,00 3.005,73 11.625,94 1.155,50 0,00 31/12/2014
124 420000 ALINE RODRIGUES CAMOROPIN ANALISTA DO MP ATIVO SABARÁ - COMARCA; SABARA-PJ-02PJ 7.014,37 701,44 0,00 1.946,87 0,00 0,00 9.662,68 848,74 1.062,29 0,00 1.911,03 7.751,65 685,50 0,00 31/12/2014
125 408300 ALINE SILVA ARAUJO DE PAULA ANALISTA DO MP ATIVO SÃO SEBASTIÃO DO PARAÍSO - COMARCA; SAO SEBASTIAO DO PARAISO-PJ-02PJ 7.973,40 797,34 0,00 2.627,56 2.923,58 0,00 14.321,88 964,78 2.124,47 0,00 3.089,25 11.232,63 685,50 0,00 31/12/2014
126 425400 ALINE TRINDADE DE FREITAS CAMPOS OFICIAL DO MP ATIVO BELO HORIZONTE - COMARCA; BH-14PJ DEFESA CONSUMIDOR-SECRETARIA 5.006,87 500,69 0,00 4.379,90 0,00 0,00 9.887,46 605,83 521,83 0,00 1.127,66 8.759,80 685,50 0,00 31/12/2014
127 517200 ALISSOM PEREIRA DA SILVA ANALISTA DO MP ATIVO BORDA DA MATA - COMARCA; BORDA DA MATA-PJ-UNPJ 6.068,01 0,00 0,00 1.707,52 0,00 0,00 7.775,53 667,48 659,00 0,00 1.326,48 6.449,05 685,50 0,00 31/12/2014
128 442400 ALISSON LABRE ANALISTA DO MP ATIVO VARGINHA - COMARCA; VARGINHA-PJ-02PJ 7.014,37 701,44 0,00 2.047,39 0,00 0,00 9.763,20 929,04 1.062,29 0,00 1.991,33 7.771,87 685,50 730,02 31/12/2014
129 349000 ALLEC RODRIGUES VIEIRA ASSESSOR/OFICIAL ATIVO BELO HORIZONTE - COMARCA; COORD DE INCLUSAO E MOBILIZACAO SOCIAIS 0,00 877,78 8.777,78 2.228,62 3.218,52 0,00 15.102,70 1.062,11 2.422,14 0,00 3.484,25 11.618,45 685,50 0,00 31/12/2014
130 297300 ALLYSON SALIBA MONTEIRO LAIZO ANALISTA DO MP ATIVO CONSELHEIRO LAFAIETE - COMARCA; CONSELHEIRO LAFAIETE-PJ-03PJ 10.638,28 2.127,66 0,00 2.621,94 4.255,31 0,00 19.643,19 1.537,09 3.468,53 0,00 5.005,62 14.637,57 685,50 1.207,62 31/12/2014
131 303700 ALMIR LOPES LOURES ANALISTA DO MP ATIVO BELO HORIZONTE - COMARCA; CENTRAL DE APOIO TECN-SETOR DE MEIO AMBIENTE 10.638,28 2.127,66 0,00 4.581,12 4.255,31 0,00 21.602,37 1.404,25 3.369,68 0,00 4.773,93 16.828,44 685,50 0,00 31/12/2014
132 515900 ALTAIR NEVES JUNIOR OFICIAL DO MP ATIVO BELO HORIZONTE - COMARCA; BH-03PJ EMPRESARIAL-SECRETARIA 3.938,84 236,33 0,00 3.314,76 0,00 0,00 7.489,93 511,27 233,12 0,00 744,39 6.745,54 685,50 472,66 31/12/2014
133 233300 ALVARINDO BATISTA COORDENADOR/ANALISTA ATIVO BELO HORIZONTE - COMARCA; DIVISAO DE MULTIMIDIA 12.356,19 4.283,96 0,00 3.670,02 0,00 0,00 20.310,17 1.631,02 3.301,36 0,00 4.932,38 15.377,79 685,50 0,00 31/12/2014
134 274100 ALYSSON CARVALHO VIDAL DE LACERDA OFICIAL DO MP ATIVO MANHUAÇU - COMARCA; MANHUACU-PJ-01PJ 6.793,15 1.358,63 0,00 5.677,59 0,00 0,00 13.829,37 1.105,62 1.169,00 0,00 2.274,62 11.554,75 685,50 1.899,24 31/12/2014
135 621000 AMANDA BASTOS ALVES ANALISTA DO MP ATIVO BELO HORIZONTE - COMARCA; BH-18PJ VIOLENCIA DOMESTICA-SECRETARIA 4.404,59 0,00 0,00 1.947,13 0,00 0,00 6.351,72 484,50 279,06 0,00 763,56 5.588,16 685,50 0,00 31/12/2014
136 521700 AMANDA CRISTINA AGUIAR MACHADO OFICIAL DO MP ATIVO CONGONHAS - COMARCA; CONGONHAS-PJ-01PJ 3.250,03 0,00 0,00 1.195,62 0,00 0,00 4.445,65 357,50 71,89 0,00 429,39 4.016,26 685,50 0,00 31/12/2014
137 613400 AMANDA DE ASSIS IUNES SANTOS ANALISTA DO MP ATIVO PIRANGA - COMARCA; PIRANGA-PJ-UNPJ 4.404,59 0,00 0,00 1.732,93 0,00 0,00 6.137,52 484,50 279,06 0,00 763,56 5.373,96 920,50 0,00 31/12/2014
138 520800 AMANDA DE SOUZA MACHADO ANALISTA DO MP ATIVO BAEPENDI - COMARCA; BAEPENDI-PJ-UNPJ 6.068,01 0,00 0,00 1.806,36 2.022,67 0,00 9.897,04 667,48 1.116,39 0,00 1.783,87 8.113,17 920,50 0,00 31/12/2014
139 543100 AMANDA VIEIRA FREITAS ANALISTA DO MP ATIVO PARAGUAÇU - COMARCA; PARAGUACU-PJ-UNPJ 4.548,03 0,00 0,00 1.869,98 0,00 0,00 6.418,01 500,28 307,78 0,00 808,06 5.609,95 685,50 0,00 31/12/2014
140 434400 AMARILIS ASSIS SIMAO CURCIO ANALISTA DO MP ATIVO MANHUAÇU - COMARCA; MANHUACU-PJ-SECRETARIA 7.014,37 701,44 0,00 2.204,41 2.571,94 0,00 12.492,16 848,74 1.769,58 0,00 2.618,32 9.873,84 1.155,50 0,00 31/12/2014
141 273700 AMBROLINA CARNEIRO DE VASCONCELOS OFICIAL DO MP ATIVO FRUTAL - COMARCA; FRUTAL-PJ-03PJ 6.469,61 3.234,80 0,00 2.285,13 0,00 0,00 11.989,54 1.067,49 1.499,58 0,00 2.567,07 9.422,47 685,50 0,00 31/12/2014
142 58000 AMELIA GUARIZE DE CASTRO OFICIAL DO MP ATIVO JUIZ DE FORA - COMARCA; JUIZ DE FORA-PJ-SECRETARIA 5.169,86 4.652,88 0,00 1.955,77 0,00 1.080,50 12.859,01 1.080,50 1.875,10 0,00 2.955,60 9.903,41 685,50 1.080,50 31/12/2014
143 324301 AMERICA SUELI FERREIRA DA SILVA ANALISTA DO MP ATIVO MONTE CARMELO - COMARCA; MONTE CARMELO-PJ-02PJ 6.793,15 407,59 0,00 1.790,82 0,00 0,00 8.991,56 976,62 936,23 0,00 1.912,85 7.078,71 685,50 1.677,66 31/12/2014
144 273300 AMUJACY DE BRITO ASSIZ OFICIAL DO MP ATIVO BELO HORIZONTE - COMARCA; BH-12PJ JUIZO CRIMINAL-SECRETARIA 6.265,58 1.253,12 0,00 2.410,98 2.506,23 0,00 12.435,91 827,06 1.555,00 0,00 2.382,06 10.053,85 920,50 0,00 31/12/2014
145 482200 ANA ALICE LOPES ACHTSCHIN ANALISTA DO MP ATIVO BELO HORIZONTE - COMARCA; PROC JUST RECURSOS ESP E EXTRAORD CRIMINAIS 6.265,58 375,93 0,00 1.790,82 0,00 0,00 8.432,33 730,57 799,36 0,00 1.529,93 6.902,40 685,50 0,00 31/12/2014
146 490400 ANA AMELIA PAULINO GARCIA OFICIAL DO MP ATIVO BELO HORIZONTE - COMARCA; BH-12PJ JUIZO CRIMINAL-SECRETARIA 4.000,95 240,06 0,00 1.870,83 0,00 0,00 6.111,84 466,51 246,30 0,00 712,81 5.399,03 685,50 0,00 31/12/2014
147 279100 ANA CAROLINA ARAUJO PEREIRA ANALISTA DO MP ATIVO BELO HORIZONTE - COMARCA; DIRETORIA DE PROJETOS DE EDIFICACOES 9.401,94 2.127,66 0,00 4.401,83 4.255,31 0,00 20.186,74 1.537,09 3.128,53 0,00 4.665,62 15.521,12 920,50 1.207,62 31/12/2014
148 359400 ANA CAROLINA DE ABREU FARIA ASSESSOR ATIVO BELO HORIZONTE - COMARCA; DIVISAO DE CONTROLE IMOBILIARIO 0,00 0,00 6.265,58 2.688,64 0,00 0,00 8.954,22 965,86 952,59 0,00 1.918,45 7.035,77 685,50 0,00 31/12/2014
149 408500 ANA CAROLINA DE CASTRO CARVALHO ANALISTA DO MP ATIVO BARBACENA - COMARCA; BARBACENA-PJ-SECRETARIA 7.973,40 797,34 0,00 2.627,56 2.923,58 0,00 14.321,88 964,78 2.124,47 0,00 3.089,25 11.232,63 685,50 0,00 31/12/2014
150 420200 ANA CAROLINA FERNANDES SILVA ANALISTA DO MP ATIVO BELO HORIZONTE - COMARCA; GABINETE DE PROCURADOR DE JUSTIÇA - SALA 708 7.014,37 701,44 0,00 2.246,49 0,00 0,00 9.962,30 848,74 1.062,29 0,00 1.911,03 8.051,27 685,50 0,00 31/12/2014
151 522100 ANA CAROLINA FERNANDINO VIDAL PEREIRA SANTOS OFICIAL DO MP ATIVO BELO HORIZONTE - COMARCA; EXTINTA - SECRETARIA ADMINISTRATIVA 3.577,90 0,00 0,00 3.041,71 1.192,63 0,00 7.812,24 393,57 381,86 0,00 775,43 7.036,81 920,50 0,00 31/12/2014
152 502400 ANA CAROLINA GONCALVES FERNANDES ANALISTA DO MP ATIVO GRAO MOGOL - COMARCA; GRAO MOGOL-PJ-UNPJ 6.265,58 375,93 0,00 2.740,81 2.213,84 0,00 11.596,16 730,57 1.408,16 0,00 2.138,73 9.457,43 685,50 0,00 31/12/2014
153 529900 ANA CAROLINA GONCALVES PECANHA CHEQUER ANALISTA DO MP ATIVO MANHUAÇU - COMARCA; MANHUACU-PJ-04PJ 5.006,87 0,00 0,00 2.028,22 0,00 0,00 7.035,09 550,76 399,66 0,00 950,42 6.084,67 685,50 0,00 31/12/2014
154 431900 ANA CAROLINA MOTTA GUATIMOSIM ANALISTA DO MP ATIVO BELO HORIZONTE - COMARCA; GABINETE DE PROCURADOR DE JUSTIÇA - SALA 413 7.014,37 701,44 0,00 2.204,41 0,00 0,00 9.920,22 848,74 1.062,29 0,00 1.911,03 8.009,19 685,50 0,00 31/12/2014
155 539400 ANA CAROLINA REIS MACEDO ANALISTA DO MP ATIVO UBERABA - COMARCA; COORD REG PJ DEF EDUC DIR CRIANCA ADOL TRIANG 5.006,87 0,00 0,00 1.553,01 1.668,96 0,00 8.228,84 550,76 858,24 0,00 1.409,00 6.819,84 685,50 0,00 31/12/2014
156 490600 ANA CAROLINA XAVIER GODOY ANALISTA DO MP ATIVO BELO HORIZONTE - COMARCA; BH-18PJ VIOLENCIA DOMESTICA 6.265,58 375,93 0,00 2.740,81 0,00 0,00 9.382,32 730,57 799,36 0,00 1.529,93 7.852,39 685,50 0,00 31/12/2014
157 600300 ANA CAROLINE PEREIRA DINIZ ANALISTA DO MP ATIVO BELO HORIZONTE - COMARCA; COMB CRIMES PRAT POR AG POL MUN-SECRETARIA 5.006,87 0,00 0,00 1.631,96 0,00 0,00 6.638,83 550,76 399,66 0,00 950,42 5.688,41 685,50 0,00 31/12/2014
158 615800 ANA CAROLINE PEREIRA OLIVEIRA OFICIAL DO MP ATIVO ALFENAS - COMARCA; ALFENAS-PJ-06PJ 2.859,08 0,00 0,00 1.696,38 0,00 0,00 4.555,46 314,50 56,76 0,00 371,26 4.184,20 685,50 0,00 31/12/2014
159 324800 ANA CECILIA MENDES DA SILVA OFICIAL DO MP ATIVO OURO FINO - COMARCA; OURO FINO-PJ-01PJ 6.068,01 1.213,60 0,00 2.048,01 2.427,20 0,00 11.756,82 800,98 1.574,08 0,00 2.375,06 9.381,76 920,50 0,00 31/12/2014
160 441300 ANA CLAUDIA ALKIMIM MIRANDA BOMTEMPO ANALISTA DO MP ATIVO MONTES CLAROS - COMARCA; MONTES CLAROS-PJ-11PJ 7.014,37 701,44 0,00 2.303,25 0,00 0,00 10.019,06 848,74 963,45 0,00 1.812,19 8.206,87 1.155,50 0,00 31/12/2014
161 604900 ANA CLAUDIA OLIVEIRA DE MIRANDA OFICIAL DO MP ATIVO PONTE NOVA - COMARCA; PONTE NOVA-PJ-04PJ 2.859,08 0,00 0,00 1.058,28 0,00 0,00 3.917,36 333,37 69,56 0,00 402,93 3.514,43 685,50 171,57 31/12/2014
162 379300 ANA CRISTINA ALVES FLAVIO ANALISTA DO MP ATIVO SÃO GOTARDO - COMARCA; SAO GOTARDO-PJ-01PJ 8.233,02 823,30 0,00 2.198,94 0,00 0,00 11.255,26 1.090,44 1.291,54 0,00 2.381,98 8.873,28 4.581,23 1.192,30 31/12/2014
163 461200 ANA CRISTINA ALVES PASCHOAL ANALISTA DO MP ATIVO SANTA LUZIA - COMARCA; SANTA LUZIA-PJ-03PJ 6.793,15 407,59 0,00 1.790,82 0,00 0,00 8.991,56 976,62 936,23 0,00 1.912,85 7.078,71 920,50 1.677,66 31/12/2014
164 514100 ANA CRISTINA ARAUJO ASSUNCAO ANALISTA DO MP ATIVO BELO HORIZONTE - COMARCA; ASSESS JUR DO CONS SUPERIOR DO MINISTERIO PUB 6.068,01 364,08 0,00 4.790,95 0,00 0,00 11.223,04 787,63 698,68 0,00 1.486,31 9.736,73 920,50 728,16 31/12/2014
165 113400 ANA CRISTINA BRAGA ALBUQUERQUE ANALISTA DO MP ATIVO BELO HORIZONTE - COMARCA; ASSESS ESP ADM E FINANCEIRA DO PGJ ADJ ADM 23.074,69 11.537,35 0,00 4.688,30 8.863,23 0,00 48.163,57 2.924,86 8.119,06 8.022,36 19.066,28 29.097,29 685,50 0,00 31/12/2014
166 233800 ANA CRISTINA BRAGA SOARES RIOS OFICIAL DO MP ATIVO CONTAGEM - COMARCA; CONTAGEM-PJ-SECRETARIA 6.578,93 1.315,79 0,00 2.279,41 2.631,57 0,00 12.805,70 868,42 1.829,76 0,00 2.698,18 10.107,52 685,50 0,00 31/12/2014
167 186400 ANA CRISTINA DE AZEVEDO LOPES OFICIAL DO MP ATIVO UBÁ - COMARCA; UBA-PJ-01PJ 8.501,02 2.550,31 0,00 3.728,96 3.683,78 0,00 18.464,07 1.402,67 2.842,28 0,00 4.244,95 14.219,12 685,50 1.700,20 31/12/2014
168 465100 ANA CRISTINA DE OLIVEIRA GUIMARAES ANALISTA DO MP ATIVO BRASÓPOLIS - COMARCA; BRASOPOLIS-PJ-UNPJ 6.793,15 407,59 0,00 1.790,82 2.400,25 0,00 11.391,81 976,62 1.596,30 0,00 2.572,92 8.818,89 685,50 1.677,66 31/12/2014
169 500600 ANA CRISTINA LATADO SUDARIO ANALISTA DO MP ATIVO UBERLÂNDIA - COMARCA; UBERLANDIA-PJ-09PJ 6.265,58 375,93 0,00 2.355,61 0,00 0,00 8.997,12 730,57 799,36 0,00 1.529,93 7.467,19 685,50 0,00 31/12/2014
170 331400 ANA CRISTINA RIBEIRO ALVES OFICIAL DO MP ATIVO BAMBUÍ - COMARCA; BAMBUI-PJ-UNPJ 5.691,44 569,14 0,00 1.735,50 0,00 0,00 7.996,08 688,66 706,13 0,00 1.394,79 6.601,29 685,50 0,00 31/12/2014
171 249300 ANA ELOINA MARTINS DO PINHO OFICIAL DO MP ATIVO BETIM - COMARCA; BETIM-PJ-08PJ 7.242,73 2.172,82 0,00 3.753,88 3.138,52 0,00 16.307,95 1.035,71 2.291,98 0,00 3.327,69 12.980,26 685,50 0,00 31/12/2014
172 257400 ANA FLAVIA CAMBRAIA ANALISTA DO MP ATIVO BELO HORIZONTE - COMARCA; BH-19PJ SAUDE-SECRETARIA 150PJ 10.984,62 2.196,92 0,00 3.394,19 4.393,85 0,00 20.969,58 1.449,97 3.558,92 0,00 5.008,89 15.960,69 685,50 0,00 31/12/2014
173 248201 ANA FLAVIA DE MORAIS SOUZA ANALISTA DO MP ATIVO DIVINÓPOLIS - COMARCA; DIVINOPOLIS-PJ-01PJ 6.793,15 1.358,63 0,00 1.918,24 2.717,26 0,00 12.787,28 1.105,62 1.916,24 0,00 3.021,86 9.765,42 920,50 1.899,24 31/12/2014
174 621100 ANA FLAVIA DINIZ TEODORO OFICIAL DO MP ATIVO SANTA LUZIA - COMARCA; SANTA LUZIA-PJ-06PJ 2.859,08 0,00 0,00 1.272,29 0,00 0,00 4.131,37 314,50 56,76 0,00 371,26 3.760,11 685,50 0,00 31/12/2014
175 238600 ANA FLAVIA FRANCO OFICIAL DO MP ATIVO BELO HORIZONTE - COMARCA; DIRETORIA DE PESSOAL ADMINISTRATIVO - DPAD 7.242,73 1.448,55 0,00 2.486,84 2.897,09 0,00 14.075,21 956,04 2.097,74 0,00 3.053,78 11.021,43 685,50 0,00 31/12/2014
176 402900 ANA FLAVIA PORTES DE CARVALHO ANALISTA DO MP ATIVO BELO HORIZONTE - COMARCA; DIRET DE PLANOS PROJETOS E PROGRAMAS INST 8.233,02 823,30 0,00 2.149,52 3.018,77 0,00 14.224,61 1.090,44 2.171,12 0,00 3.261,56 10.963,05 920,50 856,74 31/12/2014
177 382700 ANA KARENINA SALDANHA GONTIJO ANALISTA DO MP ATIVO BELO HORIZONTE - COMARCA; ASSESS TECNICO-JUR JUNTO AS PROC. DE JUST 7.014,37 701,44 0,00 1.946,87 0,00 0,00 9.662,68 848,74 1.062,29 0,00 1.911,03 7.751,65 920,50 0,00 31/12/2014
178 620500 ANA KARINE DE ANDRADE OLIVEIRA ANALISTA DO MP ATIVO RIBEIRÃO DAS NEVES - COMARCA; RIBEIRAO DAS NEVES-PJ-10PJ 4.404,59 0,00 0,00 1.947,13 0,00 0,00 6.351,72 484,50 279,06 0,00 763,56 5.588,16 685,50 0,00 31/12/2014
179 220000 ANA LUCIA AMORIM OFICIAL DO MP ATIVO MARTINHO CAMPOS - COMARCA; MARTINHO CAMPOS-PJ-SECRETARIA 7.014,37 3.507,18 0,00 2.354,40 0,00 0,00 12.875,95 1.157,37 1.749,00 0,00 2.906,37 9.969,58 685,50 0,00 31/12/2014
180 462200 ANA LUCIA ANDRADE TOMICH OTTONI ANALISTA DO MP ATIVO TEÓFILO OTONI - COMARCA; TEOFILO OTONI-PJ-06PJ 6.793,15 407,59 0,00 1.889,66 2.400,25 0,00 11.490,65 976,62 1.497,46 0,00 2.474,08 9.016,57 920,50 1.677,66 31/12/2014
181 504100 ANA LUCIA CATAO DE CARVALHO OFICIAL DO MP ATIVO BELO HORIZONTE - COMARCA; BH-09PJ AUDITORIA MILITAR 4.000,95 240,06 0,00 3.568,63 0,00 0,00 7.809,64 466,51 205,87 0,00 672,38 7.137,26 920,50 0,00 31/12/2014
182 274700 ANA LUCIA DE ALENCAR BRAGATO OFICIAL DO MP ATIVO UBERABA - COMARCA; UBERABA-PJ-07PJ 6.469,61 1.293,92 0,00 2.942,50 2.587,84 0,00 13.293,87 853,99 1.736,21 0,00 2.590,20 10.703,67 685,50 0,00 31/12/2014
183 258600 ANA LUCIA DE FREITAS AZEVEDO ANALISTA DO MP ATIVO BELO HORIZONTE - COMARCA; BH-19PJ SAUDE-SECRETARIA 150PJ 10.638,28 2.127,66 0,00 2.680,41 0,00 0,00 15.446,35 1.404,25 2.298,31 0,00 3.702,56 11.743,79 685,50 0,00 31/12/2014
184 509400 ANA LUCIA DORNELAS MALLOSTO ANALISTA DO MP ATIVO JUIZ DE FORA - COMARCA; JUIZ DE FORA-PJ-18PJ 5.691,44 341,49 0,00 2.012,35 2.010,98 0,00 10.056,26 663,62 1.154,01 0,00 1.817,63 8.238,63 685,50 0,00 31/12/2014
185 524600 ANA LUCIA DOS SANTOS FERNANDES COELHO ASSESSOR ATIVO BELO HORIZONTE - COMARCA; COORD ESTADUAL DE DEFESA DA EDUCACAO 0,00 0,00 3.738,84 1.778,61 1.312,95 0,00 6.830,40 916,20 618,80 0,00 1.535,00 5.295,40 685,50 0,00 31/12/2014
186 302600 ANA LUCIA LOPES SANTOS OFICIAL DO MP ATIVO BELO HORIZONTE - COMARCA; PROCON-MG-SECRETARIA DE FISCALIZACOES 6.068,01 2.321,92 0,00 2.297,38 0,00 0,00 10.687,31 800,98 1.211,39 0,00 2.012,37 8.674,94 685,50 41.565,09 31/12/2014
187 493400 ANA LUISA NOGUEIRA MOREIRA ANALISTA DO MP ATIVO BELO HORIZONTE - COMARCA; TRIBUNAL DO JURI-07 PJ-02 TRIBUNAL 6.265,58 375,93 0,00 5.111,58 0,00 0,00 11.753,09 730,57 799,36 0,00 1.529,93 10.223,16 685,50 0,00 31/12/2014
188 389300 ANA LUISA REUTER LIMA ANALISTA DO MP ATIVO BELO HORIZONTE - COMARCA; DIRETORIA DE SISTEMAS DE INFORMACAO 6.793,15 679,32 0,00 1.877,30 0,00 0,00 9.349,77 899,73 1.002,74 0,00 1.902,47 7.447,30 685,50 706,92 31/12/2014
189 480600 ANA LUIZA FERNANDES FRAGA E GRECO OFICIAL DO MP ATIVO SANTO ANTÔNIO DO MONTE - COMARCA; SANTO ANTONIO DO MONTE-PJ-UNPJ 3.694,41 221,66 0,00 1.339,49 0,00 0,00 5.255,56 430,77 187,77 0,00 618,54 4.637,02 685,50 0,00 31/12/2014
190 517800 ANA LUIZA MAGALHAES CIRINO PIOTO DE MELO OFICIAL DO MP ATIVO BELO HORIZONTE - COMARCA; DIVISAO DE MANUTENCAO PREDIAL 3.250,03 0,00 0,00 2.793,68 0,00 0,00 6.043,71 357,50 98,85 0,00 456,35 5.587,36 685,50 0,00 31/12/2014
191 481400 ANA MARCIA CANDIDA FERREIRA OFICIAL DO MP ATIVO BRUMADINHO - COMARCA; BRUMADINHO-PJ-01PJ 3.355,81 201,35 0,00 1.247,44 1.185,72 0,00 5.990,32 391,29 376,15 0,00 767,44 5.222,88 685,50 0,00 31/12/2014
192 556400 ANA MARIA OLIVEIRA SOUZA OFICIAL DO MP ATIVO ITAPECERICA - COMARCA; ITAPECERICA-PJ-UNPJ 2.952,15 0,00 0,00 1.134,89 0,00 0,00 4.087,04 324,74 62,98 0,00 387,72 3.699,32 2.456,79 44,28 31/12/2014
193 409600 ANA OLIVIA FARIA ROSENBURG ANALISTA DO MP ATIVO BELO HORIZONTE - COMARCA; DIRETORIA DO COLEGIO E DA CAMARA DE PJ 7.973,40 1.594,68 0,00 2.791,33 3.189,36 0,00 15.548,77 1.052,49 2.392,71 0,00 3.445,20 12.103,57 920,50 0,00 31/12/2014
194 461500 ANA PAULA ALVES CARVALHO ANALISTA DO MP ATIVO UBERLÂNDIA - COMARCA; UBERLANDIA-PJ-08PJ 6.793,15 407,59 0,00 5.111,58 0,00 0,00 12.312,32 976,62 936,23 0,00 1.912,85 10.399,47 685,50 1.677,66 31/12/2014
195 523200 ANA PAULA ALVES DA SILVA OFICIAL DO MP ATIVO GOVERNADOR VALADARES - COMARCA; GOVERNADOR VALADARES-PJ-10PJ 3.938,84 0,00 0,00 1.345,34 0,00 0,00 5.284,18 433,27 190,81 0,00 624,08 4.660,10 685,50 0,00 31/12/2014
196 381200 ANA PAULA BARROS PEREIRA ANALISTA DO MP ATIVO BELO HORIZONTE - COMARCA; PROC JUST RECURSOS ESP E EXTRAORD CRIMINAIS 8.233,02 823,30 0,00 2.100,10 3.018,77 0,00 14.175,19 1.090,44 2.220,54 0,00 3.310,98 10.864,21 685,50 856,74 31/12/2014
197 227200 ANA PAULA DA SILVA CAMPOLINA ANALISTA DO MP ATIVO BELO HORIZONTE - COMARCA; SUPERINTENDENCIA DE FINANCAS 12.356,19 4.942,48 0,00 4.262,45 5.766,22 0,00 27.327,34 1.902,85 4.993,41 0,00 6.896,26 20.431,08 685,50 0,00 31/12/2014
198 84200 ANA PAULA DE SOUZA ROCHA OFICIAL DO MP ATIVO BELO HORIZONTE - COMARCA; ASSESS ESP ADM E FINANCEIRA DO PGJ ADJ ADM 21.687,17 10.843,59 0,00 4.787,14 8.863,23 0,00 46.181,13 2.924,86 8.020,22 5.941,08 16.886,16 29.294,97 685,50 0,00 31/12/2014
199 278500 ANA PAULA DIAS CAPANEMA COORDENADOR/OFICIAL ATIVO BELO HORIZONTE - COMARCA; EXTINTA - DIRETORIA DE MATERIAL E PATRIMONIO 0,00 2.060,57 10.302,83 2.988,77 4.121,13 0,00 19.473,30 853,99 3.472,25 0,00 4.326,24 15.147,06 685,50 0,00 31/12/2014
200 327300 ANA PAULA GARCIA MAXIMO OFICIAL DO MP ATIVO UNAÍ - COMARCA; UNAI-PJ-01PJ 6.068,01 1.820,40 0,00 2.244,55 2.629,47 0,00 12.762,43 867,73 1.679,38 0,00 2.547,11 10.215,32 685,50 0,00 31/12/2014
201 270000 ANA PAULA GOULART CRUZ DE MAGALHAES ANALISTA DO MP ATIVO BELO HORIZONTE - COMARCA; COMB CRIMES PRAT POR AG POL MUN-ASSESSORIA 8.501,02 1.700,20 0,00 2.172,08 0,00 0,00 12.373,30 1.430,64 1.670,60 0,00 3.101,24 9.272,06 685,50 2.804,64 31/12/2014
202 262100 ANA PAULA KOMATSUZAKI ABIJAUDI ANALISTA DO MP ATIVO BELO HORIZONTE - COMARCA; BH-17PJ PATRIMONIO PUBLICO-SECRETARIA 10.984,62 3.295,39 0,00 3.653,50 4.760,00 0,00 22.693,51 1.570,80 3.879,04 0,00 5.449,84 17.243,67 920,50 0,00 31/12/2014
203 278900 ANA PAULA MOREIRA GURGEL ANALISTA DO MP ATIVO BELO HORIZONTE - COMARCA; SUPERINTENDENCIA DE RECURSOS HUMANOS 10.638,28 3.191,48 0,00 2.834,93 4.609,92 0,00 21.274,61 1.521,27 3.826,41 0,00 5.347,68 15.926,93 685,50 0,00 31/12/2014
204 425700 ANA PAULA ROCHA ASSESSOR/OFICIAL ATIVO BELO HORIZONTE - COMARCA; SUPERINTENDENCIA DE COMUNICACAO INTEGRADA 0,00 626,56 6.265,58 1.951,50 0,00 0,00 8.843,64 644,03 892,08 0,00 1.536,11 7.307,53 685,50 0,00 31/12/2014
205 395601 ANA PAULA SALGE OLIVEIRA ANALISTA DO MP ATIVO UBERABA - COMARCA; COORD REG PP TRIANGULO MINEIRO UBERABA 6.068,01 1.213,60 0,00 1.883,80 2.427,20 0,00 11.592,61 800,98 1.623,50 0,00 2.424,48 9.168,13 685,50 0,00 31/12/2014
206 473200 ANA PAULA SCOTTON BRASIL ANALISTA DO MP ATIVO JUIZ DE FORA - COMARCA; JUIZ DE FORA-PJ-09PJ 6.265,58 375,93 0,00 1.790,82 2.213,84 0,00 10.646,17 730,57 1.408,16 0,00 2.138,73 8.507,44 685,50 0,00 31/12/2014
207 470900 ANA PAULA VALADARES ANALISTA DO MP ATIVO PITANGUI - COMARCA; PITANGUI-PJ-01PJ 6.793,15 407,59 0,00 2.605,21 2.400,25 0,00 12.206,20 976,62 1.497,46 0,00 2.474,08 9.732,12 920,50 1.677,66 31/12/2014
208 447000 ANA PAULA VALENTIM DE ARAUJO ANALISTA DO MP ATIVO BELO HORIZONTE - COMARCA; COMB CRIMES PRAT POR AG POL MUN-SECRETARIA 6.793,15 407,59 0,00 1.872,06 2.400,25 0,00 11.473,05 792,08 1.596,30 0,00 2.388,38 9.084,67 685,50 0,00 31/12/2014
209 604200 ANA PAULA VIANA E SILVA OFICIAL DO MP ATIVO BELO HORIZONTE - COMARCA; BH-17PJ PATRIMONIO PUBLICO-SECRETARIA 3.250,03 0,00 0,00 1.358,07 0,00 0,00 4.608,10 391,33 98,85 0,00 490,18 4.117,92 685,50 341,70 31/12/2014
210 505400 ANA PAULA VIEIRA SOUTO OFICIAL DO MP ATIVO ALMENARA - COMARCA; COORD. PAT. PUBLICO-MUCURI/JEQUIT - ALMENARA 3.355,81 671,16 0,00 1.752,21 0,00 0,00 5.779,18 442,97 175,61 0,00 618,58 5.160,60 920,50 0,00 31/12/2014
211 280200 ANA RACHEL BRANDAO LADEIRA ROLAND COORDENADOR/ANALISTA ATIVO BELO HORIZONTE - COMARCA; ASSESSORIA JURIDICO-ADMINISTRATIVA 0,00 2.670,79 13.353,95 11.489,20 5.341,58 0,00 32.855,52 1.317,09 4.687,39 0,00 6.004,48 26.851,04 685,50 0,00 31/12/2014
212 601200 ANA REGINA RIBEIRO ANALISTA DO MP ATIVO BELO HORIZONTE - COMARCA; EXTINTA - DIVISAO DE SERVICOS GERAIS 4.548,03 0,00 0,00 3.739,97 0,00 0,00 8.288,00 500,28 307,78 0,00 808,06 7.479,94 685,50 0,00 31/12/2014
213 384700 ANA RODRIGUES PEREIRA MARRA ANALISTA DO MP ATIVO COROMANDEL - COMARCA; COROMANDEL-PJ-SECRETARIA 6.469,61 646,96 0,00 1.909,25 2.372,19 0,00 11.398,01 782,82 1.518,56 0,00 2.301,38 9.096,63 685,50 0,00 31/12/2014
214 232700 ANA SILVIA SEMBLANO NAKAMURA ASSESSOR/OFICIAL ATIVO BELO HORIZONTE - COMARCA; CENT DE APOIO TEC-SETOR DEF,IDOSO E INFANC 0,00 1.594,68 7.973,40 3.556,45 3.189,36 0,00 16.313,89 896,70 2.435,55 0,00 3.332,25 12.981,64 685,50 0,00 31/12/2014
215 326700 ANA TERCIA DE FATIMA COSTA OFICIAL DO MP ATIVO NOVA SERRANA - COMARCA; NOVA SERRANA-PJ-01PJ 5.876,69 587,67 0,00 1.618,97 0,00 711,08 8.794,41 711,08 902,13 0,00 1.613,21 7.181,20 685,50 711,08 31/12/2014
216 602100 ANACLETO FRANCISCO MARCIER PIMENTA OFICIAL DO MP ATIVO SÃO JOÃO DEL REI - COMARCA; SAO JOAO DEL REI-PJ-01PJ 2.952,15 0,00 0,00 1.175,33 0,00 0,00 4.127,48 324,74 22,54 0,00 347,28 3.780,20 2.926,79 44,28 31/12/2014
217 310400 ANADEJE DO CARMO DINIZ ARAUJO OFICIAL DO MP ATIVO BELO HORIZONTE - COMARCA; CENT DE ATENDIMENTO E ORIENTACAO DE PESSOAL 5.876,69 1.175,34 0,00 5.376,47 2.350,68 0,00 14.779,18 775,72 1.546,27 0,00 2.321,99 12.457,19 685,50 0,00 31/12/2014
218 337000 ANAILDES MARIA MENDES OFICIAL DO MP ATIVO JANAÚBA - COMARCA; JANAUBA-PJ-02PJ 4.848,98 1.593,22 0,00 5.071,37 0,00 0,00 11.513,57 586,73 784,10 0,00 1.370,83 10.142,74 685,50 0,00 31/12/2014
219 192900 ANATALIA CERQUEIRA LIMA PERES OFICIAL DO MP ATIVO UBERABA - COMARCA; COORD REG SAUDE MACROR SANIT TRIANGULO SUL 7.014,37 2.104,31 0,00 2.375,60 3.039,56 0,00 14.533,84 1.157,37 2.241,53 0,00 3.398,90 11.134,94 685,50 1.402,88 31/12/2014
220 377400 ANDEIRSON DA MATTA BARBOSA ANALISTA DO MP ATIVO POUSO ALEGRE - COMARCA; POUSO ALEGRE-PJ-01PJ 7.014,37 701,44 0,00 1.946,87 2.571,94 0,00 12.234,62 848,74 1.769,58 0,00 2.618,32 9.616,30 685,50 0,00 31/12/2014
221 317400 ANDERSON DA SILVA BICALHO OFICIAL DO MP ATIVO CONTAGEM - COMARCA; COORD REG DEF ORDEM ECONOMICA TRIB CONTAGEM 5.338,12 533,81 0,00 2.381,64 1.957,31 0,00 10.210,88 645,91 1.001,01 0,00 1.646,92 8.563,96 1.155,50 0,00 31/12/2014
222 506900 ANDERSON DE SOUZA DAMIANI ANALISTA DO MP ATIVO BELO HORIZONTE - COMARCA; DIRETORIA DE PAGAMENTO DE PESSOAL-DPAG 5.691,44 1.138,29 0,00 1.925,86 0,00 0,00 8.755,59 929,32 845,43 0,00 1.774,75 6.980,84 685,50 1.618,63 31/12/2014
223 410000 ANDERSON DE SOUZA NETO ASSESSOR ATIVO BELO HORIZONTE - COMARCA; DIRETORIA DE ADMINISTRACAO FINANCEIRA 0,00 0,00 3.938,84 1.778,61 1.312,95 0,00 7.030,40 916,20 673,80 0,00 1.590,00 5.440,40 685,50 0,00 31/12/2014
224 181900 ANDERSON FLAVIO DE OLIVEIRA OFICIAL DO MP ATIVO ITAGUARA - COMARCA; ITAGUARA-PJ-SECRETARIA 7.973,40 2.392,02 0,00 2.791,33 0,00 0,00 13.156,75 1.315,62 1.710,79 0,00 3.026,41 10.130,34 685,50 1.594,68 31/12/2014
225 119500 ANDERSON FUNGHI DE AZEVEDO ROCHA DIRETOR/OFICIAL ATIVO BELO HORIZONTE - COMARCA; SUPRIN DE PLANEJAMENTO E COORDENACAO 0,00 10.683,17 13.353,95 5.522,06 0,00 0,00 29.559,18 2.039,96 5.124,23 0,00 7.164,19 22.394,99 685,50 0,00 31/12/2014
226 333200 ANDERSON JOSE DE FREITAS OFICIAL DO MP ATIVO IPATINGA - COMARCA; IPATINGA-PJ-07PJ 5.338,12 1.642,13 0,00 2.380,39 0,00 0,00 9.360,64 645,91 816,95 0,00 1.462,86 7.897,78 685,50 0,00 31/12/2014
227 462100 ANDERSON LUIZ GUIMARAES CARDOSO ANALISTA DO MP ATIVO BARBACENA - COMARCA; BARBACENA-PJ-02PJ 6.793,15 407,59 0,00 2.555,79 2.400,25 0,00 12.156,78 976,62 1.596,30 0,00 2.572,92 9.583,86 685,50 1.677,66 31/12/2014
228 429700 ANDERSON MELO DE SOUZA OFICIAL DO MP ATIVO BELO HORIZONTE - COMARCA; DIRET DE ESTAGIOS E CONVENIOS ACADEMICOS 3.814,70 381,47 0,00 1.399,18 0,00 0,00 5.595,35 461,58 237,32 0,00 698,90 4.896,45 685,50 0,00 31/12/2014
229 545600 ANDERSON MENDES PROCOPIO FERREIRA ANALISTA DO MP ATIVO BARBACENA - COMARCA; BARBACENA-PJ-SECRETARIA 5.006,87 0,00 0,00 4.056,45 0,00 0,00 9.063,32 550,76 399,66 0,00 950,42 8.112,90 685,50 0,00 31/12/2014
230 519900 ANDERSON MOREIRA DOEHLER ANALISTA DO MP ATIVO NOVO CRUZEIRO - COMARCA; NOVO CRUZEIRO-PJ-UNPJ 5.511,94 1.102,39 0,00 1.786,87 0,00 0,00 8.401,20 789,95 931,48 0,00 1.721,43 6.679,77 685,50 567,00 31/12/2014
231 103000 ANDERSON TADEU DE DEUS ASSESSOR ATIVO BELO HORIZONTE - COMARCA; EXTINTA - DIVISAO DE TRANSPORTES 0,00 0,00 506,59 355,45 0,00 0,00 862,04 862,04 0,00 0,00 862,04 0,00 0,00 0,00 31/12/2014
232 309200 ANDITYAS SOARES DE MOURA COSTA MATOS ANALISTA DO MP ATIVO BELO HORIZONTE - COMARCA; GABINETE DE PROCURADOR DE JUSTIÇA - SALA 909 8.501,02 1.700,20 0,00 2.261,16 0,00 0,00 12.462,38 1.228,26 1.670,60 0,00 2.898,86 9.563,52 685,50 964,80 31/12/2014
233 613500 ANDRE AZEVEDO SOUSA ANALISTA DO MP ATIVO BELO HORIZONTE - COMARCA; CAO-CRIANCAS E ADOLESCENTES 4.404,59 0,00 0,00 1.670,52 0,00 0,00 6.075,11 484,50 238,63 0,00 723,13 5.351,98 685,50 0,00 31/12/2014
234 338701 ANDRE BARBUTO VITORINO ANALISTA DO MP ATIVO AIMORÉS - COMARCA; AIMORES-PJ-UNPJ 7.721,95 772,20 0,00 1.946,87 0,00 0,00 10.441,02 1.191,21 1.252,79 0,00 2.444,00 7.997,02 685,50 2.335,02 31/12/2014
235 519200 ANDRE BORJA LANA ANALISTA DO MP ATIVO BELO HORIZONTE - COMARCA; DIRETORIA DE IMPRENSA 6.068,01 0,00 0,00 1.707,52 0,00 0,00 7.775,53 667,48 659,00 0,00 1.326,48 6.449,05 685,50 0,00 31/12/2014
236 521900 ANDRE LUIS GOMES SILVA ANALISTA DO MP ATIVO FORMIGA - COMARCA; FORMIGA-PJ-01PJ 6.068,01 0,00 0,00 2.395,47 0,00 0,00 8.463,48 667,48 609,58 0,00 1.277,06 7.186,42 685,50 0,00 31/12/2014
237 304300 ANDRE LUIZ AVELAR ANALISTA DO MP ATIVO BELO HORIZONTE - COMARCA; DIRETORIA DE REDES E BANCOS DE DADOS 6.469,61 1.293,92 0,00 1.953,80 2.587,84 0,00 12.305,17 879,61 1.842,64 0,00 2.722,25 9.582,92 685,50 232,92 31/12/2014
238 397400 ANDRE PATARO MYRRHA DE PAULA E SILVA ANALISTA DO MP ATIVO BELO HORIZONTE - COMARCA; ASSESSORIA JURIDICO-ADMINISTRATIVA 8.233,02 823,30 0,00 3.242,74 3.018,77 0,00 15.317,83 1.090,44 2.220,54 0,00 3.310,98 12.006,85 920,50 856,74 31/12/2014
239 548500 ANDRE VINICIUS CARVALHO MEIRA ANALISTA DO MP ATIVO JUIZ DE FORA - COMARCA; JUIZ DE FORA-PJ-25PJ 4.548,03 0,00 0,00 1.465,95 1.516,01 0,00 7.529,99 500,28 703,88 0,00 1.204,16 6.325,83 685,50 0,00 31/12/2014
240 297200 ANDRE WILLE ROSARIO ANALISTA DO MP ATIVO BELO HORIZONTE - COMARCA; ASSESSORIA ESPECIAL DO PGJ 9.977,95 1.995,59 0,00 2.902,31 3.991,18 0,00 18.867,03 1.384,83 3.204,40 0,00 4.589,23 14.277,80 920,50 615,78 31/12/2014
241 423600 ANDREA COSTA GUALBERTO ANALISTA DO MP ATIVO GOVERNADOR VALADARES - COMARCA; COORD REG PJ DEF EDU DIR CRIANCA ADOL RIODOCE 6.469,61 3.234,80 0,00 2.285,13 0,00 0,00 11.989,54 1.094,93 1.560,66 0,00 2.655,59 9.333,95 920,50 249,54 31/12/2014
242 198600 ANDREA CRISTINA ANDRADE COSTA E SOUZA OFICIAL DO MP ATIVO MONTES CLAROS - COMARCA; MONTES CLAROS-PJ-SECRETARIA 9.358,72 2.807,62 0,00 2.530,19 4.055,45 0,00 18.751,98 1.706,25 3.167,97 0,00 4.874,22 13.877,76 685,50 3.345,03 31/12/2014
243 467300 ANDREA DE CASSIA PENNA ALVERNAZ ANALISTA DO MP ATIVO PONTE NOVA - COMARCA; PONTE NOVA-PJ-01PJ 6.793,15 407,59 0,00 5.161,00 0,00 0,00 12.361,74 976,62 886,81 0,00 1.863,43 10.498,31 920,50 1.677,66 31/12/2014
244 308000 ANDREA DE CASSIA SANTOS OLIVEIRA ANALISTA DO MP ATIVO BELO HORIZONTE - COMARCA; ASSESS TECNICO-JUR JUNTO AS PROC. DE JUST 9.663,38 1.932,68 0,00 2.559,90 3.865,35 0,00 18.021,31 1.275,57 3.025,54 0,00 4.301,11 13.720,20 1.155,50 0,00 31/12/2014
245 349500 ANDREA DE OLIVEIRA OFICIAL DO MP ATIVO IGUATAMA - COMARCA; IGUATAMA-PJ-UNPJ 5.691,44 569,14 0,00 1.756,24 0,00 0,00 8.016,82 753,82 656,71 0,00 1.410,53 6.606,29 803,97 603,21 31/12/2014
246 254700 ANDREA EMISE REIS DE AZEVEDO COORDENADOR/OFICIAL ATIVO BELO HORIZONTE - COMARCA; COMB CRIMES PRAT POR AG POL MUN-SECRETARIA 0,00 1.812,72 9.063,59 2.654,17 0,00 0,00 13.530,48 853,99 1.929,99 0,00 2.783,98 10.746,50 685,50 0,00 31/12/2014
247 287900 ANDREA FERNANDES PENA OFICIAL DO MP ATIVO MONTES CLAROS - COMARCA; MONTES CLAROS-PJ-09PJ 6.578,93 1.315,79 0,00 2.378,25 2.631,57 0,00 12.904,54 868,42 1.730,92 0,00 2.599,34 10.305,20 685,50 0,00 31/12/2014
248 300800 ANDREA FERREIRA ANALISTA DO MP ATIVO LAVRAS - COMARCA; LAVRAS-PJ-04PJ 9.358,72 1.871,74 0,00 8.072,60 0,00 0,00 19.303,06 1.235,35 1.922,51 0,00 3.157,86 16.145,20 4.230,79 324,98 31/12/2014
249 316700 ANDREA FRANCISCA DIAS DE SOUZA ASSESSOR ATIVO BELO HORIZONTE - COMARCA; BH-14PJ DEFESA CONSUMIDOR-GAB 110PJ 0,00 0,00 2.359,08 2.335,69 786,36 0,00 5.481,13 594,40 189,38 0,00 783,78 4.697,35 685,50 0,00 31/12/2014
250 395100 ANDREA LANNA MENDES NOVAIS ANALISTA DO MP ATIVO BELO HORIZONTE - COMARCA; PROMOT ESTADUAL DE DEF PATRI CULT E TUR DE MG 8.233,02 823,30 0,00 6.719,16 3.018,77 0,00 18.794,25 996,20 2.171,12 0,00 3.167,32 15.626,93 1.155,50 0,00 31/12/2014
251 67300 ANDREA LEAO MAGALHAES ROQUE ASSESSOR ATIVO BELO HORIZONTE - COMARCA; COORD DE CONT. DA CONSTITUCIONALIDADE-SEC 0,00 3.986,70 7.973,40 3.748,82 3.986,70 0,00 19.695,62 965,86 3.516,09 0,00 4.481,95 15.213,67 685,50 0,00 31/12/2014
252 335700 ANDREA LOPES PEREIRA ANALISTA DO MP ATIVO GOVERNADOR VALADARES - COMARCA; COORD REG DO MA DA BACIA DO RIO DOCE 9.663,38 966,34 0,00 2.321,44 0,00 0,00 12.951,16 1.279,86 1.775,47 0,00 3.055,33 9.895,83 685,50 1.005,39 31/12/2014
253 389200 ANDREA TUPINI DOS SANTOS TRISTAO DA ROCHA OFICIAL DO MP ATIVO DIVINO - COMARCA; DIVINO-PJ-UNPJ 3.979,71 413,12 0,00 1.505,68 1.514,77 0,00 7.413,28 499,87 611,56 0,00 1.111,43 6.301,85 685,50 0,00 31/12/2014
254 419000 ANDREIA BARBOSA DE ALMEIDA ANALISTA DO MP ATIVO BELO HORIZONTE - COMARCA; GABINETE DE PROCURADOR DE JUSTIÇA - SALA 705 7.014,37 701,44 0,00 1.946,87 2.571,94 0,00 12.234,62 848,74 1.769,58 0,00 2.618,32 9.616,30 685,50 0,00 31/12/2014
255 281501 ANDREIA CARLA COSTA FILGUEIRAS ANALISTA DO MP ATIVO VISCONDE DO RIO BRANCO - COMARCA; VISCONDE DO RIO BRANCO-PJ-02PJ 7.973,40 797,34 0,00 2.726,40 2.923,58 0,00 14.420,72 964,78 2.025,63 0,00 2.990,41 11.430,31 685,50 0,00 31/12/2014
256 477100 ANDREIA DE ALMEIDA RIBEIRO MELO OFICIAL DO MP ATIVO CONTAGEM - COMARCA; CONTAGEM-PJ-07PJ 3.694,41 221,66 0,00 1.648,77 0,00 0,00 5.564,84 430,77 187,77 0,00 618,54 4.946,30 920,50 0,00 31/12/2014
257 619000 ANDREIA FERREIRA NORONHA OFICIAL DO MP ATIVO BELO HORIZONTE - COMARCA; DIRETORIA DE SERVICO CRIMINAL 3.147,52 0,00 0,00 1.400,64 0,00 0,00 4.548,16 346,23 85,16 0,00 431,39 4.116,77 685,50 0,00 31/12/2014
258 424000 ANDREIA LUCIA COUTO ANALISTA DO MP ATIVO BELO HORIZONTE - COMARCA; BH-18PJ DIREITOS HUMANOS 7.973,40 797,34 0,00 2.627,56 0,00 0,00 11.398,30 964,78 1.320,49 0,00 2.285,27 9.113,03 920,50 0,00 31/12/2014
259 370100 ANDREIA MARIA SILVA PINTO OFICIAL DO MP ATIVO CORONEL FABRICIANO - COMARCA; CORONEL FABRICIANO-PJ-01PJ 5.691,44 569,14 0,00 1.652,16 2.086,86 0,00 9.999,60 877,99 1.280,01 0,00 2.158,00 7.841,60 1.029,74 1.752,78 31/12/2014
260 382100 ANDREIA NATALI PEREIRA OFICIAL DO MP ATIVO PRADOS - COMARCA; PRADOS-PJ-UNPJ 5.169,86 516,99 0,00 1.652,16 0,00 0,00 7.339,01 625,55 565,71 0,00 1.191,26 6.147,75 685,50 0,00 31/12/2014
261 198700 ANDREIA NUNES DURAES OFICIAL DO MP ATIVO MONTES CLAROS - COMARCA; MONTES CLAROS-PJ-06PJ 9.358,72 2.807,62 0,00 2.506,79 4.055,45 0,00 18.728,58 1.544,20 3.217,39 0,00 4.761,59 13.966,99 685,50 1.871,74 31/12/2014
262 275200 ANDREIA RIBEIRO FREITAS OFICIAL DO MP ATIVO VIÇOSA - COMARCA; VICOSA-PJ-03PJ 6.469,61 1.293,92 0,00 2.102,06 2.587,84 0,00 12.453,43 853,99 1.637,37 0,00 2.491,36 9.962,07 920,50 0,00 31/12/2014
263 352200 ANDREIA XAVIER PEREIRA OFICIAL DO MP ATIVO CLÁUDIO - COMARCA; CLAUDIO-PJ-UNPJ 5.691,44 569,14 0,00 1.706,82 2.086,86 0,00 10.054,26 753,82 1.280,01 0,00 2.033,83 8.020,43 685,50 592,35 31/12/2014
264 383700 ANDRESSA EDUARDO SOUZA ANALISTA DO MP ATIVO OURO BRANCO - COMARCA; OURO BRANCO-PJ-SECRETARIA 8.233,02 823,30 0,00 3.242,74 0,00 0,00 12.299,06 1.090,44 1.390,38 0,00 2.480,82 9.818,24 685,50 856,74 31/12/2014
265 426200 ANDRESSA MENDES CASAL ASSESSOR/OFICIAL ATIVO BELO HORIZONTE - COMARCA; BH-12PJ JUIZO CRIMINAL-SECRETARIA 0,00 626,56 6.265,58 2.730,28 0,00 0,00 9.622,42 499,87 931,72 0,00 1.431,59 8.190,83 685,50 0,00 31/12/2014
266 390100 ANDRESSA RIBEIRO PUCCI OFICIAL DO MP ATIVO UBERABA - COMARCA; UBERABA-PJ-14PJ 4.548,03 454,80 0,00 2.026,83 1.667,61 0,00 8.697,27 550,31 856,89 0,00 1.407,20 7.290,07 685,50 0,00 31/12/2014
267 462500 ANDREZA APARECIDA COSTA E SILVA ANALISTA DO MP ATIVO CONSELHEIRO LAFAIETE - COMARCA; CONSELHEIRO LAFAIETE-PJ-02PJ 6.793,15 407,59 0,00 1.790,82 0,00 0,00 8.991,56 976,62 936,23 0,00 1.912,85 7.078,71 685,50 1.677,66 31/12/2014
268 537800 ANDREZZA LUZIA DE OLIVEIRA ALVES ANALISTA DO MP ATIVO PATOS DE MINAS - COMARCA; COORD REG PJ DEF EDU DIR CRI ADO AL PAR NOROE 5.006,87 0,00 0,00 1.546,82 1.668,96 0,00 8.222,65 651,70 759,40 0,00 1.411,10 6.811,55 685,50 917,68 31/12/2014
269 491600 ANE PATRICIA RIBEIRO ANALISTA DO MP ATIVO SETE LAGOAS - COMARCA; SETE LAGOAS-PJ-10PJ 6.265,58 375,93 0,00 2.765,52 0,00 0,00 9.407,03 730,57 749,94 0,00 1.480,51 7.926,52 920,50 0,00 31/12/2014
270 465800 ANELISE GAMA ASSESSOR ATIVO BELO HORIZONTE - COMARCA; BH-18PJ VIOLENCIA DOMESTICA-SECRETARIA 0,00 0,00 3.938,84 2.090,66 1.312,95 0,00 7.342,45 916,20 673,80 0,00 1.590,00 5.752,45 685,50 0,00 31/12/2014
271 535200 ANELIZE FERNANDA ALVES VILARINHO OFICIAL DO MP ATIVO CAPINÓPOLIS - COMARCA; CAPINOPOLIS-PJ-UNPJ 2.952,15 0,00 0,00 1.282,21 0,00 0,00 4.234,36 347,01 86,11 0,00 433,12 3.801,24 685,50 202,48 31/12/2014
272 197200 ANGELA COELHO SALDANHA OFICIAL DO MP ATIVO PARÁ DE MINAS - COMARCA; PARA DE MINAS-PJ-03PJ 9.358,72 2.807,62 0,00 2.593,31 4.055,45 0,00 18.815,10 1.338,30 3.266,81 0,00 4.605,11 14.209,99 685,50 0,00 31/12/2014
273 307400 ANGELA CRISTINA GONCALVES MUNIZ ANALISTA DO MP ATIVO UBERLÂNDIA - COMARCA; UBERLANDIA-PJ-SEC FAMILIA 9.977,95 1.995,59 0,00 2.803,47 3.991,18 0,00 18.768,19 1.317,09 3.152,53 0,00 4.469,62 14.298,57 920,50 0,00 31/12/2014
274 191800 ANGELA MARIA DE OLIVEIRA OFICIAL DO MP ATIVO GUARANÉSIA - COMARCA; GUARANESIA-PJ-SECRETARIA 9.358,72 3.743,49 0,00 2.778,66 0,00 0,00 15.880,87 1.441,24 2.331,20 0,00 3.772,44 12.108,43 685,50 0,00 31/12/2014
275 69900 ANGELA MARIA DE PAULA CUNHA OFICIAL DO MP ATIVO JUIZ DE FORA - COMARCA; JUIZ DE FORA-PJ-11PJ 9.663,38 6.764,37 0,00 4.178,62 5.475,92 0,00 26.082,29 1.807,05 4.700,42 0,00 6.507,47 19.574,82 685,50 0,00 31/12/2014
276 497400 ANGELA MARIA HENRIQUES ANALISTA DO MP ATIVO BELO HORIZONTE - COMARCA; COORD REG BACIAS RIO VELHAS E PARAOPEBA 5.691,44 341,49 0,00 1.962,93 0,00 0,00 7.995,86 663,62 650,41 0,00 1.314,03 6.681,83 1.155,50 0,00 31/12/2014
277 260700 ANGELICA CRISTINA AZEVEDO MOREIRA MOUCO OFICIAL DO MP ATIVO UBÁ - COMARCA; UBA-PJ-02PJ 6.793,15 1.358,63 0,00 2.188,14 0,00 0,00 10.339,92 896,70 1.119,58 0,00 2.016,28 8.323,64 920,50 0,00 31/12/2014
278 334600 ANGELICA PANISSA DE FREITAS OFICIAL DO MP ATIVO GUAXUPÉ - COMARCA; GUAXUPE-PJ-02PJ 6.068,01 1.213,60 0,00 1.850,45 2.427,20 0,00 11.559,26 876,74 1.623,50 0,00 2.500,24 9.059,02 685,50 688,74 31/12/2014
279 521100 ANGELICA SALES MOREIRA OFICIAL DO MP ATIVO BELO HORIZONTE - COMARCA; BH-02PJ FAMILIA-SECRETARIA 3.577,90 0,00 0,00 3.041,71 0,00 0,00 6.619,61 393,57 142,62 0,00 536,19 6.083,42 685,50 0,00 31/12/2014
280 466500 ANGELLO MARQUES AGRELLI ANALISTA DO MP ATIVO MAR DE ESPANHA - COMARCA; MAR DE ESPANHA-PJ-UNPJ 6.793,15 407,59 0,00 1.790,82 0,00 0,00 8.991,56 976,62 936,23 0,00 1.912,85 7.078,71 685,50 1.677,66 31/12/2014
281 363300 ANGELO VERDOLIN HENRIQUES ANALISTA DO MP ATIVO SETE LAGOAS - COMARCA; SETE LAGOAS-PJ-04PJ 9.358,72 2.807,62 0,00 3.978,51 4.055,45 0,00 20.200,30 1.706,25 3.266,81 0,00 4.973,06 15.227,24 920,50 3.345,03 31/12/2014
282 250900 ANISIO APARECIDO SANTOS OFICIAL DO MP ATIVO CONTAGEM - COMARCA; CONTAGEM-PJ-19PJ 4.696,06 939,21 0,00 2.039,64 1.878,42 0,00 9.553,33 619,88 482,16 0,00 1.102,04 8.451,29 685,50 0,00 31/12/2014
283 253400 ANNA FLAVIA LEHMAN BATTAGLIA ASSESSOR ESPECIAL ATIVO BELO HORIZONTE - COMARCA; GABINETE DO PROCURADOR-GERAL DE JUSTICA 18.939,65 3.787,93 0,00 5.036,89 7.575,86 0,00 35.340,33 1.449,97 6.960,29 0,00 8.410,26 26.930,07 920,50 0,00 31/12/2014
284 447600 ANNGELUCE ALCANTARA DE CAMPOS OFICIAL DO MP ATIVO DIVINÓPOLIS - COMARCA; DIVINOPOLIS-PJ-10PJ 3.694,41 369,44 0,00 1.374,07 1.354,62 0,00 6.792,54 447,02 541,00 0,00 988,02 5.804,52 685,50 0,00 31/12/2014
285 615900 ANNY ANGEL MOREIRA MELO ANALISTA DO MP ATIVO ARAXÁ - COMARCA; ARAXA-PJ-04PJ 4.848,98 0,00 0,00 2.046,43 0,00 0,00 6.895,41 533,39 368,05 0,00 901,44 5.993,97 920,50 0,00 31/12/2014
286 119600 ANSELMO BORGES PARREIRAS OFICIAL DO MP ATIVO BONFIM - COMARCA; BONFIM-PJ-UNPJ 5.338,12 3.736,69 0,00 2.193,68 3.024,94 0,00 14.293,43 998,23 2.177,35 0,00 3.175,58 11.117,85 685,50 0,00 31/12/2014
287 630300 ANTONIA GOMES RAMALHO OFICIAL DO MP ATIVO NOVO CRUZEIRO - COMARCA; NOVO CRUZEIRO-PJ-UNPJ 2.859,08 0,00 0,00 424,09 0,00 0,00 3.283,17 314,50 56,76 0,00 371,26 2.911,91 685,50 0,00 31/12/2014
288 332400 ANTONIA MARIA MAMEDE OFICIAL DO MP ATIVO UBERLÂNDIA - COMARCA; COORD REG PP TRIANGULO MINEIRO UBERLANDIA 5.691,44 569,14 0,00 2.408,19 0,00 0,00 8.668,77 688,66 706,13 0,00 1.394,79 7.273,98 685,50 0,00 31/12/2014
289 401600 ANTONIO CARLOS GUEDES AROUCA ANALISTA DO MP ATIVO BELO HORIZONTE - COMARCA; EXTINTA - CAO-IDOSOS PESSOAS DEFIC-SEC ADM 7.973,40 797,34 0,00 2.627,56 0,00 0,00 11.398,30 964,78 1.320,49 0,00 2.285,27 9.113,03 685,50 0,00 31/12/2014
290 7100 ANTONIO DO NASCIMENTO OLIVEIRA ASSESSOR ATIVO BELO HORIZONTE - COMARCA; GAECO - SECRETARIA 0,00 2.123,17 2.359,08 1.944,23 0,00 0,00 6.426,48 965,86 201,21 0,00 1.167,07 5.259,41 685,50 0,00 31/12/2014
291 59400 ANTONIO GOBIRA DE ALCANTARA AGENTE DO MP ATIVO BELO HORIZONTE - COMARCA; EXTINTA - DIVISAO DE TRANSPORTES 5.169,86 4.135,89 0,00 6.549,19 0,00 1.462,37 17.317,31 1.462,37 2.829,77 0,00 4.292,14 13.025,17 685,50 5.012,13 31/12/2014
292 333900 ANTONIO GONCALVES DE SOUZA FILHO OFICIAL DO MP ATIVO BELO HORIZONTE - COMARCA; DIVISAO DE MEMORIA INSTITUCIONAL 5.691,44 569,14 0,00 1.706,82 2.086,86 0,00 10.054,26 753,82 1.280,01 0,00 2.033,83 8.020,43 685,50 592,35 31/12/2014
293 176100 ANTONIO MARCELO CAMPOS CAMPANELLA OFICIAL DO MP ATIVO BELO HORIZONTE - COMARCA; SUPERINTENDENCIA DE RECURSOS HUMANOS 9.358,72 2.807,62 0,00 8.676,48 0,00 0,00 20.842,82 1.338,30 2.151,56 0,00 3.489,86 17.352,96 920,50 0,00 31/12/2014
294 119800 ANTONIO MARCIANO DE PAULA AGENTE DO MP ATIVO BELO HORIZONTE - COMARCA; DIVISAO DE MANUTENCAO PREDIAL 4.131,19 3.718,08 0,00 1.728,81 2.616,42 863,42 13.057,92 863,42 2.051,91 0,00 2.915,33 10.142,59 685,50 863,42 31/12/2014
295 321001 ANTONIO OLINTO VIEIRA MACHADO ANALISTA DO MP ATIVO BELO HORIZONTE - COMARCA; CENTRAL DE APOIO TECN-SETOR DE MEIO AMBIENTE 8.233,02 823,30 0,00 2.289,84 3.018,77 0,00 14.364,93 996,20 2.072,28 0,00 3.068,48 11.296,45 685,50 0,00 31/12/2014
296 356200 ANTONIO PAULA DA SILVA OFICIAL DO MP ATIVO JUIZ DE FORA - COMARCA; JUIZ DE FORA-PJ-20PJ 5.338,12 1.067,62 0,00 2.141,81 0,00 0,00 8.547,55 704,63 741,66 0,00 1.446,29 7.101,26 3.545,95 262,21 31/12/2014
297 119900 ANTONIO RODRIGUES DE PINHO OFICIAL DO MP ATIVO GUANHÃES - COMARCA; GUANHAES-PJ-01PJ 8.501,02 4.250,51 0,00 9.152,91 0,00 0,00 21.904,44 1.402,67 2.195,95 0,00 3.598,62 18.305,82 685,50 0,00 31/12/2014
298 373300 ANTONIO SERGIO ANANIAS OFICIAL DO MP ATIVO AIURUOCA - COMARCA; AIURUOCA-PJ-UNPJ 5.006,87 500,69 0,00 1.695,93 1.835,85 0,00 9.039,34 663,14 927,84 0,00 1.590,98 7.448,36 685,50 521,04 31/12/2014
299 608100 ANTONIO SIDINEY VIEIRA LEMOS ANALISTA DO MP ATIVO PIRAPORA - COMARCA; PIRAPORA-PJ-01PJ 4.848,98 1.454,69 0,00 1.741,76 0,00 0,00 8.045,43 752,84 848,91 0,00 1.601,75 6.443,68 685,50 540,30 31/12/2014
300 374700 ANTONIO SILVA NETO OFICIAL DO MP ATIVO BELO HORIZONTE - COMARCA; GAECO - SECRETARIA 5.169,86 516,99 0,00 1.626,12 0,00 0,00 7.312,97 684,71 565,71 0,00 1.250,42 6.062,55 685,50 537,87 31/12/2014
301 413200 ANY PEREIRA SILVA ANALISTA DO MP ATIVO TRÊS PONTAS - COMARCA; TRES PONTAS-PJ-01PJ 7.014,37 701,44 0,00 2.045,71 2.571,94 0,00 12.333,46 957,87 1.913,55 0,00 2.871,42 9.462,04 685,50 992,10 31/12/2014
302 151401 APARECIDA DE FATIMA MENDES DE ALMEIDA ASSESSOR ATIVO JUIZ DE FORA - COMARCA; JUIZ DE FORA-PJ-SECRETARIA 0,00 0,00 3.938,84 1.778,61 1.312,95 0,00 7.030,40 916,20 673,80 0,00 1.590,00 5.440,40 685,50 0,00 31/12/2014
303 329300 APARECIDA MARIA MELO DE ASSIS OFICIAL DO MP ATIVO BELO HORIZONTE - COMARCA; BH-18PJ DIREITOS HUMANOS-SECRETARIA 6.068,01 606,80 0,00 1.900,89 0,00 0,00 8.575,70 734,23 807,51 0,00 1.541,74 7.033,96 685,50 0,00 31/12/2014
304 475300 APARECIDA MARLENE FREIRE ROSA ANALISTA DO MP ATIVO BELO HORIZONTE - COMARCA; BH-02PJ FAMILIA 6.265,58 5.012,46 0,00 2.464,29 0,00 0,00 13.742,33 1.240,58 1.934,15 0,00 3.174,73 10.567,60 685,50 0,00 31/12/2014
305 240300 APARECIDA PEREIRA DO NASCIMENTO OFICIAL DO MP ATIVO ITURAMA - COMARCA; ITURAMA-PJ-01PJ 7.242,73 3.621,37 0,00 2.902,01 0,00 0,00 13.766,11 1.195,05 1.832,84 0,00 3.027,89 10.738,22 697,50 0,00 31/12/2014
306 354500 APARECIDA VIEIRA DE CARVALHO OFICIAL DO MP ATIVO BELO HORIZONTE - COMARCA; PROCON-MG-SEC DE EDUCACAO PARA O CONSUMO 4.696,06 469,61 0,00 1.860,26 1.721,89 0,00 8.747,82 568,22 862,25 0,00 1.430,47 7.317,35 685,50 0,00 31/12/2014
307 551000 ARACELES BICALHO FELIX ANALISTA DO MP ATIVO MANHUAÇU - COMARCA; MANHUACU-PJ-02PJ 5.006,87 0,00 0,00 2.028,22 0,00 0,00 7.035,09 550,76 399,66 0,00 950,42 6.084,67 685,50 0,00 31/12/2014
308 286200 ARACELI MEDRADO DOS SANTOS LIMA OFICIAL DO MP ATIVO PARACATU - COMARCA; PARACATU-PJ-03PJ 4.696,06 939,21 0,00 2.231,15 1.878,42 0,00 9.744,84 619,88 1.069,65 0,00 1.689,53 8.055,31 763,50 0,00 31/12/2014
309 189000 ARAHY MARQUES SILVA OFICIAL DO MP ATIVO BELO HORIZONTE - COMARCA; BH-16PJ HABITACAO E URBANISMO 4.696,06 1.408,82 0,00 1.644,67 2.034,96 0,00 9.784,51 774,86 1.227,63 0,00 2.002,49 7.782,02 685,50 939,22 31/12/2014
310 112200 ARAQUEM AUGUSTO DE MATOS AGENTE DO MP ATIVO BELO HORIZONTE - COMARCA; BH-23PJ INFRACIONAL-SEC EXP 4.696,06 3.287,25 0,00 2.133,98 0,00 0,00 10.117,29 878,16 979,51 0,00 1.857,67 8.259,62 920,50 0,00 31/12/2014
311 280600 ARDUINO FRATTEZI ANALISTA DO MP ATIVO BELO HORIZONTE - COMARCA; CENTRAL DE APOIO TECNICO-SETOR CONTABIL 9.977,95 1.995,59 0,00 2.803,47 3.991,18 0,00 18.768,19 1.317,09 3.152,53 0,00 4.469,62 14.298,57 685,50 0,00 31/12/2014
312 520201 ARIANE DE FATIMA CARVALHO ALMEIDA ANALISTA DO MP ATIVO BELO HORIZONTE - COMARCA; BH-18PJ VIOLENCIA DOMESTICA-SECRETARIA 4.848,98 0,00 0,00 2.476,18 0,00 0,00 7.325,16 533,39 327,61 0,00 861,00 6.464,16 685,50 0,00 31/12/2014
313 537600 ARIELA FREIRE MONTIJO ANALISTA DO MP ATIVO ARCOS - COMARCA; ARCOS-PJ-01PJ 5.006,87 0,00 0,00 4.096,88 0,00 0,00 9.103,75 550,76 359,23 0,00 909,99 8.193,76 685,50 0,00 31/12/2014
314 182000 ARILSON ALEXANDRE MARTINS MAGALHAES OFICIAL DO MP ATIVO JOÃO MONLEVADE - COMARCA; JOAO MONLEVADE-PJ-02PJ 8.501,02 2.550,31 0,00 2.479,59 3.683,78 0,00 17.214,70 1.330,62 2.792,86 0,00 4.123,48 13.091,22 798,78 1.045,20 31/12/2014
315 511000 ARISLANE CAROLINA DA SILVA ANALISTA DO MP ATIVO CAMPINA VERDE - COMARCA; CAMPINA VERDE-PJ-UNPJ 5.691,44 341,49 0,00 1.840,16 0,00 0,00 7.873,09 726,41 650,41 0,00 1.376,82 6.496,27 685,50 570,81 31/12/2014
316 170000 ARLEY BRITES DA SILVA ASSESSOR ATIVO BELO HORIZONTE - COMARCA; EXTINTA - DIVISÃO DE MATERIAL PERMANENTE 0,00 1.181,65 3.938,84 2.241,05 1.706,83 0,00 9.068,37 965,86 958,81 0,00 1.924,67 7.143,70 920,50 0,00 31/12/2014
317 120400 ARLINDO CASSIO DA CRUZ OFICIAL DO MP ATIVO SÃO GONÇALO DO SAPUCAÍ - COMARCA; SAO GONCALO DO SAPUCAI-PJ-01PJ 12.356,19 8.649,34 0,00 4.025,46 7.001,84 0,00 32.032,83 2.310,61 6.092,20 0,00 8.402,81 23.630,02 849,34 0,00 31/12/2014
318 243700 ARLINDO MARCIO LACERDA OFICIAL DO MP ATIVO CONTAGEM - COMARCA; CONTAGEM-PJ-03PJ 6.793,15 3.146,27 0,00 2.358,24 0,00 0,00 12.297,66 971,42 1.640,05 0,00 2.611,47 9.686,19 685,50 0,00 31/12/2014
319 392100 ARNALDO DE ANDRADE OFICIAL DO MP ATIVO DIVINÓPOLIS - COMARCA; DIVINOPOLIS-PJ-02PJ 5.169,86 1.625,31 0,00 1.901,53 0,00 0,00 8.696,70 625,55 870,50 0,00 1.496,05 7.200,65 685,50 0,00 31/12/2014
320 352801 ARTHUR JONAS MENDONCA E ARAUJO ANALISTA DO MP ATIVO UBERABA - COMARCA; UBERABA-PJ-12PJ 7.014,37 701,44 0,00 2.425,84 2.571,94 0,00 12.713,59 929,04 1.670,74 0,00 2.599,78 10.113,81 920,50 730,02 31/12/2014
321 302100 AUGUSTO ROUSSEAU DE CASTRO ANALISTA DO MP ATIVO CATAGUASES - COMARCA; CATAGUASES-PJ-02PJ 10.638,28 2.127,66 0,00 2.680,41 4.255,31 0,00 19.701,66 1.404,25 3.468,53 0,00 4.872,78 14.828,88 685,50 0,00 31/12/2014
322 540200 AUREA AVELAR OFICIAL DO MP ATIVO FERROS - COMARCA; FERROS-PJ-UNPJ 2.952,15 0,00 0,00 1.115,31 984,05 0,00 5.051,51 324,74 152,78 0,00 477,52 4.573,99 685,50 0,00 31/12/2014
323 183200 AURELIANO MAGELA DE REZENDE COORDENADOR/OFICIAL ATIVO BELO HORIZONTE - COMARCA; COORD DE GABINETE DO PGJ 0,00 3.090,85 10.302,83 2.844,86 4.464,56 0,00 20.703,10 1.472,52 3.742,25 0,00 5.214,77 15.488,33 685,50 2.060,56 31/12/2014
324 629400 AYESKA DA COSTA VAL MOURA DABIEN OFICIAL DO MP ATIVO BELO HORIZONTE - COMARCA; EXTINTA - SECRETARIA ADMINISTRATIVA 2.859,08 0,00 0,00 424,09 0,00 0,00 3.283,17 314,50 56,76 0,00 371,26 2.911,91 685,50 0,00 31/12/2014
325 436800 BARBARA ROCHA LADEIA COLEN OFICIAL DO MP ATIVO BELO HORIZONTE - COMARCA; ASSESS TECNICO-JUR JUNTO AS PROC. DE JUST 4.848,98 484,90 0,00 1.933,39 0,00 0,00 7.267,27 586,73 479,32 0,00 1.066,05 6.201,22 685,50 0,00 31/12/2014
326 546500 BARBARA ZACARONI GOULART OFICIAL DO MP ATIVO BETIM - COMARCA; BETIM-PJ-08PJ 2.952,15 0,00 0,00 1.282,21 0,00 0,00 4.234,36 324,74 62,98 0,00 387,72 3.846,64 685,50 0,00 31/12/2014
327 316500 BEATRIZ ABILVIA DA SILVA ANALISTA DO MP ATIVO GOVERNADOR VALADARES - COMARCA; GOVERNADOR VALADARES-PJ-02PJ 9.663,38 1.932,68 0,00 2.419,54 3.865,35 0,00 17.880,95 1.700,76 3.025,54 0,00 4.726,30 13.154,65 685,50 3.865,36 31/12/2014
328 311800 BEATRIZ APARECIDA SOARES GANEM OFICIAL DO MP ATIVO ITAMBACURI - COMARCA; ITAMBACURI-PJ-02PJ 6.469,61 1.293,92 0,00 2.066,50 0,00 0,00 9.830,03 1.010,28 1.088,57 0,00 2.098,85 7.731,18 685,50 1.420,91 31/12/2014
329 266800 BEATRIZ AUGUSTA VILACA GOMES DA SILVA OFICIAL DO MP ATIVO BELO HORIZONTE - COMARCA; BH-05PJ-JUÍZO SUCESSÕES-SEC 5.691,44 1.138,29 0,00 2.414,58 0,00 0,00 9.244,31 957,82 845,43 0,00 1.803,25 7.441,06 685,50 1.877,70 31/12/2014
330 235200 BEATRIZ BOTELHO BATISTA OFICIAL DO MP ATIVO BELO HORIZONTE - COMARCA; BH-21PJ TUTELA FUNDACOES-SECRETARIA 6.578,93 1.315,79 0,00 2.038,45 2.631,57 0,00 12.564,74 868,42 1.829,76 0,00 2.698,18 9.866,56 685,50 0,00 31/12/2014
331 113500 BEATRIZ DE LOURDES SOUZA ASSESSOR ATIVO BELO HORIZONTE - COMARCA; BH-02PJ FAMILIA-PROM DEC PAT 0,00 4.385,91 6.265,58 3.355,54 3.550,50 0,00 17.557,53 965,86 2.782,44 0,00 3.748,30 13.809,23 2.981,88 46.934,42 31/12/2014
332 182300 BEATRIZ PAULA SOUSA RAMOS OFICIAL DO MP ATIVO MARIANA - COMARCA; MARIANA-PJ-01PJ 8.501,02 2.550,31 0,00 7.831,06 3.683,78 0,00 22.566,17 1.330,62 2.792,86 0,00 4.123,48 18.442,69 4.230,79 1.370,18 31/12/2014
333 507000 BELCHIOR FRANKLIN AMARAL LEITE ANALISTA DO MP ATIVO BELO HORIZONTE - COMARCA; CENTRAL DE APOIO TECNICO 6.265,58 375,93 0,00 2.814,94 0,00 0,00 9.456,45 730,57 651,10 0,00 1.381,67 8.074,78 4.465,79 324,98 31/12/2014
334 345100 BENITO ELIAS RODRIGUES ANALISTA DO MP ATIVO BARBACENA - COMARCA; BARBACENA-PJ-SECRETARIA 9.358,72 935,87 0,00 2.321,44 3.431,53 0,00 16.047,56 1.132,40 2.637,12 0,00 3.769,52 12.278,04 685,50 0,00 31/12/2014
335 207300 BENITO VIEIRA DOS SANTOS ANALISTA DO MP ATIVO BELO HORIZONTE - COMARCA; COMB CRIMES PRAT POR AG POL MUN-ASSESSORIA 13.353,95 4.006,19 0,00 4.036,07 5.786,71 1.909,62 29.092,54 1.909,62 3.979,61 0,00 5.889,23 23.203,31 685,50 1.909,62 31/12/2014
336 480200 BERNADETE NUNES DOS SANTOS ANALISTA DO MP ATIVO GUANHÃES - COMARCA; GUANHAES-PJ-02PJ 6.265,58 1.253,12 0,00 2.838,80 2.506,23 0,00 12.863,73 827,06 1.703,26 0,00 2.530,32 10.333,41 685,50 0,00 31/12/2014
337 378400 BETANIA FARNESI DE SOUZA E SILVA OFICIAL DO MP ATIVO SETE LAGOAS - COMARCA; SETE LAGOAS-PJ-03PJ 5.169,86 1.550,96 0,00 1.820,99 2.240,27 0,00 10.782,08 809,22 1.385,42 0,00 2.194,64 8.587,44 920,50 635,67 31/12/2014
338 546400 BETANIA GONCALVES GONTIJO OFICIAL DO MP ATIVO PATOS DE MINAS - COMARCA; PATOS DE MINAS-PJ-02PJ 2.952,15 0,00 0,00 1.088,35 0,00 0,00 4.040,50 324,74 62,98 0,00 387,72 3.652,78 685,50 0,00 31/12/2014
339 387400 BETANIA MENDONCA DE ASSIS ANALISTA DO MP ATIVO BELO HORIZONTE - COMARCA; BH-08PJ JUIZADO ESPECIAL-SECRETARIA 8.233,02 823,30 0,00 2.100,10 0,00 0,00 11.156,42 1.090,44 1.390,38 0,00 2.480,82 8.675,60 685,50 856,74 31/12/2014
340 450300 BIANCA OLIVEIRA DE ALBUQUERQUE ANALISTA DO MP ATIVO BELO HORIZONTE - COMARCA; BH-10PJ EXECUÇÃO PENAL-SECRETARIA 6.793,15 407,59 0,00 1.872,06 0,00 0,00 9.072,80 792,08 936,23 0,00 1.728,31 7.344,49 685,50 0,00 31/12/2014
341 535400 BIANCA SALOTO ROSSI ANALISTA DO MP ATIVO SANTOS DUMONT - COMARCA; SANTOS DUMONT-PJ-01PJ 5.006,87 0,00 0,00 1.553,01 0,00 0,00 6.559,88 579,08 462,31 0,00 1.041,39 5.518,49 685,50 257,52 31/12/2014
342 120800 BRAS MARQUES DE SOUZA ANALISTA DO MP ATIVO BELO HORIZONTE - COMARCA; EXTINTA - SUPERINTENDENCIA ADMINISTRATIVA-SAD 18.218,36 12.752,86 0,00 4.836,57 8.863,23 0,00 44.671,02 2.924,86 7.970,80 4.381,54 15.277,20 29.393,82 685,50 0,00 31/12/2014
343 460900 BRENO CRISTIANO DE SOUZA REZENDE ANALISTA DO MP ATIVO ITAÚNA - COMARCA; ITAUNA-PJ-02PJ 5.691,44 341,49 0,00 1.622,12 2.010,98 0,00 9.666,03 846,07 1.203,43 0,00 2.049,50 7.616,53 685,50 1.658,61 31/12/2014
344 239000 BRENO VENANCIO ROMANINI OFICIAL DO MP ATIVO BELO HORIZONTE - COMARCA; BH-20PJ ORD ECON TRIBUTARIA-SECRETARIA 5.876,69 1.175,34 0,00 2.688,23 0,00 0,00 9.740,26 775,72 899,84 0,00 1.675,56 8.064,70 685,50 0,00 31/12/2014
345 513600 BRUNA KARLA MARTINS CARVALHO ANALISTA DO MP ATIVO GOVERNADOR VALADARES - COMARCA; GOVERNADOR VALADARES-PJ-01PJ 5.691,44 341,49 0,00 1.840,16 0,00 0,00 7.873,09 726,41 650,41 0,00 1.376,82 6.496,27 685,50 570,81 31/12/2014
346 415100 BRUNA MARIA SOARES OLIVEIRA COSTA RAMOS ANALISTA DO MP ATIVO UBÁ - COMARCA; COORD REG BACIA DO RIO PARAIBA DO SUL 7.973,40 797,34 0,00 3.583,08 2.923,58 0,00 15.277,40 964,78 2.124,47 0,00 3.089,25 12.188,15 685,50 0,00 31/12/2014
347 470000 BRUNA MORAES MARQUES ANALISTA DO MP ATIVO TOMBOS - COMARCA; TOMBOS-PJ-UNPJ 6.793,15 407,59 0,00 1.988,50 0,00 0,00 9.189,24 981,89 738,55 0,00 1.720,44 7.468,80 1.155,50 1.725,59 31/12/2014
348 614700 BRUNA NATTANY DE LIMA OFICIAL DO MP ATIVO MANTENA - COMARCA; MANTENA-PJ-02PJ 2.859,08 0,00 0,00 1.899,38 0,00 0,00 4.758,46 314,50 56,76 0,00 371,26 4.387,20 685,50 0,00 31/12/2014
349 463800 BRUNO ALVES TEIXEIRA ANALISTA DO MP ATIVO UBERLÂNDIA - COMARCA; UBERLANDIA-PJ-04PJ 6.793,15 407,59 0,00 1.790,82 0,00 0,00 8.991,56 976,62 936,23 0,00 1.912,85 7.078,71 685,50 1.677,66 31/12/2014
350 538500 BRUNO AUGUSTO DA SILVA OFICIAL DO MP ATIVO SANTA LUZIA - COMARCA; SANTA LUZIA-PJ-03PJ 2.952,15 0,00 0,00 2.564,43 0,00 0,00 5.516,58 324,74 62,98 0,00 387,72 5.128,86 685,50 0,00 31/12/2014
351 318200 BRUNO BARROS DE SOUZA OFICIAL DO MP ATIVO UBÁ - COMARCA; UBA-PJ-04PJ 6.068,01 1.213,60 0,00 2.669,63 0,00 0,00 9.951,24 800,98 578,82 0,00 1.379,80 8.571,44 685,50 0,00 31/12/2014
352 459600 BRUNO CASTELAR LUGAO MENDES OFICIAL DO MP ATIVO GOVERNADOR VALADARES - COMARCA; GOVERNADOR VALADARES-PJ-05PJ 4.404,59 264,28 0,00 1.702,80 1.556,29 0,00 7.927,96 513,58 744,53 0,00 1.258,11 6.669,85 685,50 0,00 31/12/2014
353 427400 BRUNO CESAR RIBEIRO DE PAIVA ANALISTA DO MP ATIVO BELO HORIZONTE - COMARCA; ASSESS JUR DO CONS SUPERIOR DO MINISTERIO PUB 7.973,40 797,34 0,00 2.100,10 2.923,58 0,00 13.794,42 964,78 2.124,47 0,00 3.089,25 10.705,17 685,50 0,00 31/12/2014
354 380900 BRUNO CIRILO ANTUNES OFICIAL DO MP ATIVO VARGINHA - COMARCA; VARGINHA-PJ-05PJ 4.548,03 1.563,12 0,00 2.031,44 2.037,05 0,00 10.179,64 550,31 1.263,27 0,00 1.813,58 8.366,06 685,50 0,00 31/12/2014
355 329000 BRUNO DE MELO REIS ANALISTA DO MP ATIVO PATROCÍNIO - COMARCA; PATROCINIO-PJ-02PJ 9.663,38 1.932,68 0,00 2.457,37 3.865,35 0,00 17.918,78 1.396,21 3.074,96 0,00 4.471,17 13.447,61 685,50 1.096,77 31/12/2014
356 601700 BRUNO DIAS JUNQUEIRA PEREIRA ANALISTA DO MP ATIVO BELO HORIZONTE - COMARCA; ASSESS TECNICO-JUR JUNTO AS PROC. DE JUST 5.006,87 0,00 0,00 1.631,96 0,00 0,00 6.638,83 550,76 399,66 0,00 950,42 5.688,41 685,50 0,00 31/12/2014
357 378300 BRUNO HERDY LOPES DE OLIVEIRA ANALISTA DO MP ATIVO MANTENA - COMARCA; MANTENA-PJ-SECRETARIA 8.233,02 823,30 0,00 2.100,10 0,00 0,00 11.156,42 1.090,44 1.390,38 0,00 2.480,82 8.675,60 685,50 856,74 31/12/2014
358 529700 BRUNO JOSE BUENO DIAS OFICIAL DO MP ATIVO SÃO SEBASTIÃO DO PARAÍSO - COMARCA; SAO SEBASTIAO DO PARAISO-PJ-02PJ 3.250,03 0,00 0,00 1.195,62 0,00 0,00 4.445,65 357,50 71,89 0,00 429,39 4.016,26 920,50 0,00 31/12/2014
359 350100 BRUNO LAUD SERRANO DOS REIS OFICIAL DO MP ATIVO UBÁ - COMARCA; UBA-PJ-03PJ 5.169,86 1.033,97 0,00 1.748,26 0,00 0,00 7.952,09 746,96 642,82 0,00 1.389,78 6.562,31 920,50 586,77 31/12/2014
360 373800 BRUNO MARTINO DE ALBUQUERQUE ANALISTA DO MP ATIVO PONTE NOVA - COMARCA; PONTE NOVA-PJ-03PJ 8.233,02 823,30 0,00 2.198,94 0,00 0,00 11.255,26 1.090,44 1.291,54 0,00 2.381,98 8.873,28 920,50 856,74 31/12/2014
361 470400 BRUNO NOVAIS CABRAL ANALISTA DO MP ATIVO RESPLENDOR - COMARCA; RESPLENDOR-PJ-UNPJ 6.265,58 375,93 0,00 1.790,82 0,00 0,00 8.432,33 730,57 799,36 0,00 1.529,93 6.902,40 685,50 0,00 31/12/2014
362 369200 BRUNO ROBERTO DIAS DE OLIVEIRA OFICIAL DO MP ATIVO BELO HORIZONTE - COMARCA; BH-22PJ PES COM DEF E IDOSOS 5.691,44 569,14 0,00 1.735,50 2.086,86 0,00 10.082,94 747,69 1.411,35 0,00 2.159,04 7.923,90 685,50 536,60 31/12/2014
363 547700 BRUNO ROBERTO SOUZA GONCALVES ANALISTA DO MP ATIVO PARACATU - COMARCA; PARACATU-PJ-03PJ 5.006,87 0,00 0,00 4.056,45 0,00 0,00 9.063,32 550,76 399,66 0,00 950,42 8.112,90 685,50 0,00 31/12/2014
364 546100 BRUNO SA VIEIRA ANALISTA DO MP ATIVO ERVÁLIA - COMARCA; ERVALIA-PJ-UNPJ 4.548,03 0,00 0,00 1.869,98 0,00 0,00 6.418,01 500,28 307,78 0,00 808,06 5.609,95 685,50 0,00 31/12/2014
365 438200 BRUNO SALES PEREIRA ANALISTA DO MP ATIVO BELO HORIZONTE - COMARCA; CENTRAL DE APOIO TECNICO-SETOR CONTABIL 7.014,37 701,44 0,00 2.253,83 2.571,94 0,00 12.541,58 848,74 1.720,16 0,00 2.568,90 9.972,68 1.155,50 0,00 31/12/2014
366 537400 BRUNO SANT'ANA CESAR ANALISTA DO MP ATIVO CONTAGEM - COMARCA; CONTAGEM-PJ-09PJ 4.548,03 0,00 0,00 1.465,95 0,00 0,00 6.013,98 500,28 307,78 0,00 808,06 5.205,92 685,50 0,00 31/12/2014
367 405800 CAIO FERNANDO RODRIGUES DE OLIVEIRA ANALISTA DO MP ATIVO BELO HORIZONTE - COMARCA; ASSESS TECNICO-JUR JUNTO AS PROC. DE JUST 7.973,40 797,34 0,00 2.627,56 2.923,58 0,00 14.321,88 964,78 2.124,47 0,00 3.089,25 11.232,63 685,50 0,00 31/12/2014
368 530000 CAIO GUEDES DE OLIVEIRA ANALISTA DO MP ATIVO DIAMANTINA - COMARCA; DIAMANTINA-PJ-03PJ 5.006,87 0,00 0,00 2.048,44 1.668,96 0,00 8.724,27 550,76 808,82 0,00 1.359,58 7.364,69 920,50 0,00 31/12/2014
369 491400 CAIO MIRANDA JUNQUEIRA ANALISTA DO MP ATIVO BUENO BRANDAO - COMARCA; BUENO BRANDAO-PJ-UNPJ 5.691,44 341,49 0,00 2.012,35 2.010,98 0,00 10.056,26 663,62 1.154,01 0,00 1.817,63 8.238,63 920,50 0,00 31/12/2014
370 415800 CAMILA ALVES DA SILVA ANALISTA DO MP ATIVO CAETÉ - COMARCA; CAETE-PJ-01PJ 7.014,37 701,44 0,00 5.804,78 2.571,94 0,00 16.092,53 848,74 1.769,58 0,00 2.618,32 13.474,21 685,50 0,00 31/12/2014
371 555800 CAMILA CAROLINE ROCHA CHAVES OFICIAL DO MP ATIVO SALINAS - COMARCA; SALINAS-PJ-01PJ 3.250,03 0,00 0,00 1.320,52 0,00 0,00 4.570,55 455,80 98,85 0,00 554,65 4.015,90 685,50 893,64 31/12/2014
372 445200 CAMILA CONDE ROCHA ANALISTA DO MP ATIVO CONTAGEM - COMARCA; CONTAGEM-PJ-08PJ 7.014,37 701,44 0,00 2.047,39 0,00 0,00 9.763,20 929,04 1.062,29 0,00 1.991,33 7.771,87 685,50 730,02 31/12/2014
373 419900 CAMILA CUNNINGHAM PIMENTA DE PADUA ANALISTA DO MP ATIVO BELO HORIZONTE - COMARCA; ASSESSORIA PSICOSSOCIAL 7.973,40 797,34 0,00 2.627,56 0,00 0,00 11.398,30 964,78 1.320,49 0,00 2.285,27 9.113,03 685,50 0,00 31/12/2014
374 507700 CAMILA ELIZABETH RODRIGUES ANALISTA DO MP ATIVO BELO HORIZONTE - COMARCA; BH-02PJ FAMILIA 6.265,58 375,93 0,00 2.077,57 2.213,84 0,00 10.932,92 730,57 1.408,16 0,00 2.138,73 8.794,19 685,50 0,00 31/12/2014
375 372700 CAMILA FONSECA LIMONGE ANALISTA DO MP ATIVO BETIM - COMARCA; BETIM-PJ-01PJ 8.233,02 823,30 0,00 2.100,10 3.018,77 0,00 14.175,19 1.090,44 2.220,54 0,00 3.310,98 10.864,21 685,50 856,74 31/12/2014
376 621300 CAMILA GOLFETO DE SOUSA VALENTE OFICIAL DO MP ATIVO ESPERA FELIZ - COMARCA; ESPERA FELIZ-PJ-UNPJ 2.859,08 0,00 0,00 1.060,24 0,00 0,00 3.919,32 314,50 43,29 0,00 357,79 3.561,53 1.390,50 0,00 31/12/2014
377 409800 CAMILA GONCALVES COSTA RIBEIRO ANALISTA DO MP ATIVO INHAPIM - COMARCA; INHAPIM-PJ-02PJ 7.014,37 701,44 0,00 1.996,29 0,00 0,00 9.712,10 848,74 1.012,87 0,00 1.861,61 7.850,49 920,50 0,00 31/12/2014
378 335000 CAMILA GONTIJO DE PAIVA ANALISTA DO MP ATIVO BELO HORIZONTE - COMARCA; COORD DE CONTROLE DA CONSTITUCIONALIDADE 9.358,72 935,87 0,00 7.308,68 0,00 0,00 17.603,27 1.239,53 1.644,03 0,00 2.883,56 14.719,71 685,50 973,92 31/12/2014
379 547800 CAMILA MATTARELLI DE ABREU E SILVA ANALISTA DO MP ATIVO BELO HORIZONTE - COMARCA; COORD DE INCLUSAO E MOBILIZACAO SOCIAIS 4.548,03 0,00 0,00 1.465,95 0,00 0,00 6.013,98 500,28 307,78 0,00 808,06 5.205,92 685,50 0,00 31/12/2014
380 430000 CANDIDA MARINA COSTA ANALISTA DO MP ATIVO BELO HORIZONTE - COMARCA; DIVISAO DE DOCUMENTACAO JURIDICA 7.014,37 701,44 0,00 1.946,87 2.571,94 0,00 12.234,62 848,74 1.769,58 0,00 2.618,32 9.616,30 685,50 0,00 31/12/2014
381 614300 CARINA CORTIELHA OFICIAL DO MP ATIVO BELO HORIZONTE - COMARCA; BH-23PJ CIVEL-RECEPCAO 2.859,08 0,00 0,00 1.696,38 0,00 0,00 4.555,46 330,68 66,58 0,00 397,26 4.158,20 685,50 147,06 31/12/2014
382 380400 CARINA DIAS FACANHA DE SOUZA ANALISTA DO MP ATIVO SANTA RITA DO SAPUCAÍ - COMARCA; SANTA RITA DO SAPUCAI-PJ-SECRETARIA 8.233,02 823,30 0,00 6.485,47 0,00 0,00 15.541,79 1.090,44 1.390,38 0,00 2.480,82 13.060,97 1.206,08 882,92 31/12/2014
383 255000 CARLA ADRIANA DE MENEZES OFICIAL DO MP ATIVO BELO HORIZONTE - COMARCA; CENT DE APOIO TEC-SETOR DEF,IDOSO E INFANC 6.469,61 1.293,92 0,00 1.953,80 0,00 0,00 9.717,33 853,99 1.073,97 0,00 1.927,96 7.789,37 685,50 0,00 31/12/2014
384 425100 CARLA ADRIANA DINIZ AMARAL OFICIAL DO MP ATIVO CONTAGEM - COMARCA; CONTAGEM-PJ-08PJ 5.006,87 500,69 0,00 1.675,54 1.835,85 0,00 9.018,95 605,83 977,26 0,00 1.583,09 7.435,86 685,50 0,00 31/12/2014
385 508100 CARLA ALESSANDRA FONSECA ANALISTA DO MP ATIVO BELO HORIZONTE - COMARCA; CAO-ORDEM ECONOMICA E TRIBUTARIA-SECRETARIA 6.265,58 375,93 0,00 5.111,58 0,00 0,00 11.753,09 730,57 799,36 0,00 1.529,93 10.223,16 685,50 0,00 31/12/2014
386 607100 CARLA ANGELICA DIAS MIRANDA OFICIAL DO MP ATIVO JABOTICATUBAS - COMARCA; JABOTICATUBAS-PJ-UNPJ 3.147,52 0,00 0,00 1.382,86 1.049,17 0,00 5.579,55 346,23 161,67 0,00 507,90 5.071,65 920,50 0,00 31/12/2014
387 351500 CARLA APARECIDA MENDES RAMIRIO OFICIAL DO MP ATIVO PASSOS - COMARCA; PASSOS-PJ-01PJ 5.691,44 569,14 0,00 1.701,58 2.086,86 0,00 10.049,02 877,99 1.230,59 0,00 2.108,58 7.940,44 920,50 1.721,22 31/12/2014
388 206200 CARLA BORGES DA COSTA COORDENADOR/ANALISTA ATIVO BELO HORIZONTE - COMARCA; DIRETORIA DE PROJETOS DE EDIFICACOES 13.353,95 7.402,15 0,00 4.005,30 6.918,70 0,00 31.680,10 2.056,51 6.218,88 0,00 8.275,39 23.404,71 685,50 0,00 31/12/2014
389 442800 CARLA GONCALVES COSTA SOALHEIRO ANALISTA DO MP ATIVO GOVERNADOR VALADARES - COMARCA; GOVERNADOR VALADARES-PJ-11PJ 7.014,37 701,44 0,00 1.921,48 2.571,94 0,00 12.209,23 1.018,71 1.720,16 0,00 2.738,87 9.470,36 920,50 1.545,18 31/12/2014
390 321500 CARLA GONCALVES MASSOTE OFICIAL DO MP ATIVO CAMPO BELO - COMARCA; CAMPO BELO-PJ-01PJ 6.068,01 606,80 0,00 1.900,89 0,00 0,00 8.575,70 734,23 807,51 0,00 1.541,74 7.033,96 685,50 0,00 31/12/2014
391 429200 CARLA HAUTEQUESTT BECHARA ANALISTA DO MP ATIVO BELO HORIZONTE - COMARCA; DIVISAO DE DOCUMENTACAO JURIDICA 7.014,37 701,44 0,00 1.946,87 2.571,94 0,00 12.234,62 848,74 1.769,58 0,00 2.618,32 9.616,30 685,50 0,00 31/12/2014
392 247500 CARLA MATILDE GUIMARAES DE OLIVEIRA OFICIAL DO MP ATIVO ITAJUBA - COMARCA; ITAJUBA-PJ-05PJ 6.793,15 2.037,95 0,00 2.497,95 0,00 0,00 11.329,05 971,42 1.285,84 0,00 2.257,26 9.071,79 685,50 0,00 31/12/2014
393 226100 CARLA MERLI DA CONCEICAO ANALISTA DO MP ATIVO BELO HORIZONTE - COMARCA; CENTRAL DE APOIO TECNICO-SETOR CONTABIL 12.356,19 2.471,24 0,00 3.262,16 4.942,48 0,00 23.032,07 1.631,02 4.162,04 0,00 5.793,06 17.239,01 685,50 0,00 31/12/2014
394 181401 CARLO MICHEL GAUDENSI COELHO ANALISTA DO MP ATIVO BELO HORIZONTE - COMARCA; BH-08PJ JUIZADO ESPECIAL-SECRETARIA 7.014,37 2.104,31 0,00 2.048,75 0,00 0,00 11.167,43 1.157,37 1.405,65 0,00 2.563,02 8.604,41 685,50 1.402,88 31/12/2014
395 375801 CARLOS ALBERTO ROCHA ANALISTA DO MP ATIVO ELOI MENDES - COMARCA; ELOI MENDES-PJ-SECRETARIA 5.511,94 0,00 0,00 4.382,73 0,00 0,00 9.894,67 658,29 638,54 0,00 1.296,83 8.597,84 685,50 472,50 31/12/2014
396 462800 CARLOS ANDREI SOARES FAGUNDES ANALISTA DO MP ATIVO MONTES CLAROS - COMARCA; MONTES CLAROS-PJ-09PJ 6.793,15 407,59 0,00 5.111,58 2.400,25 0,00 14.712,57 976,62 1.596,30 0,00 2.572,92 12.139,65 685,50 1.677,66 31/12/2014
397 616500 CARLOS ARI TELES DE PAULA ANALISTA DO MP ATIVO BELO HORIZONTE - COMARCA; BH-19PJ SAUDE-SECRETARIA 129PJ 4.404,59 0,00 0,00 1.882,24 0,00 0,00 6.286,83 484,50 279,06 0,00 763,56 5.523,27 685,50 0,00 31/12/2014
398 370300 CARLOS AUGUSTO BUENO DIAS ASSESSOR ATIVO BELO HORIZONTE - COMARCA; DIRETORIA DE FISCALIZACAO DE OBRAS 0,00 0,00 7.973,40 7.397,48 2.657,80 0,00 18.028,68 965,86 1.477,98 0,00 2.443,84 15.584,84 685,50 0,00 31/12/2014
399 505100 CARLOS CEZAR CARVALHO ANALISTA DO MP ATIVO RIBEIRÃO DAS NEVES - COMARCA; RIBEIRAO DAS NEVES-PJ-04PJ 5.691,44 1.707,43 0,00 5.699,11 0,00 0,00 13.097,98 813,88 885,88 0,00 1.699,76 11.398,22 685,50 0,00 31/12/2014
400 195900 CARLOS DE SOUZA FERREIRA OFICIAL DO MP ATIVO COROMANDEL - COMARCA; COROMANDEL-PJ-UNPJ 7.478,49 5.234,95 0,00 9.078,92 0,00 0,00 21.792,36 1.398,48 2.236,04 0,00 3.634,52 18.157,84 685,50 0,00 31/12/2014
401 196800 CARLOS EDUARDO DE OLIVEIRA MARINHO OFICIAL DO MP ATIVO ALPINÓPOLIS - COMARCA; ALPINOPOLIS-PJ-UNPJ 9.358,72 3.743,49 0,00 2.604,25 0,00 0,00 15.706,46 1.837,50 2.331,20 0,00 4.168,70 11.537,76 920,50 3.602,34 31/12/2014
402 491800 CARLOS EDUARDO ROMAN OFICIAL DO MP ATIVO BARBACENA - COMARCA; BARBACENA-PJ-09PJ 4.000,95 400,10 0,00 1.472,22 1.467,02 0,00 7.340,29 484,12 654,44 0,00 1.138,56 6.201,73 685,50 0,00 31/12/2014
403 299300 CARLOS HENRIQUE BICALHO ANALISTA DO MP ATIVO BELO HORIZONTE - COMARCA; BH-17PJ PATRIMONIO PUBLICO-SECRETARIA 9.977,95 2.993,39 0,00 2.914,71 0,00 0,00 15.886,05 1.426,85 2.348,58 0,00 3.775,43 12.110,62 685,50 0,00 31/12/2014
404 205100 CARLOS HENRIQUE ESTEVES OFICIAL DO MP ATIVO ITAMBACURI - COMARCA; ITAMBACURI-PJ-01PJ 9.358,72 2.807,62 0,00 2.642,73 4.055,45 0,00 18.864,52 1.453,01 3.472,61 0,00 4.925,62 13.938,90 685,50 1.042,80 31/12/2014
405 351600 CARLOS HENRIQUE FELICIO DA FONSECA OFICIAL DO MP ATIVO LIMA DUARTE - COMARCA; LIMA DUARTE-PJ-UNPJ 5.691,44 1.138,29 0,00 1.786,87 2.276,58 0,00 10.893,18 822,35 1.471,49 0,00 2.293,84 8.599,34 685,50 646,20 31/12/2014
406 85400 CARLOS JOSE VIEIRA OFICIAL DO MP ATIVO BELO HORIZONTE - COMARCA; DIRETORIA DO CONSELHO SUPERIOR DO MP 18.218,36 12.752,85 0,00 4.688,30 8.863,23 0,00 44.522,74 2.924,86 8.119,06 4.381,53 15.425,45 29.097,29 685,50 0,00 31/12/2014
407 229100 CARLOS MERCES DE OLIVEIRA ANALISTA DO MP ATIVO BELO HORIZONTE - COMARCA; CENTRAL DE APOIO TECN-SETOR DE MEIO AMBIENTE 11.342,29 2.268,46 0,00 3.447,84 0,00 0,00 17.058,59 1.497,18 1.860,35 0,00 3.357,53 13.701,06 685,50 0,00 31/12/2014
408 538300 CARLOS RANGEL SILVA DE MELO ANALISTA DO MP ATIVO BELO HORIZONTE - COMARCA; DIVISAO DE CONTROLE IMOBILIARIO 4.548,03 909,61 0,00 2.173,85 0,00 0,00 7.631,49 600,34 509,61 0,00 1.109,95 6.521,54 685,50 0,00 31/12/2014
409 265100 CARLOS REIFF MIRANDA ANALISTA DO MP ATIVO BELO HORIZONTE - COMARCA; BH-19PJ SAUDE-SECRETARIA 150PJ 9.663,38 1.932,68 0,00 2.510,48 0,00 0,00 14.106,54 1.275,57 2.011,98 0,00 3.287,55 10.818,99 685,50 0,00 31/12/2014
410 305400 CARLOS ROCHA DE SOUZA OFICIAL DO MP ATIVO MONTALVÂNIA - COMARCA; MONTALVANIA-PJ-SECRETARIA 4.696,06 939,21 0,00 1.833,99 1.878,42 0,00 9.347,68 619,88 871,97 0,00 1.491,85 7.855,83 1.155,50 0,00 31/12/2014
411 365100 CARLOS WAGNER SANDER MORAIS COORDENADOR/OFICIAL ATIVO BELO HORIZONTE - COMARCA; DIRETORIA DE ADMINISTRACAO FINANCEIRA 0,00 1.030,28 10.302,83 8.559,12 3.777,70 0,00 23.669,93 732,10 3.128,00 0,00 3.860,10 19.809,83 685,50 0,00 31/12/2014
412 399900 CARMELITA EVANGELISTA DE SOUZA OFICIAL DO MP ATIVO JOÃO PINHEIRO - COMARCA; JOAO PINHEIRO-PJ-01PJ 4.548,03 454,80 0,00 4.053,66 1.667,61 0,00 10.724,10 550,31 856,89 0,00 1.407,20 9.316,90 685,50 0,00 31/12/2014
413 390400 CARMEM APARECIDA ANTUNES RESENDE OFICIAL DO MP ATIVO IGARAPÉ - COMARCA; IGARAPE-PJ-SECRETARIA 5.006,87 4.506,19 0,00 1.969,57 3.171,02 1.046,44 15.700,09 1.046,44 2.612,55 0,00 3.658,99 12.041,10 685,50 1.046,44 31/12/2014
414 202000 CARMEN LUCIA MARIZ DE MACEDO OFICIAL DO MP ATIVO BELO HORIZONTE - COMARCA; COORD COMB REPRES TRAFICO ILICITO ENTORPECEN 8.501,02 4.250,51 0,00 2.777,14 0,00 0,00 15.528,67 1.402,67 2.195,95 0,00 3.598,62 11.930,05 4.230,79 324,98 31/12/2014
415 228500 CAROLINA CHIARELLA DOS SANTOS RIBEIRO OFICIAL DO MP ATIVO BELO HORIZONTE - COMARCA; BH-13ª PJ JUÍXO DE TÓXICOS 5.006,87 1.001,37 0,00 1.892,41 0,00 0,00 7.900,65 660,91 1.884,24 0,00 2.545,15 5.355,50 1.155,50 4.868,06 31/12/2014
416 446500 CAROLINA COSTA VAL RODRIGUES ANALISTA DO MP ATIVO CONTAGEM - COMARCA; CONTAGEM-PJ-05PJ 6.793,15 679,32 0,00 5.647,76 2.490,82 0,00 15.611,05 821,97 1.687,71 0,00 2.509,68 13.101,37 685,50 0,00 31/12/2014
417 603501 CAROLINA DOMINGOS BRANDAO ANALISTA DO MP ATIVO CARATINGA - COMARCA; CARATINGA-PJ-03PJ 4.404,59 0,00 0,00 1.820,51 0,00 0,00 6.225,10 484,50 279,06 0,00 763,56 5.461,54 685,50 0,00 31/12/2014
418 404300 CAROLINA DOS SANTOS VIEIRA ANALISTA DO MP ATIVO BELO HORIZONTE - COMARCA; BH-08PJ JUIZADO ESPECIAL-SECRETARIA 8.233,02 823,30 0,00 2.198,94 0,00 0,00 11.255,26 1.090,44 1.291,54 0,00 2.381,98 8.873,28 1.155,50 856,74 31/12/2014
419 551200 CAROLINA LOPES ARANTES MASCARENHAS ANALISTA DO MP ATIVO BELO HORIZONTE - COMARCA; EXTINTA - COORD DEFESA DO DIREITO DE FAMILIA 5.006,87 0,00 0,00 4.096,88 0,00 0,00 9.103,75 550,76 359,23 0,00 909,99 8.193,76 920,50 0,00 31/12/2014
420 622600 CAROLINA LOREDO LOPES OFICIAL DO MP ATIVO RIBEIRÃO DAS NEVES - COMARCA; RIBEIRAO DAS NEVES-PJ-12PJ 2.859,08 0,00 0,00 1.060,24 0,00 0,00 3.919,32 322,59 61,67 0,00 384,26 3.535,06 685,50 73,53 31/12/2014
421 382200 CAROLINA MENDES CHAVES LIN ANALISTA DO MP ATIVO BELO HORIZONTE - COMARCA; SUPERINTENDENCIA DE RECURSOS HUMANOS 6.469,61 646,96 0,00 1.909,25 0,00 0,00 9.025,82 782,82 866,21 0,00 1.649,03 7.376,79 0,00 0,00 31/12/2014
422 619100 CAROLINA MENEZES ZAKHIA NARDELLI ANALISTA DO MP ATIVO NEPOMUCENO - COMARCA; NEPOMUCENO-PJ-UNPJ 4.404,59 0,00 0,00 1.882,24 0,00 0,00 6.286,83 484,50 279,06 0,00 763,56 5.523,27 685,50 0,00 31/12/2014
423 461900 CAROLINA MURTA TEIXEIRA DIAS ANALISTA DO MP ATIVO BELO HORIZONTE - COMARCA; DIRET DE FORMACAO, APERFEIC. E POS-GRADUACAO 6.793,15 407,59 0,00 2.555,79 0,00 0,00 9.756,53 1.013,21 1.421,00 0,00 2.434,21 7.322,32 4.340,95 3.833,49 31/12/2014
424 509600 CAROLINA PINTO DE OLIVEIRA SOUZA ANALISTA DO MP ATIVO MURIAÉ - COMARCA; MURIAE-PJ-01PJ 6.265,58 375,93 0,00 2.765,52 0,00 0,00 9.407,03 730,57 749,94 0,00 1.480,51 7.926,52 920,50 0,00 31/12/2014
425 629100 CAROLINA RODRIGUES AMARAL ANALISTA DO MP ATIVO BELO HORIZONTE - COMARCA; PROC. JUSTICA DIR. DIFUSOS E COLETIVOS-SEC 4.848,98 0,00 0,00 1.078,90 0,00 0,00 5.927,88 533,39 368,05 0,00 901,44 5.026,44 685,50 0,00 31/12/2014
426 502600 CAROLINA RODRIGUES RUBEN ANALISTA DO MP ATIVO BELO HORIZONTE - COMARCA; EXTINTA-DEF DIREIT HUM-COMB A VIOL DOMEST-18 6.265,58 375,93 0,00 2.740,81 0,00 0,00 9.382,32 730,57 799,36 0,00 1.529,93 7.852,39 685,50 0,00 31/12/2014
427 529600 CAROLINA VAZ DE MELO MAMBRINI ANALISTA DO MP ATIVO MINAS NOVAS - COMARCA; MINAS NOVAS-PJ-UNPJ 5.006,87 0,00 0,00 1.553,01 0,00 0,00 6.559,88 550,76 399,66 0,00 950,42 5.609,46 685,50 0,00 31/12/2014
428 517600 CAROLINE ALVES DE OLIVEIRA MULLER ANALISTA DO MP ATIVO VISCONDE DO RIO BRANCO - COMARCA; VISCONDE DO RIO BRANCO-PJ-01PJ 6.068,01 0,00 0,00 1.756,94 0,00 0,00 7.824,95 667,48 609,58 0,00 1.277,06 6.547,89 920,50 0,00 31/12/2014
429 373200 CAROLINE ANTUNES RIBEIRO OFICIAL DO MP ATIVO JACUI - COMARCA; JACUI-PJ-UNPJ 5.169,86 516,99 0,00 1.800,42 1.895,62 0,00 9.382,89 625,55 938,74 0,00 1.564,29 7.818,60 920,50 0,00 31/12/2014
430 556800 CAROLINE DE SOUZA CARDOSO OFICIAL DO MP ATIVO BRASÍLIA DE MINAS - COMARCA; BRASILIA DE MINAS-PJ-02PJ 2.952,15 0,00 0,00 1.134,89 984,05 0,00 5.071,09 324,74 209,62 0,00 534,36 4.536,73 685,50 0,00 31/12/2014
431 499400 CAROLINE MARQUES DE LOURDES MARZULLO OFICIAL DO MP ATIVO JUIZ DE FORA - COMARCA; JUIZ DE FORA-PJ-20PJ 4.000,95 240,06 0,00 1.558,78 0,00 0,00 5.799,79 466,51 246,30 0,00 712,81 5.086,98 1.390,50 0,00 31/12/2014
432 616800 CAROLINE MONTEIRO DE BARROS ANALISTA DO MP ATIVO CONTAGEM - COMARCA; CONTAGEM-PJ-11PJ 4.404,59 0,00 0,00 1.817,37 0,00 0,00 6.221,96 484,50 279,06 0,00 763,56 5.458,40 685,50 0,00 31/12/2014
433 618100 CAROLINE VASCONCELOS COSTA LANZA ANALISTA DO MP ATIVO PARAOPEBA - COMARCA; PARAOPEBA-PJ-UNPJ 4.404,59 0,00 0,00 1.882,24 0,00 0,00 6.286,83 484,50 279,06 0,00 763,56 5.523,27 685,50 0,00 31/12/2014
434 604000 CASSIA APARECIDA DA SILVA OFICIAL DO MP ATIVO CANÁPOLIS - COMARCA; CANAPOLIS-PJ-UNPJ 2.859,08 0,00 0,00 2.487,82 0,00 0,00 5.346,90 314,50 56,76 0,00 371,26 4.975,64 685,50 0,00 31/12/2014
435 268800 CASSIA BEATRIZ TEIXEIRA OFICIAL DO MP ATIVO BELO HORIZONTE - COMARCA; COMB CRIMES PRAT POR AG POL MUN-SECRETARIA 6.578,93 1.315,79 0,00 2.038,45 0,00 0,00 9.933,17 868,42 1.106,08 0,00 1.974,50 7.958,67 1.358,45 61,69 31/12/2014
436 500000 CASSIA DE OLIVEIRA COSTA VIANA ANALISTA DO MP ATIVO SETE LAGOAS - COMARCA; SETE LAGOAS-PJ-09PJ 6.265,58 1.253,12 0,00 5.677,59 0,00 0,00 13.196,29 827,06 1.014,05 0,00 1.841,11 11.355,18 685,50 0,00 31/12/2014
437 368800 CASSIA LUISA BATISTA MENDONCA WEBER OFICIAL DO MP ATIVO BELO HORIZONTE - COMARCA; PROCON-MG-SEC DE EDUCACAO PARA O CONSUMO 4.696,06 469,61 0,00 1.576,46 0,00 0,00 6.742,13 568,22 438,15 0,00 1.006,37 5.735,76 1.155,50 0,00 31/12/2014
438 622200 CASSIA VAZ DE AZEVEDO LISBOA MARZANO ASSESSOR ADMINISTRATIVO I ATIVO BELO HORIZONTE - COMARCA; CGMP-SECRETARIA DA CORREGEDORIA-GERAL DO MP 0,00 0,00 2.359,08 982,95 0,00 0,00 3.342,03 413,54 42,19 0,00 455,73 2.886,30 920,50 0,00 31/12/2014
439 121000 CASSIO HENRIQUE AFONSO DA SILVA COORDENADOR/OFICIAL ATIVO BELO HORIZONTE - COMARCA; DIR ANALISES TECNOLOGIA INTELIGENCIA 10.638,28 7.791,82 0,00 3.799,16 0,00 0,00 22.229,26 1.755,32 3.660,57 0,00 5.415,89 16.813,37 920,50 0,00 31/12/2014
440 121100 CASSIO MOREIRA DE MIRANDA AGENTE DO MP ATIVO BELO HORIZONTE - COMARCA; PROCON-MG-SECRETARIA DE FISCALIZACOES 3.355,81 3.457,38 0,00 2.263,45 2.271,06 0,00 11.347,70 627,54 841,49 0,00 1.469,03 9.878,67 685,50 19.899,77 31/12/2014
441 512001 CATARINA NATALINO CALIXTO ANALISTA DO MP ATIVO BELO HORIZONTE - COMARCA; EXTINTA - DIVISÃO DE APOIO À LICITAÇÃO 4.404,59 0,00 0,00 0,00 0,00 0,00 4.404,59 605,63 279,06 0,00 884,69 3.519,90 841,30 1.060,77 31/12/2014
442 606200 CATARINE DE SIQUEIRA DE QUADROS ANALISTA DO MP ATIVO RIBEIRÃO DAS NEVES - COMARCA; RIBEIRAO DAS NEVES-PJ-09PJ 4.404,59 0,00 0,00 1.479,16 0,00 0,00 5.883,75 484,50 238,63 0,00 723,13 5.160,62 3.563,25 198,21 31/12/2014
443 71800 CATIA EFIGENIA CARNEIRO DE FREITAS OFICIAL DO MP ATIVO BELO HORIZONTE - COMARCA; ASSESSORIA JURIDICO-ADMINISTRATIVA 20.993,41 14.695,38 0,00 4.737,72 0,00 2.729,87 43.156,38 2.924,86 6.382,97 9.099,11 18.406,94 24.749,44 685,50 2.729,87 31/12/2014
444 622300 CECILIA APARECIDA PEREIRA ASSUNCAO OFICIAL DO MP ATIVO TRÊS PONTAS - COMARCA; TRES PONTAS-PJ-SECRETARIA 3.147,52 0,00 0,00 1.167,21 0,00 0,00 4.314,73 346,23 85,16 0,00 431,39 3.883,34 685,50 0,00 31/12/2014
445 538000 CECILIA FONTES DE MATOS PIMENTEL ANALISTA DO MP ATIVO PALMA - COMARCA; PALMA-PJ-SECRETARIA 5.006,87 0,00 0,00 1.553,01 0,00 0,00 6.559,88 550,76 399,66 0,00 950,42 5.609,46 685,50 0,00 31/12/2014
446 261300 CECILIO ANTONIO CAMPOS DOS REIS ANALISTA DO MP ATIVO BELO HORIZONTE - COMARCA; AUDITORIA INTERNA 10.984,62 2.196,92 0,00 3.344,77 0,00 0,00 16.526,31 1.449,97 2.400,03 0,00 3.850,00 12.676,31 685,50 0,00 31/12/2014
447 386400 CEFAS AMORELI DE FIGUEIREDO OFICIAL DO MP ATIVO CABO VERDE - COMARCA; CABO VERDE-PJ-SECRETARIA 4.131,19 413,12 0,00 1.465,24 0,00 0,00 6.009,55 499,87 307,04 0,00 806,91 5.202,64 685,50 0,00 31/12/2014
448 149000 CELIA MAGALHAES CLAROS SOSSI OFICIAL DO MP ATIVO GOVERNADOR VALADARES - COMARCA; GOVERNADOR VALADARES-PJ-01PJ 9.663,38 3.865,35 0,00 2.791,19 0,00 0,00 16.319,92 1.488,16 2.485,01 0,00 3.973,17 12.346,75 685,50 0,00 31/12/2014
449 113100 CELIA MARIA ALVES PINTO OFICIAL DO MP ATIVO BELO HORIZONTE - COMARCA; PROCON-MG-SEC DE EDUCACAO PARA O CONSUMO 6.578,93 4.605,25 0,00 2.543,57 3.728,06 0,00 17.455,81 1.230,26 2.936,39 0,00 4.166,65 13.289,16 685,50 0,00 31/12/2014
450 421000 CELINA BENEDITA DE SOUZA ALMEIDA OFICIAL DO MP ATIVO CAMBUÍ - COMARCA; CAMBUI-PJ-01PJ 5.006,87 2.002,75 0,00 1.893,72 0,00 0,00 8.903,34 771,06 840,03 0,00 1.611,09 7.292,25 685,50 0,00 31/12/2014
451 252900 CELIO DE MELO CASTOR ANALISTA DO MP ATIVO BELO HORIZONTE - COMARCA; BH-20PJ ORD ECON TRIBUTARIA-SECRETARIA 10.984,62 2.196,92 0,00 3.394,19 0,00 0,00 16.575,73 1.449,97 2.350,61 0,00 3.800,58 12.775,15 685,50 0,00 31/12/2014
452 395700 CELIO FERREIRA LIMA OFICIAL DO MP ATIVO CONTAGEM - COMARCA; CONTAGEM-PJ-07PJ 4.548,03 454,80 0,00 1.592,68 0,00 0,00 6.595,51 550,31 358,42 0,00 908,73 5.686,78 920,50 0,00 31/12/2014
453 281300 CELMA REGINA PEREIRA SANTOS ANALISTA DO MP ATIVO BELO HORIZONTE - COMARCA; DIVISAO DE DOCUMENTACAO JURIDICA 10.638,28 2.127,66 0,00 2.680,41 0,00 0,00 15.446,35 1.404,25 2.298,31 0,00 3.702,56 11.743,79 685,50 0,00 31/12/2014
454 535600 CELSO MEDEIROS DE PAIVA OFICIAL DO MP ATIVO RIO PRETO - COMARCA; RIO PRETO-PJ-SECRETARIA 2.952,15 0,00 0,00 1.101,83 0,00 0,00 4.053,98 324,74 49,50 0,00 374,24 3.679,74 685,50 0,00 31/12/2014
455 367000 CESAR NARVAES DE AVELAR COORDENADOR/OFICIAL ATIVO BELO HORIZONTE - COMARCA; DIVISAO DE MEMORIA INSTITUCIONAL 0,00 906,36 9.063,59 3.777,54 0,00 0,00 13.747,49 688,66 1.726,20 0,00 2.414,86 11.332,63 685,50 0,00 31/12/2014
456 226500 CESAR SILVEIRA BARROUIN OFICIAL DO MP ATIVO BELO HORIZONTE - COMARCA; DIRETORIA DE ADMINISTRACAO FINANCEIRA 6.793,15 2.037,95 0,00 6.524,42 0,00 0,00 15.355,52 971,42 1.335,26 0,00 2.306,68 13.048,84 685,50 0,00 31/12/2014
457 121400 CEZAR MORENO CONCEICAO TAVARES OFICIAL DO MP ATIVO BELO HORIZONTE - COMARCA; COORD DE INCLUSAO E MOBILIZACAO SOCIAIS 9.663,38 4.831,69 0,00 2.865,18 4.831,69 0,00 22.191,94 1.745,27 4.050,23 0,00 5.795,50 16.396,44 685,50 1.370,97 31/12/2014
458 243800 CHARLES MARTINS MUNIZ OFICIAL DO MP ATIVO BELO HORIZONTE - COMARCA; LAB TECNOLOGIA CONTRA LAVAGEM DINHEIRO 6.793,15 2.037,95 0,00 2.322,52 2.943,70 0,00 14.097,32 1.197,74 2.144,78 0,00 3.342,52 10.754,80 685,50 2.057,52 31/12/2014
459 193500 CHARLIN CESAR KOURLY OFICIAL DO MP ATIVO UBERLÂNDIA - COMARCA; UBERLANDIA-PJ-10PJ 9.358,72 1.871,74 0,00 2.307,88 0,00 0,00 13.538,34 1.575,00 1.922,51 0,00 3.497,51 10.040,83 685,50 3.087,72 31/12/2014
460 385500 CHILLEN PEIXOTO DE MOURA OFICIAL DO MP ATIVO BELO HORIZONTE - COMARCA; BH-14PJ DEFESA CONSUMIDOR-GAB 112PJ 4.548,03 454,80 0,00 2.184,96 1.667,61 0,00 8.855,40 550,31 856,89 0,00 1.407,20 7.448,20 685,50 0,00 31/12/2014
461 534500 CHRISTIAN DOUGLAS BRITO RUAS OFICIAL DO MP ATIVO SÃO JOÃO DA PONTE - COMARCA; SAO JOAO DA PONTE-PJ-SECRETARIA 2.952,15 0,00 0,00 1.282,21 984,05 0,00 5.218,41 324,74 209,62 0,00 534,36 4.684,05 787,90 0,00 31/12/2014
462 370600 CHRISTIAN KARINE FELIX PRATES ASSESSOR ATIVO BELO HORIZONTE - COMARCA; ASSESS ESPECIAL DO PGJ ATUACAO JUNTO A PGJAI 0,00 0,00 7.973,40 2.948,66 0,00 0,00 10.922,06 965,86 1.422,24 0,00 2.388,10 8.533,96 920,50 0,00 31/12/2014
463 435800 CHRISTIANA BAHIA ANDRADE PINA ANALISTA DO MP ATIVO BELO HORIZONTE - COMARCA; LAB TECNOLOGIA CONTRA LAVAGEM DINHEIRO 7.014,37 701,44 0,00 2.204,41 0,00 0,00 9.920,22 848,74 1.062,29 0,00 1.911,03 8.009,19 920,50 0,00 31/12/2014
464 516800 CHRISTIANE FERREIRA DO NASCIMENTO ANALISTA DO MP ATIVO ESTRELA DO SUL - COMARCA; ESTRELA DO SUL-PJ-UNPJ 5.511,94 0,00 0,00 2.191,37 0,00 0,00 7.703,31 658,29 638,54 0,00 1.296,83 6.406,48 685,50 472,50 31/12/2014
465 176000 CHRISTIANE JUNQUEIRA PULITI ANDRADE DE BARROS ASSESSOR ATIVO BELO HORIZONTE - COMARCA; GABINETE DO PROCURADOR-GERAL DE JUSTICA 0,00 9.347,77 13.353,95 2.952,30 0,00 0,00 25.654,02 2.497,19 4.680,68 0,00 7.177,87 18.476,15 685,50 0,00 31/12/2014
466 319200 CHRISTIANE MARIA DE ASSIS RUSSO OFICIAL DO MP ATIVO BELO HORIZONTE - COMARCA; CAO-ORDEM ECONOMICA E TRIBUTARIA-SECRETARIA 6.068,01 1.213,60 0,00 5.182,49 0,00 0,00 12.464,10 934,48 906,60 0,00 1.841,08 10.623,02 920,50 1.213,60 31/12/2014
467 510300 CHRISTIANE MARY DE CARVALHO FERREIRA ANALISTA DO MP ATIVO BELO HORIZONTE - COMARCA; DIRETORIA DE SISTEMAS DE INFORMACAO 5.691,44 341,49 0,00 2.012,35 0,00 0,00 8.045,28 663,62 600,99 0,00 1.264,61 6.780,67 920,50 0,00 31/12/2014
468 424900 CHRISTIANE PEREIRA TURNER DE ARAUJO OFICIAL DO MP ATIVO BELO HORIZONTE - COMARCA; CAO-PATRIMONIO PUBLICO 5.006,87 500,69 0,00 1.600,89 1.835,85 0,00 8.944,30 663,14 1.026,68 0,00 1.689,82 7.254,48 920,50 521,04 31/12/2014
469 513700 CHRISTIANE VIEIRA SOARES PEDERSOLI ANALISTA DO MP ATIVO BELO HORIZONTE - COMARCA; PROCON-MG-GAB DO COORDENADOR DO PROCON-MG 6.068,01 364,08 0,00 1.707,52 2.144,03 0,00 10.283,64 787,63 1.337,71 0,00 2.125,34 8.158,30 685,50 728,16 31/12/2014
470 412300 CHRYSTIAN MACHADO RIBEIRO ANALISTA DO MP ATIVO VARGINHA - COMARCA; VARGINHA-PJ-04PJ 7.973,40 797,34 0,00 3.583,08 0,00 0,00 12.353,82 1.047,48 1.504,49 0,00 2.551,97 9.801,85 685,50 751,80 31/12/2014
471 513800 CHRYSTIANE DO NASCIMENTO DE MAGALHAES OFICIAL DO MP ATIVO UBERLÂNDIA - COMARCA; UBERLANDIA-PJ-10PJ 3.938,84 236,33 0,00 1.345,34 0,00 0,00 5.520,51 511,27 195,40 0,00 706,67 4.813,84 920,50 472,66 31/12/2014
472 497900 CIBELE DE FREITAS SANCHES DIAS ANALISTA DO MP ATIVO SABARÁ - COMARCA; SABARA-PJ-03PJ 5.691,44 341,49 0,00 1.962,93 2.010,98 0,00 10.006,84 663,62 1.203,43 0,00 1.867,05 8.139,79 685,50 0,00 31/12/2014
473 500900 CIBELLE SILVA PRADO ALVARENGA ANALISTA DO MP ATIVO ITANHANDU - COMARCA; ITANHANDU-PJ-UNPJ 6.265,58 375,93 0,00 5.111,58 0,00 0,00 11.753,09 793,19 938,70 0,00 1.731,89 10.021,20 685,50 569,30 31/12/2014
474 629800 CINIRA DE ASSIS SILVA ANALISTA DO MP ATIVO IPATINGA - COMARCA; IPATINGA-PJ-02PJ 4.404,59 0,00 0,00 653,35 0,00 0,00 5.057,94 484,50 279,06 0,00 763,56 4.294,38 685,50 0,00 31/12/2014
475 296400 CINTIA APARECIDA MOREIRA NAVES E RODRIGUES ANALISTA DO MP ATIVO CAMPO BELO - COMARCA; CAMPO BELO-PJ-04PJ 9.977,95 1.995,59 0,00 2.754,05 3.991,18 0,00 18.718,77 1.317,09 3.201,95 0,00 4.519,04 14.199,73 1.880,69 88,02 31/12/2014
476 407900 CINTIA NETO COMELLI ANALISTA DO MP ATIVO BELO HORIZONTE - COMARCA; CENTRAL DE APOIO TECNICO-SETOR CONTABIL 7.973,40 797,34 0,00 2.627,56 0,00 0,00 11.398,30 964,78 1.320,49 0,00 2.285,27 9.113,03 685,50 0,00 31/12/2014
477 304700 CINTIA QUEIROZ OFICIAL DO MP ATIVO BELO HORIZONTE - COMARCA; DIR GESTAO SISTEMAS ATIVIDADE-FIM 6.469,61 1.293,92 0,00 1.918,24 2.587,84 0,00 12.269,61 934,78 1.785,63 0,00 2.720,41 9.549,20 685,50 734,52 31/12/2014
478 286100 CIRO CANGUSSU CORDEIRO OFICIAL DO MP ATIVO IPATINGA - COMARCA; IPATINGA-PJ-09PJ 4.696,06 939,21 0,00 1.694,09 0,00 0,00 7.329,36 673,01 621,88 0,00 1.294,89 6.034,47 685,50 483,00 31/12/2014
479 412500 CLARICE GOMES MAROTTA ANALISTA DO MP ATIVO BELO HORIZONTE - COMARCA; ASSESS TECNICO-JUR JUNTO AS PROC. DE JUST 7.014,37 1.402,87 0,00 2.048,75 0,00 0,00 10.465,99 925,90 1.233,97 0,00 2.159,87 8.306,12 685,50 0,00 31/12/2014
480 605300 CLARISSA AZEVEDO ROCHA OFICIAL DO MP ATIVO BELO HORIZONTE - COMARCA; EXTINTA - DIVISÃO DE COMPRAS 3.147,52 0,00 0,00 2.716,13 1.049,17 0,00 6.912,82 346,23 263,39 0,00 609,62 6.303,20 685,50 0,00 31/12/2014
481 308100 CLARISSA DUARTE MARTINS DIRETOR/ANALISTA ATIVO BELO HORIZONTE - COMARCA; SUPERINTENDENCIA DE RECURSOS HUMANOS 0,00 2.670,79 13.353,95 3.526,25 5.341,58 0,00 24.892,57 1.317,09 4.637,97 0,00 5.955,06 18.937,51 685,50 0,00 31/12/2014
482 497100 CLARISSA ROCHA GUIDI ANALISTA DO MP ATIVO BELO HORIZONTE - COMARCA; EXTINTA - JUIZO DE FAMILIA-02 PJ-02 VARA 6.265,58 375,93 0,00 2.077,57 2.213,84 0,00 10.932,92 730,57 1.408,16 0,00 2.138,73 8.794,19 685,50 0,00 31/12/2014
483 463700 CLAUDIA ADRIANA FERRAO DIAS ANALISTA DO MP ATIVO SETE LAGOAS - COMARCA; SETE LAGOAS-PJ-06PJ 6.793,15 407,59 0,00 5.210,42 0,00 0,00 12.411,16 976,62 837,39 0,00 1.814,01 10.597,15 685,50 1.864,07 31/12/2014
484 415400 CLAUDIA ALMEIDA DE VASCONCELLOS BARROS ASSESSOR/OFICIAL ATIVO BELO HORIZONTE - COMARCA; DIRET DE PESSOAL DO MINISTERIO PUBLICO - DPMP 0,00 797,34 7.973,40 3.242,74 2.923,58 0,00 14.937,06 964,78 2.124,47 0,00 3.089,25 11.847,81 685,50 0,00 31/12/2014
485 389600 CLAUDIA ALVES PERDOMO ASSESSOR ATIVO BELO HORIZONTE - COMARCA; PROCON-MG-GAB DO COORDENADOR DO PROCON-MG 0,00 0,00 7.973,40 2.752,97 2.657,80 0,00 13.384,17 965,86 2.153,14 0,00 3.119,00 10.265,17 685,50 0,00 31/12/2014
486 207000 CLAUDIA APARECIDA VILELA MACHADO ANALISTA DO MP ATIVO BELO HORIZONTE - COMARCA; CENTRAL DE APOIO TECNICO-SETOR CONTABIL 12.356,19 3.706,86 0,00 3.208,72 5.354,35 0,00 24.626,12 1.766,94 4.528,31 0,00 6.295,25 18.330,87 920,50 0,00 31/12/2014
487 365700 CLAUDIA BREGUEZ CUNHA ANALISTA DO MP ATIVO VARGINHA - COMARCA; VARGINHA-PJ-07PJ 8.501,02 850,10 0,00 2.184,40 0,00 0,00 11.535,52 1.028,62 1.462,54 0,00 2.491,16 9.044,36 685,50 0,00 31/12/2014
488 430500 CLAUDIA CECILIA SANTANA VENCESLAU COORDENADOR/OFICIAL ATIVO BELO HORIZONTE - COMARCA; DIRET DE DESENV DE RECURSOS HUMANOS-DDRH 0,00 1.030,28 10.302,83 3.000,14 0,00 0,00 14.333,25 644,03 2.063,93 0,00 2.707,96 11.625,29 920,50 0,00 31/12/2014
489 112400 CLAUDIA CRISTINA FIUZA DE AVELAR AGENTE DO MP ATIVO BELO HORIZONTE - COMARCA; SERVICO MEDICO-DEPTO PERIC MEDICA SAUDE OCUP 6.265,58 3.132,79 0,00 2.191,26 0,00 0,00 11.589,63 1.033,82 1.474,10 0,00 2.507,92 9.081,71 685,50 0,00 31/12/2014
490 149400 CLAUDIA DINIZ OFICIAL DO MP ATIVO BELO HORIZONTE - COMARCA; BH-09PJ AUDITORIA MILITAR-SECRETARIA 11.885,64 5.942,82 0,00 12.329,96 5.942,82 0,00 36.101,24 1.961,13 5.171,64 0,00 7.132,77 28.968,47 685,50 0,00 31/12/2014
491 480400 CLAUDIA GOULART DE SOUZA OFICIAL DO MP ATIVO PASSOS - COMARCA; PASSOS-PJ-06PJ 4.000,95 400,10 0,00 1.438,05 1.467,02 0,00 7.306,12 484,12 654,44 0,00 1.138,56 6.167,56 685,50 0,00 31/12/2014
492 519800 CLAUDIA HELENA CORREA DE ALMEIDA ANALISTA DO MP ATIVO BELO HORIZONTE - COMARCA; BH-12PJ JUIZO CRIMINAL-GAB 090PJ 6.068,01 0,00 0,00 1.707,52 2.022,67 0,00 9.798,20 701,81 1.291,61 0,00 1.993,42 7.804,78 685,50 312,06 31/12/2014
493 422100 CLAUDIA IACOMINI CABRAL ANALISTA DO MP ATIVO BELO HORIZONTE - COMARCA; CENT DE APOIO TEC-SETOR DEF,IDOSO E INFANC 7.014,37 3.507,19 0,00 2.705,13 0,00 0,00 13.226,69 1.157,37 1.749,00 0,00 2.906,37 10.320,32 685,50 0,00 31/12/2014
494 258200 CLAUDIA LAGE MICHALAROS ANALISTA DO MP ATIVO BELO HORIZONTE - COMARCA; CENTRAL DE APOIO TECN-SETOR DE MEIO AMBIENTE 10.984,62 5.492,31 0,00 4.023,84 5.492,31 0,00 25.993,08 1.812,46 4.667,54 0,00 6.480,00 19.513,08 685,50 0,00 31/12/2014
495 284600 CLAUDIA LENI DE ABREU OFICIAL DO MP ATIVO CONTAGEM - COMARCA; CONTAGEM-PJ-22PJ 4.696,06 1.408,82 0,00 1.712,88 2.034,96 0,00 9.852,72 671,54 1.227,63 0,00 1.899,17 7.953,55 685,50 0,00 31/12/2014
496 433600 CLAUDIA LUIZA SANTIAGO FELICIO ANALISTA DO MP ATIVO BELO HORIZONTE - COMARCA; CAO-SAUDE-TECNICO JURIDICO 7.014,37 701,44 0,00 3.117,99 0,00 0,00 10.833,80 848,74 963,45 0,00 1.812,19 9.021,61 920,50 0,00 31/12/2014
497 317000 CLAUDIA MACHADO ALVES OFICIAL DO MP ATIVO BELO HORIZONTE - COMARCA; ASSESS ESPECIAL DO PGJ ATUACAO JUNTO A PGJAI 5.006,87 1.001,37 0,00 1.600,89 2.002,75 0,00 9.611,88 940,60 1.195,12 0,00 2.135,72 7.476,16 685,50 2.542,67 31/12/2014
498 155300 CLAUDIA MACIEL MIRANDA OFICIAL DO MP ATIVO CONGONHAS - COMARCA; CONGONHAS-PJ-02PJ 9.663,38 3.865,35 0,00 9.379,19 0,00 0,00 22.907,92 1.628,91 2.386,17 0,00 4.015,08 18.892,84 920,50 1.279,56 31/12/2014
499 242200 CLAUDIA MICHELLE DIAS MUNIZ BALEEIRO OFICIAL DO MP ATIVO MONTE AZUL - COMARCA; MONTE AZUL-PJ-SECRETARIA 6.793,15 2.037,95 0,00 2.346,95 0,00 0,00 11.178,05 971,42 1.236,42 0,00 2.207,84 8.970,21 915,90 0,00 31/12/2014
500 623000 CLAUDIA PATRICIA SILVA RODRIGUES RAPOSEIRAS OFICIAL DO MP ATIVO BELO HORIZONTE - COMARCA; DIVISÃO DE EDUCAÇÃO PARA O CONSUMO 2.859,08 0,00 0,00 848,20 0,00 0,00 3.707,28 314,50 43,29 0,00 357,79 3.349,49 685,50 0,00 31/12/2014
501 418400 CLAUDIA REGINA MARTINS BONIFACIO OFICIAL DO MP ATIVO ITUIUTABA - COMARCA; ITUIUTABA-PJ-06PJ 5.006,87 500,69 0,00 1.724,96 0,00 0,00 7.232,52 605,83 422,99 0,00 1.028,82 6.203,70 685,50 0,00 31/12/2014
502 498300 CLAUDIA SOUTO FARIAS BRAUN OFICIAL DO MP ATIVO TEÓFILO OTONI - COMARCA; TEOFILO OTONI-PJ-SECRETARIA 3.694,41 221,66 0,00 1.818,40 0,00 0,00 5.734,47 430,77 106,90 0,00 537,67 5.196,80 920,50 0,00 31/12/2014
503 206500 CLAUDIA VALERIA FONSECA ANDRADE ANALISTA DO MP ATIVO BELO HORIZONTE - COMARCA; BH-23PJ INF-FISC MED SOC FEC 12.356,19 4.942,48 0,00 3.388,20 0,00 0,00 20.686,87 1.902,85 3.358,28 0,00 5.261,13 15.425,74 4.230,79 324,98 31/12/2014
504 277500 CLAUDIO ANTONIO BORGES ALVARES ASSESSOR/OFICIAL ATIVO BELO HORIZONTE - COMARCA; COORD REG BACIAS RIO VELHAS E PARAOPEBA 0,00 1.253,12 6.265,58 1.888,25 0,00 0,00 9.406,95 868,42 1.002,68 0,00 1.871,10 7.535,85 685,50 0,00 31/12/2014
505 444800 CLAUDIO ARESIO DO CARMO ANALISTA DO MP ATIVO SETE LAGOAS - COMARCA; SETE LAGOAS-PJ-01PJ 7.014,37 1.402,87 0,00 2.059,61 2.805,75 0,00 13.282,60 1.013,50 1.956,13 0,00 2.969,63 10.312,97 920,50 796,38 31/12/2014
506 541600 CLAUDIO DE OLIVEIRA MELO OFICIAL DO MP ATIVO PARACATU - COMARCA; PARACATU-PJ-01PJ 2.952,15 0,00 0,00 1.295,69 984,05 0,00 5.231,89 324,74 152,78 0,00 477,52 4.754,37 1.155,50 0,00 31/12/2014
507 545100 CLAUDIO HENRIQUE MACEDO DE SOUZA FRANSOZO ANALISTA DO MP ATIVO OURO PRETO - COMARCA; OURO PRETO-PJ-01PJ 4.548,03 0,00 0,00 3.739,97 0,00 0,00 8.288,00 500,28 307,78 0,00 808,06 7.479,94 685,50 0,00 31/12/2014
508 353500 CLAUDIO HENRIQUE PEDRO DA ROCHA OFICIAL DO MP ATIVO BELO HORIZONTE - COMARCA; CAO-CRIMINAL-SECRETARIA 5.691,44 569,14 0,00 1.805,66 2.086,86 0,00 10.153,10 753,82 1.181,17 0,00 1.934,99 8.218,11 685,50 592,35 31/12/2014
509 265800 CLAUDIO KUPIDLOWSKY FERNANDES ASSESSOR/OFICIAL ATIVO BELO HORIZONTE - COMARCA; EXTINTA - SECRETARIA ADMINISTRATIVA 0,00 1.755,56 8.777,78 3.266,28 3.511,11 0,00 17.310,73 868,42 1.887,51 0,00 2.755,93 14.554,80 920,50 0,00 31/12/2014
510 193600 CLAUDIO LEITE FONTES OFICIAL DO MP ATIVO ITUIUTABA - COMARCA; ITUIUTABA-PJ-02PJ 5.691,44 1.707,43 0,00 1.802,35 0,00 0,00 9.201,22 1.037,64 785,62 0,00 1.823,26 7.377,96 685,50 2.034,15 31/12/2014
511 329400 CLAUDIO MARCIO BERNARDES OFICIAL DO MP ATIVO ITAÚNA - COMARCA; ITAUNA-PJ-04PJ 6.068,01 2.427,20 0,00 3.264,97 2.831,74 0,00 14.591,92 1.078,64 2.303,12 0,00 3.381,76 11.210,16 769,50 1.310,58 31/12/2014
512 270200 CLAUDIO RABELO ALVES OFICIAL DO MP ATIVO FORMIGA - COMARCA; FORMIGA-PJ-SECRETARIA 6.578,93 1.315,79 0,00 2.236,13 0,00 0,00 10.130,85 868,42 908,40 0,00 1.776,82 8.354,03 685,50 0,00 31/12/2014
513 264700 CLAUDIO ROBERTO KFURI DE ARAUJO ANALISTA DO MP ATIVO BELO HORIZONTE - COMARCA; CENTRAL DE APOIO TECNICO-SETOR DE INFORMATICA 10.984,62 2.196,92 0,00 3.443,61 4.393,85 0,00 21.019,00 1.449,97 3.509,50 0,00 4.959,47 16.059,53 685,50 0,00 31/12/2014
514 188600 CLAUDIO SALES OFICIAL DO MP ATIVO NEPOMUCENO - COMARCA; NEPOMUCENO-PJ-SECRETARIA 8.501,02 5.950,72 0,00 2.619,91 4.817,25 0,00 21.888,90 2.002,88 4.035,66 0,00 6.038,54 15.850,36 920,50 3.756,30 31/12/2014
515 543300 CLAUDIO SILVA DE CARVALHO ANALISTA DO MP ATIVO CAMPO BELO - COMARCA; CAMPO BELO-PJ-02PJ 4.848,98 0,00 0,00 1.518,72 0,00 0,00 6.367,70 680,04 287,18 0,00 967,22 5.400,48 685,50 1.333,17 31/12/2014
516 160700 CLAUDIO VICENTE HESS ASSESSOR ATIVO BELO HORIZONTE - COMARCA; EXTINTA - SUPERINTENDENCIA ADMINISTRATIVA-SAD 0,00 3.090,85 10.302,83 4.302,53 4.464,56 0,00 22.160,77 965,86 3.992,31 0,00 4.958,17 17.202,60 685,50 0,00 31/12/2014
517 312900 CLAUDIO VIEIRA FIRPE ASSESSOR/OFICIAL ATIVO BELO HORIZONTE - COMARCA; DIRETORIA DE RELACOES PUBLICAS E CERIMONIAL 0,00 1.594,68 7.973,40 2.778,02 0,00 0,00 12.346,10 827,06 1.577,63 0,00 2.404,69 9.941,41 920,50 0,00 31/12/2014
518 459200 CLEIA ZILLE PEREIRA ANALISTA DO MP ATIVO BELO HORIZONTE - COMARCA; ASSESS TECNICO-JUR JUNTO AS PROC. DE JUST 6.793,15 407,59 0,00 2.151,67 0,00 0,00 9.352,41 792,08 936,23 0,00 1.728,31 7.624,10 1.155,50 0,00 31/12/2014
519 481800 CLEIDE CARDOSO DA SILVA ANALISTA DO MP ATIVO MANHUAÇU - COMARCA; MANHUACU-PJ-04PJ 6.265,58 375,93 0,00 1.889,66 0,00 0,00 8.531,17 730,57 700,52 0,00 1.431,09 7.100,08 1.155,50 0,00 31/12/2014
520 347600 CLEIDIMAR DE OLIVEIRA SILVA OFICIAL DO MP ATIVO PATOS DE MINAS - COMARCA; PATOS DE MINAS-PJ-05PJ 5.511,94 1.102,39 0,00 1.954,27 2.204,78 0,00 10.773,38 796,41 1.201,34 0,00 1.997,75 8.775,63 685,50 625,74 31/12/2014
521 396500 CLEIDISON BATISTA DE ANDRADE OFICIAL DO MP ATIVO RESPLENDOR - COMARCA; RESPLENDOR-PJ-UNPJ 4.131,19 413,12 0,00 1.926,84 1.514,77 0,00 7.985,92 499,87 554,37 0,00 1.054,24 6.931,68 685,50 0,00 31/12/2014
522 535100 CLEISON ALVES DA SILVA ANALISTA DO MP ATIVO BOA ESPERANÇA - COMARCA; BOA ESPERANCA-PJ-01PJ 5.006,87 0,00 0,00 1.633,87 0,00 0,00 6.640,74 550,76 318,80 0,00 869,56 5.771,18 920,50 0,00 31/12/2014
523 298100 CLEONICE AUGUSTA BARROS DE OLIVEIRA ANALISTA DO MP ATIVO JUIZ DE FORA - COMARCA; JUIZ DE FORA-PJ-08PJ 10.638,28 2.127,66 0,00 2.621,94 0,00 0,00 15.387,88 1.537,09 2.298,31 0,00 3.835,40 11.552,48 685,50 1.207,62 31/12/2014
524 60200 CLERES DE ALMEIDA AGENTE DO MP ATIVO BELO HORIZONTE - COMARCA; EXTINTA - DIVISAO DE TRANSPORTES 4.404,59 3.523,68 0,00 2.076,57 2.642,76 0,00 12.647,60 1.066,45 2.174,61 0,00 3.241,06 9.406,54 685,50 1.766,70 31/12/2014
525 114300 CLERES PEREIRA DA SILVA JUNIOR ASSESSOR ATIVO BELO HORIZONTE - COMARCA; GAECO - SECRETARIA 0,00 1.575,53 3.938,84 2.347,94 1.838,12 0,00 9.700,43 965,86 1.103,23 0,00 2.069,09 7.631,34 685,50 0,00 31/12/2014
526 264100 CLETO HENRIQUE ANDRADE SILVA ANALISTA DO MP ATIVO BELO HORIZONTE - COMARCA; DIRETORIA DE SISTEMAS DE INFORMACAO 10.984,62 2.196,92 0,00 3.493,03 0,00 0,00 16.674,57 1.574,25 2.528,29 0,00 4.102,54 12.572,03 3.173,75 1.357,89 31/12/2014
527 334400 CLEUBA DE OLIVEIRA BARCELOS GONCALVES OFICIAL DO MP ATIVO DIVINÓPOLIS - COMARCA; COORD REG SAUDE MACRORREGIAO SANITARIA OESTE 6.068,01 606,80 0,00 1.999,73 2.224,94 0,00 10.899,48 734,23 1.320,53 0,00 2.054,76 8.844,72 685,50 0,00 31/12/2014
528 347500 CLEUSA CORDEIRO DA MATA PIMENTA OFICIAL DO MP ATIVO CAMPO BELO - COMARCA; CAMPO BELO-PJ-04PJ 5.876,69 4.113,69 0,00 2.330,34 3.330,13 0,00 15.650,85 1.202,86 2.435,94 0,00 3.638,80 12.012,05 685,50 944,79 31/12/2014
529 510200 CLEZIO SALES SILVA OFICIAL DO MP ATIVO BRASÓPOLIS - COMARCA; BRASOPOLIS-PJ-UNPJ 3.355,81 201,35 0,00 1.629,18 0,00 0,00 5.186,34 391,29 139,85 0,00 531,14 4.655,20 697,37 0,59 31/12/2014
530 323000 CLOTILDE DE PADUA VIEIRA OFICIAL DO MP ATIVO BELO HORIZONTE - COMARCA; CGMP-DIVISAO DE APOIO ADMINISTRATIVO 4.265,74 426,57 0,00 1.465,24 0,00 0,00 6.157,55 564,99 336,68 0,00 901,67 5.255,88 685,50 444,03 31/12/2014
531 285200 CLOVIS ANDRE LUDTKE OFICIAL DO MP ATIVO BELO HORIZONTE - COMARCA; DIVISAO DE MANUTENCAO PREDIAL 6.469,61 1.293,92 0,00 1.953,80 2.587,84 0,00 12.305,17 853,99 1.785,63 0,00 2.639,62 9.665,55 685,50 0,00 31/12/2014
532 381100 CONCEICAO APARECIDA TEIXEIRA ARANTES ANALISTA DO MP ATIVO BELO HORIZONTE - COMARCA; BH-23PJ INFRACIONAL-ASS JURIDICA 7.014,37 701,44 0,00 1.996,29 2.571,94 0,00 12.284,04 848,74 1.720,16 0,00 2.568,90 9.715,14 1.769,70 99,39 31/12/2014
533 249900 CONSTANTINO CEZAR GOMES MOTA OFICIAL DO MP ATIVO MONTES CLAROS - COMARCA; COORD REG BACIA RIOS VERDE GRANDE E PARDO 4.696,06 939,21 0,00 1.694,09 1.878,42 0,00 9.207,78 619,88 1.020,23 0,00 1.640,11 7.567,67 685,50 0,00 31/12/2014
534 481000 CRISHMA ANALIA LOMBELLO ANALISTA DO MP ATIVO JUIZ DE FORA - COMARCA; JUIZ DE FORA-PJ-13PJ 6.265,58 375,93 0,00 1.840,24 2.213,84 0,00 10.695,59 730,57 1.358,74 0,00 2.089,31 8.606,28 685,50 0,00 31/12/2014
535 187500 CRISLEY PATRICK TOSTES OFICIAL DO MP ATIVO JUIZ DE FORA - COMARCA; JUIZ DE FORA-PJ-21PJ 9.358,72 2.807,62 0,00 2.457,37 0,00 0,00 14.623,71 1.544,20 2.151,56 0,00 3.695,76 10.927,95 685,50 1.871,74 31/12/2014
536 523900 CRISTHYANE BAZOLI COSTA GUEDES OFICIAL DO MP ATIVO BELO HORIZONTE - COMARCA; BH-23PJ CIVEL-SEC EXP CIVEIS 3.577,90 0,00 0,00 1.416,69 0,00 0,00 4.994,59 413,82 167,19 0,00 581,01 4.413,58 685,50 184,08 31/12/2014
537 187000 CRISTIAN DAYVSON EVANGELISTA OFICIAL DO MP ATIVO JUIZ DE FORA - COMARCA; JUIZ DE FORA-PJ-09PJ 8.501,02 2.550,31 0,00 7.250,39 3.683,78 0,00 21.985,50 1.508,80 2.842,28 0,00 4.351,08 17.634,42 685,50 2.665,00 31/12/2014
538 319800 CRISTIANA GONCALVES DOS SANTOS GUSMAO OFICIAL DO MP ATIVO BELO HORIZONTE - COMARCA; BH-14PJ DEFESA CONSUMIDOR-SECRETARIA 5.876,69 587,67 0,00 1.735,50 2.154,79 0,00 10.354,65 778,33 1.348,57 0,00 2.126,90 8.227,75 685,50 611,34 31/12/2014
539 520600 CRISTIANA JANAINA BARBOZA JUVENCIO DOS SANTOS ANALISTA DO MP ATIVO BELO HORIZONTE - COMARCA; EXTINTA - JUIZO DE FAMILIA-02 PJ-02 VARA 6.068,01 0,00 0,00 1.707,52 2.022,67 0,00 9.798,20 667,48 1.215,23 0,00 1.882,71 7.915,49 685,50 0,00 31/12/2014
540 195600 CRISTIANA SOARES HALABI OFICIAL DO MP ATIVO UBERABA - COMARCA; UBERABA-PJ-11PJ 8.233,02 2.469,91 0,00 2.215,91 0,00 0,00 12.918,84 1.461,25 1.793,39 0,00 3.254,64 9.664,20 685,50 2.581,22 31/12/2014
541 218900 CRISTIANE ALVES BELLES OFICIAL DO MP ATIVO JUIZ DE FORA - COMARCA; JUIZ DE FORA-PJ-10PJ 4.696,06 939,21 0,00 1.743,51 1.878,42 0,00 9.257,20 619,88 970,81 0,00 1.590,69 7.666,51 685,50 0,00 31/12/2014
542 263600 CRISTIANE CARVALHO COUTINHO OFICIAL DO MP ATIVO BELO HORIZONTE - COMARCA; BH-23PJ INFRACIONAL-SEC EXP 6.469,61 1.293,92 0,00 2.003,22 0,00 0,00 9.766,75 853,99 1.024,55 0,00 1.878,54 7.888,21 920,50 0,00 31/12/2014
543 541000 CRISTIANE COELHO ALVES OFICIAL DO MP ATIVO ITABIRA - COMARCA; ITABIRA-PJ-01PJ 2.952,15 0,00 0,00 2.577,91 0,00 0,00 5.530,06 324,74 49,50 0,00 374,24 5.155,82 685,50 0,00 31/12/2014
544 441700 CRISTIANE CORRADO DE ANDRADE ANALISTA DO MP ATIVO BELO HORIZONTE - COMARCA; DIRETORIA DE SISTEMAS DE INFORMACAO 7.014,37 701,44 0,00 2.204,41 2.571,94 0,00 12.492,16 848,74 1.769,58 0,00 2.618,32 9.873,84 685,50 0,00 31/12/2014
545 375100 CRISTIANE DAS DORES ERCIO DE LIMA OFICIAL DO MP ATIVO GOVERNADOR VALADARES - COMARCA; COOR REG INCLUSAO MOBILIZ VALE DO RIO DOCE 4.548,03 454,80 0,00 1.552,24 0,00 0,00 6.555,07 550,31 398,86 0,00 949,17 5.605,90 685,50 0,00 31/12/2014
546 631600 CRISTIANE DE FREITAS NEVES OFICIAL DO MP ATIVO IPATINGA - COMARCA; IPATINGA-PJ-SECRETARIA 2.859,08 0,00 0,00 0,00 0,00 0,00 2.859,08 382,64 56,76 0,00 439,40 2.419,68 810,14 593,26 31/12/2014
547 178800 CRISTIANE DE LIMA HOSKEN OFICIAL DO MP ATIVO BELO HORIZONTE - COMARCA; BH-14PJ DEFESA CONSUMIDOR-GAB 113PJ 9.358,72 2.807,62 0,00 3.004,67 4.055,45 0,00 19.226,46 1.712,56 3.118,55 0,00 4.831,11 14.395,35 685,50 3.402,33 31/12/2014
548 494000 CRISTIANE DE MELO MARQUEZ OLIVEIRA ANALISTA DO MP ATIVO UBERLÂNDIA - COMARCA; UBERLANDIA-PJ-06PJ 6.265,58 375,93 0,00 2.077,57 2.213,84 0,00 10.932,92 793,19 1.547,50 0,00 2.340,69 8.592,23 685,50 569,30 31/12/2014
549 266100 CRISTIANE DE OLIVEIRA CASTRO OFICIAL DO MP ATIVO BELO HORIZONTE - COMARCA; PROCON-MG-SECRETARIA DE FISCALIZACOES 6.793,15 2.466,95 0,00 2.486,94 0,00 0,00 11.747,04 896,70 1.374,94 0,00 2.271,64 9.475,40 920,50 41.401,55 31/12/2014
550 329500 CRISTIANE DOS REIS SILVA OFICIAL DO MP ATIVO ARAXÁ - COMARCA; ARAXA-PJ-04PJ 4.696,06 469,61 0,00 1.664,01 1.721,89 0,00 8.551,57 568,22 812,83 0,00 1.381,05 7.170,52 920,50 0,00 31/12/2014
551 301600 CRISTIANE GODINHO PIRES ANALISTA DO MP ATIVO BETIM - COMARCA; BETIM-PJ-07PJ 10.302,83 2.060,57 0,00 2.457,37 0,00 0,00 14.820,77 1.733,83 2.199,79 0,00 3.933,62 10.887,15 685,50 3.398,79 31/12/2014
552 406100 CRISTIANE GONCALVES CHAVES ANALISTA DO MP ATIVO BELO HORIZONTE - COMARCA; BH-09PJ AUDITORIA MILITAR-SECRETARIA 8.233,02 1.646,60 0,00 2.215,91 3.293,21 0,00 15.388,74 1.189,57 2.497,52 0,00 3.687,09 11.701,65 685,50 934,62 31/12/2014
553 487600 CRISTIANE LOPES DE OLIVEIRA OFICIAL DO MP ATIVO CARMO DA MATA - COMARCA; CARMO DA MATA-PJ-SECRETARIA 3.694,41 221,66 0,00 3.324,49 0,00 0,00 7.240,56 430,77 160,81 0,00 591,58 6.648,98 685,50 0,00 31/12/2014
554 502500 CRISTIANE MACIEL DE OLIVEIRA GOMES ANALISTA DO MP ATIVO JUIZ DE FORA - COMARCA; JUIZ DE FORA-PJ-05PJ 6.265,58 375,93 0,00 5.111,58 0,00 0,00 11.753,09 730,57 799,36 0,00 1.529,93 10.223,16 1.125,12 40,30 31/12/2014
555 285500 CRISTIANE MAGALHAES LOURENCO ANALISTA DO MP ATIVO BELO HORIZONTE - COMARCA; CENTRAL DE APOIO TECNICO-SETOR CONTABIL 9.977,95 1.995,59 0,00 2.852,89 3.991,18 0,00 18.817,61 1.317,09 3.103,11 0,00 4.420,20 14.397,41 685,50 0,00 31/12/2014
556 536500 CRISTIANE MICHELE DE SOUZA ANALISTA DO MP ATIVO BARÃO DE COCAIS - COMARCA; BARAO DE COCAIS-PJ-UNPJ 5.006,87 0,00 0,00 1.593,44 0,00 0,00 6.600,31 550,76 359,23 0,00 909,99 5.690,32 920,50 0,00 31/12/2014
557 346600 CRISTIANE NOGUEIRA ANDRADE ANALISTA DO MP ATIVO BELO HORIZONTE - COMARCA; CENTRAL DE APOIO TECNICO-SETOR CONTABIL 9.358,72 935,87 0,00 2.321,44 0,00 0,00 12.616,03 1.132,40 1.693,45 0,00 2.825,85 9.790,18 1.155,50 0,00 31/12/2014
558 234000 CRISTIANE OLIVEIRA TOSTES OFICIAL DO MP ATIVO JUIZ DE FORA - COMARCA; JUIZ DE FORA-PJ-08PJ 8.233,02 1.646,60 0,00 2.215,91 3.293,21 0,00 15.388,74 1.189,57 2.497,52 0,00 3.687,09 11.701,65 685,50 934,62 31/12/2014
559 445800 CRISTIANE ORZIL COSTA OFICIAL DO MP ATIVO SANTA LUZIA - COMARCA; SANTA LUZIA-PJ-05PJ 3.694,41 369,44 0,00 3.297,53 0,00 0,00 7.361,38 479,54 210,83 0,00 690,37 6.671,01 685,50 295,56 31/12/2014
560 616100 CRISTIANE PAES RODRIGUES MARCICANO ANALISTA DO MP ATIVO CATAGUASES - COMARCA; CATAGUASES-PJ-05PJ 4.404,59 0,00 0,00 1.817,37 0,00 0,00 6.221,96 484,50 279,06 0,00 763,56 5.458,40 685,50 0,00 31/12/2014
561 612300 CRISTIANE RIBEIRO DOS REIS ARCANJO OFICIAL DO MP ATIVO BELO HORIZONTE - COMARCA; BH-17PJ PATRIMONIO PUBLICO-SECRETARIA 2.859,08 0,00 0,00 1.262,95 0,00 0,00 4.122,03 314,50 43,29 0,00 357,79 3.764,24 685,50 0,00 31/12/2014
562 215000 CRISTIANE RODRIGUES DE CARVALHO ASSESSOR ATIVO BELO HORIZONTE - COMARCA; BH-14PJ DEFESA CONSUMIDOR-GAB 005PJ 0,00 1.181,65 3.938,84 2.111,06 1.706,83 0,00 8.938,38 965,86 1.107,07 0,00 2.072,93 6.865,45 685,50 0,00 31/12/2014
563 257700 CRISTIANE RODRIGUES PAES NUNES ANALISTA DO MP ATIVO BELO HORIZONTE - COMARCA; BH-22PJ PES COM DEF E IDOSOS-ORIENTACAO PSIC 10.638,28 2.127,66 0,00 2.729,83 4.255,31 0,00 19.751,08 1.524,63 3.686,93 0,00 5.211,56 14.539,52 685,50 1.094,30 31/12/2014
564 510800 CRISTIANE SANTOS FERNANDES ORNELES ANALISTA DO MP ATIVO BELO HORIZONTE - COMARCA; COORD ESTADUAL DAS PJS DE HAB. E URBANISMO 6.265,58 375,93 0,00 5.025,88 0,00 0,00 11.667,39 799,68 749,94 0,00 1.549,62 10.117,77 685,50 628,26 31/12/2014
565 535700 CRISTIANE SANTOS MIRANDA OFICIAL DO MP ATIVO BETIM - COMARCA; BETIM-PJ-02PJ 3.250,03 0,00 0,00 1.195,62 0,00 0,00 4.445,65 357,50 71,89 0,00 429,39 4.016,26 685,50 0,00 31/12/2014
566 536200 CRISTIANO DE OLIVEIRA ANALISTA DO MP ATIVO CONCEIÇÃO DO MATO DENTRO - COMARCA; CONCEICAO DO MATO DENTRO-PJ-UNPJ 5.006,87 0,00 0,00 1.553,01 0,00 0,00 6.559,88 550,76 399,66 0,00 950,42 5.609,46 685,50 0,00 31/12/2014
567 477400 CRISTIANO SOARES ELEUTERIO ANALISTA DO MP ATIVO BELO HORIZONTE - COMARCA; BH-17PJ PATRIMONIO PUBLICO 6.265,58 375,93 0,00 1.790,82 0,00 0,00 8.432,33 730,57 799,36 0,00 1.529,93 6.902,40 3.873,42 292,23 31/12/2014
568 449400 CRISTIANO TEIXEIRA RODRIGUES LANA ANALISTA DO MP ATIVO BELO HORIZONTE - COMARCA; ASSESS TECNICO-JUR JUNTO AS PROC. DE JUST 6.793,15 407,59 0,00 1.872,06 2.400,25 0,00 11.473,05 792,08 1.596,30 0,00 2.388,38 9.084,67 685,50 0,00 31/12/2014
569 239400 CRISTINA DE FATIMA CRUZ E SILVA OFICIAL DO MP ATIVO MONTE SANTO DE MINAS - COMARCA; MONTE SANTO DE MINAS-PJ-SECRETARIA 7.014,37 1.402,87 0,00 2.010,19 0,00 0,00 10.427,43 1.095,37 1.410,56 0,00 2.505,93 7.921,50 4.052,40 1.849,31 31/12/2014
570 544000 CRISTINA DE OLIVEIRA TERRA ANALISTA DO MP ATIVO MATOZINHOS - COMARCA; MATOZINHOS-PJ-02PJ 4.548,03 0,00 0,00 3.739,97 0,00 0,00 8.288,00 500,28 307,78 0,00 808,06 7.479,94 685,50 0,00 31/12/2014
571 356800 CRISTINA DE PINHO BARROSO OFICIAL DO MP ATIVO SABINÓPOLIS - COMARCA; SABINOPOLIS-PJ-UNPJ 4.696,06 939,21 0,00 2.001,70 0,00 0,00 7.636,97 619,88 454,24 0,00 1.074,12 6.562,85 685,50 0,00 31/12/2014
572 449100 CRISTINA KISTEMANN CHIODI ASSESSOR ATIVO BELO HORIZONTE - COMARCA; COORD-GERAL DAS PJS POR BACIA HIDRO. DE MG 0,00 0,00 8.777,78 2.989,26 0,00 0,00 11.767,04 965,86 1.643,45 0,00 2.609,31 9.157,73 685,50 0,00 31/12/2014
573 348201 CRISTINA MARIA DA SILVA ANALISTA DO MP ATIVO PATOS DE MINAS - COMARCA; PATOS DE MINAS-PJ-02PJ 6.578,93 394,74 0,00 1.839,07 0,00 0,00 8.812,74 767,10 880,66 0,00 1.647,76 7.164,98 685,50 0,00 31/12/2014
574 434900 CRISTINA MELO DE MADUREIRA ANALISTA DO MP ATIVO BELO HORIZONTE - COMARCA; CAO-CRIMINAL-SECRETARIA 7.014,37 701,44 0,00 2.204,41 0,00 0,00 9.920,22 848,74 1.062,29 0,00 1.911,03 8.009,19 920,50 0,00 31/12/2014
575 117100 CRISTINA PEDROSA GARABINI COORDENADOR/ANALISTA ATIVO BELO HORIZONTE - COMARCA; DIRET DE INFORMACAO E CONHECIMENTO-DINC/CEAF 17.524,60 11.234,98 0,00 4.811,29 0,00 0,00 33.570,87 2.891,56 5.591,99 2.169,90 10.653,45 22.917,42 685,50 0,00 31/12/2014
576 307700 CRISTINA TEIXEIRA MARQUES OFICIAL DO MP ATIVO BELO HORIZONTE - COMARCA; CENTRAL DE APOIO TECNICO-SECRETARIA 5.169,86 1.033,97 0,00 1.727,25 2.067,94 0,00 9.999,02 682,42 1.260,92 0,00 1.943,34 8.055,68 685,50 0,00 31/12/2014
577 265300 CRISTOVAO SANCHES DE MEDEIROS ANALISTA DO MP ATIVO BELO HORIZONTE - COMARCA; BH-02PJ FAMILIA-SECRETARIA 9.663,38 1.932,68 0,00 2.559,90 0,00 0,00 14.155,96 1.275,57 1.962,56 0,00 3.238,13 10.917,83 685,50 0,00 31/12/2014
578 349800 CROZEIR LUIZ DA SILVA OFICIAL DO MP ATIVO UNAÍ - COMARCA; UNAI-PJ-SECRETARIA 5.511,94 551,19 0,00 1.728,46 2.021,04 0,00 9.812,63 730,03 1.164,17 0,00 1.894,20 7.918,43 1.700,54 573,60 31/12/2014
579 490500 CYNTHIA CRISTINA DE SOUZA OLIVEIRA VALENTE ANALISTA DO MP ATIVO BELO HORIZONTE - COMARCA; BH-09PJ AUDITORIA MILITAR 6.265,58 375,93 0,00 5.111,58 2.213,84 0,00 13.966,93 730,57 1.408,16 0,00 2.138,73 11.828,20 920,50 0,00 31/12/2014
580 389800 CYNTHIA GARIGLIO DOS SANTOS OFICIAL DO MP ATIVO PERDIZES - COMARCA; PERDIZES-PJ-SECRETARIA 4.131,19 413,12 0,00 1.546,11 0,00 0,00 6.090,42 499,87 226,17 0,00 726,04 5.364,38 920,50 0,00 31/12/2014
581 335101 CYNTHIA GONTIJO D ASSUNCAO ANALISTA DO MP ATIVO BELO HORIZONTE - COMARCA; PROC. JUSTICA DIR. DIFUSOS E COLETIVOS-SEC 6.265,58 375,93 0,00 1.790,82 0,00 0,00 8.432,33 730,57 799,36 0,00 1.529,93 6.902,40 685,50 0,00 31/12/2014
582 154000 CYNTHIA LOPES DOS SANTOS LAGES ASSESSOR ATIVO BELO HORIZONTE - COMARCA; PROCURADOR-GERAL DE JUSTICA- GABINETE 0,00 5.151,41 10.302,83 3.586,02 5.151,41 0,00 24.191,67 1.699,97 4.372,91 0,00 6.072,88 18.118,79 685,50 0,00 31/12/2014
583 269700 CYNTIA ROCHA CAVALCANTI OFICIAL DO MP ATIVO UBERLÂNDIA - COMARCA; UBERLANDIA-PJ-06PJ 6.793,15 1.358,63 0,00 2.138,72 0,00 0,00 10.290,50 1.050,41 1.511,01 0,00 2.561,42 7.729,08 685,50 1.397,40 31/12/2014
584 278000 DAIRTON LOPES MARTINS FILHO COORDENADOR/ANALISTA ATIVO BELO HORIZONTE - COMARCA; DIRETORIA DE SISTEMAS DE INFORMACAO 0,00 2.060,57 10.302,83 2.868,92 4.121,13 0,00 19.353,45 1.019,30 3.426,79 0,00 4.446,09 14.907,36 685,50 0,00 31/12/2014
585 392700 DALIANA CHAVES SILVA OFICIAL DO MP ATIVO ITAÚNA - COMARCA; ITAUNA-PJ-SECRETARIA 5.006,87 500,69 0,00 1.600,89 1.835,85 0,00 8.944,30 663,14 1.026,68 0,00 1.689,82 7.254,48 685,50 521,04 31/12/2014
586 558101 DALLEY TASSIA SILVA ANALISTA DO MP ATIVO MORADA NOVA DE MINAS - COMARCA; MORADA NOVA DE MINAS-PJ-UNPJ 4.848,98 0,00 0,00 3.668,83 0,00 0,00 8.517,81 533,39 368,05 0,00 901,44 7.616,37 685,50 0,00 31/12/2014
587 476700 DALTON DAUD ANALISTA DO MP ATIVO ARAGUARI - COMARCA; ARAGUARI-PJ-05PJ 6.265,58 375,93 0,00 1.889,66 2.213,84 0,00 10.745,01 730,57 1.309,32 0,00 2.039,89 8.705,12 685,50 0,00 31/12/2014
588 548700 DALVA DE SOUZA ROCHA ALMEIDA OFICIAL DO MP ATIVO IPATINGA - COMARCA; IPATINGA-PJ-01PJ 3.250,03 0,00 0,00 1.418,31 1.083,34 0,00 5.751,68 357,50 210,74 0,00 568,24 5.183,44 685,50 0,00 31/12/2014
589 426900 DANIEL ALVES DA SILVA OFICIAL DO MP ATIVO BELO HORIZONTE - COMARCA; EXTINTA - PROTOCOLO DA PGJ 3.814,70 381,47 0,00 1.781,67 0,00 0,00 5.977,84 461,58 171,25 0,00 632,83 5.345,01 920,50 0,00 31/12/2014
590 122000 DANIEL ANTONIO VIEIRA OFICIAL DO MP ATIVO ENTRE-RIOS DE MINAS - COMARCA; ENTRE RIOS DE MINAS-PJ-SECRETARIA 7.721,95 3.860,98 0,00 8.547,14 0,00 0,00 20.130,07 1.274,12 1.761,67 0,00 3.035,79 17.094,28 685,50 0,00 31/12/2014
591 272401 DANIEL AUGUSTO DOS REIS ANALISTA DO MP ATIVO BELO HORIZONTE - COMARCA; BH-22PJ PES COM DEF E IDOSOS-ASS JURIDICA 8.233,02 823,30 0,00 6.485,47 3.018,77 0,00 18.560,56 1.090,44 2.220,54 0,00 3.310,98 15.249,58 685,50 856,74 31/12/2014
592 536301 DANIEL BATISTA MARIANO ANALISTA DO MP ATIVO CURVELO - COMARCA; CURVELO-PJ-05PJ 4.404,59 0,00 0,00 0,00 0,00 0,00 4.404,59 718,68 279,06 0,00 997,74 3.406,85 1.061,09 2.088,51 31/12/2014
593 411000 DANIEL FERREIRA DA SILVA ANALISTA DO MP ATIVO GOVERNADOR VALADARES - COMARCA; GOVERNADOR VALADARES-PJ-15PJ 7.014,37 1.402,87 0,00 2.147,59 0,00 0,00 10.564,83 925,90 1.135,13 0,00 2.061,03 8.503,80 4.465,79 324,98 31/12/2014
594 309000 DANIEL GOMES DOS SANTOS ANALISTA DO MP ATIVO POÇOS DE CALDAS - COMARCA; POCOS DE CALDAS-PJ-03PJ 9.063,59 1.812,72 0,00 2.356,12 0,00 0,00 13.232,43 1.309,57 1.835,83 0,00 3.145,40 10.087,03 920,50 1.028,91 31/12/2014
595 554500 DANIEL GOMES PEREIRA OFICIAL DO MP ATIVO NANUQUE - COMARCA; NANUQUE-PJ-02PJ 2.952,15 0,00 0,00 1.134,89 0,00 0,00 4.087,04 352,58 92,87 0,00 445,45 3.641,59 940,22 253,10 31/12/2014
596 453000 DANIEL GONCALVES PEREIRA ANALISTA DO MP ATIVO UNAÍ - COMARCA; UNAI-PJ-02PJ 6.793,15 407,59 0,00 2.151,67 2.400,25 0,00 11.752,66 792,08 1.596,30 0,00 2.388,38 9.364,28 685,50 0,00 31/12/2014
597 495500 DANIEL GUIMARAES CABRAL OFICIAL DO MP ATIVO BELO HORIZONTE - COMARCA; BH-17PJ PATRIMONIO PUBLICO-SECRETARIA 3.355,81 201,35 0,00 1.401,00 0,00 0,00 4.958,16 391,29 139,85 0,00 531,14 4.427,02 685,50 0,00 31/12/2014
598 442900 DANIEL GUIMARAES GONCALVES ANALISTA DO MP ATIVO UBERLÂNDIA - COMARCA; UBERLANDIA-PJ-03PJ 7.014,37 701,44 0,00 2.047,39 2.571,94 0,00 12.335,14 929,04 1.769,58 0,00 2.698,62 9.636,52 685,50 730,02 31/12/2014
599 491200 DANIEL HENRIQUE SOUTO COSTA ANALISTA DO MP ATIVO CORAÇÃO DE JESUS - COMARCA; CORACAO DE JESUS-PJ-UNPJ 6.265,58 375,93 0,00 2.077,57 0,00 0,00 8.719,08 730,57 799,36 0,00 1.529,93 7.189,15 685,50 0,00 31/12/2014
600 464600 DANIEL PIACENTINI STIVANIN ANALISTA DO MP ATIVO ANDRADAS - COMARCA; ANDRADAS-PJ-02PJ 6.793,15 407,59 0,00 2.095,11 0,00 0,00 9.295,85 976,62 936,23 0,00 1.912,85 7.383,00 685,50 1.677,66 31/12/2014
601 417000 DANIEL QUEIROZ FERREIRA ANALISTA DO MP ATIVO SÃO SEBASTIÃO DO PARAÍSO - COMARCA; SAO SEBASTIAO DO PARAISO-PJ-05PJ 7.014,37 701,44 0,00 1.946,87 0,00 0,00 9.662,68 848,74 1.062,29 0,00 1.911,03 7.751,65 685,50 0,00 31/12/2014
602 396700 DANIEL SILVA CARNEVALLI DIRETOR/ANALISTA ATIVO BELO HORIZONTE - COMARCA; SUPERINTENDENCIA DE TECNOLOGIA DA INFORMACAO 0,00 1.335,40 13.353,95 3.431,78 4.896,45 0,00 23.017,58 1.059,02 4.268,71 0,00 5.327,73 17.689,85 685,50 0,00 31/12/2014
603 489300 DANIEL TABOZA ROCHA ANALISTA DO MP ATIVO IPATINGA - COMARCA; IPATINGA-PJ-08PJ 6.265,58 375,93 0,00 2.077,57 0,00 0,00 8.719,08 730,57 799,36 0,00 1.529,93 7.189,15 685,50 0,00 31/12/2014
604 414100 DANIEL TARDELI VALADAO ANALISTA DO MP ATIVO TRÊS CORACOES - COMARCA; TRES CORACOES-PJ-02PJ 7.014,37 701,44 0,00 2.902,39 0,00 0,00 10.618,20 848,74 1.062,29 0,00 1.911,03 8.707,17 1.310,73 57,31 31/12/2014
605 446600 DANIEL VIEIRA BUENO OFICIAL DO MP ATIVO RIO PIRACICABA - COMARCA; RIO PIRACICABA-PJ-UNPJ 4.000,95 400,10 0,00 1.407,69 1.467,02 0,00 7.275,76 519,32 654,44 0,00 1.173,76 6.102,00 685,50 320,08 31/12/2014
606 253200 DANIELA BATISTA LIMA BARBOSA ASSESSOR ATIVO BELO HORIZONTE - COMARCA; CENTRAL DE APOIO TECN-SETOR DE MEIO AMBIENTE 0,00 787,77 3.938,84 2.011,43 1.575,54 0,00 8.313,58 965,86 962,65 0,00 1.928,51 6.385,07 685,50 8.711,94 31/12/2014
607 505800 DANIELA BORGES DE MATTOS RESENDE ANALISTA DO MP ATIVO JUIZ DE FORA - COMARCA; JUIZ DE FORA-PJ-20PJ 6.265,58 375,93 0,00 2.077,57 0,00 0,00 8.719,08 730,57 799,36 0,00 1.529,93 7.189,15 920,50 0,00 31/12/2014
608 478000 DANIELA CARVALHO SOARES ANALISTA DO MP ATIVO SÃO JOÃO DEL REI - COMARCA; SAO JOAO DEL REI-PJ-01PJ 6.265,58 375,93 0,00 2.555,79 0,00 0,00 9.197,30 730,57 799,36 0,00 1.529,93 7.667,37 685,50 0,00 31/12/2014
609 275900 DANIELA CHAGAS SODRE ANALISTA DO MP ATIVO BELO HORIZONTE - COMARCA; CENTRAL DE APOIO TECNICO-SETOR CONTABIL 9.977,95 1.995,59 0,00 2.803,47 3.991,18 0,00 18.768,19 1.317,09 3.152,53 0,00 4.469,62 14.298,57 920,50 0,00 31/12/2014
610 234301 DANIELA CRUZ SOARES ANALISTA DO MP ATIVO BELO HORIZONTE - COMARCA; LAB TECNOLOGIA CONTRA LAVAGEM DINHEIRO 10.984,62 2.196,92 0,00 3.344,77 4.393,85 0,00 20.920,16 1.449,97 3.608,34 0,00 5.058,31 15.861,85 685,50 0,00 31/12/2014
611 301000 DANIELA DE ALMEIDA E OLIVEIRA ANALISTA DO MP ATIVO BELO HORIZONTE - COMARCA; DIRETORIA DE SISTEMAS DE INFORMACAO 9.977,95 1.995,59 0,00 2.754,05 0,00 0,00 14.727,59 1.317,09 2.104,37 0,00 3.421,46 11.306,13 685,50 0,00 31/12/2014
612 296000 DANIELA DE AZEVEDO SILVA ANALISTA DO MP ATIVO ITAJUBA - COMARCA; ITAJUBA-PJ-03PJ 10.302,83 2.060,57 0,00 2.457,37 0,00 0,00 14.820,77 1.733,83 2.199,79 0,00 3.933,62 10.887,15 685,50 3.398,79 31/12/2014
613 453500 DANIELA DE CASTRO SOUSA BARBOSA ANALISTA DO MP ATIVO BELO HORIZONTE - COMARCA; BH-08PJ JUIZADO ESPECIAL-SECRETARIA 6.793,15 407,59 0,00 2.151,67 2.400,25 0,00 11.752,66 927,89 1.898,47 0,00 2.826,36 8.926,30 685,50 1.234,60 31/12/2014
614 506000 DANIELA DE OLIVEIRA CAVALIERI ANALISTA DO MP ATIVO BELO HORIZONTE - COMARCA; BH-14PJ DEFESA CONSUMIDOR-GAB 005PJ 5.169,86 310,19 0,00 1.858,71 0,00 0,00 7.338,76 602,81 515,09 0,00 1.117,90 6.220,86 685,50 0,00 31/12/2014
615 546200 DANIELA DE VILHENA LEMES GONCALVES OFICIAL DO MP ATIVO TRÊS CORACOES - COMARCA; TRES CORACOES-PJ-05PJ 2.952,15 0,00 0,00 1.295,69 0,00 0,00 4.247,84 324,74 36,02 0,00 360,76 3.887,08 685,50 0,00 31/12/2014
616 356400 DANIELA LEAL FERRAZ ANALISTA DO MP ATIVO MONTES CLAROS - COMARCA; COORD REG PJ DEF EDUC DIR CRIANCA ADOL NORTE 8.501,02 850,10 0,00 2.141,58 3.117,04 0,00 14.609,74 1.125,91 2.319,72 0,00 3.445,63 11.164,11 685,50 884,40 31/12/2014
617 501000 DANIELA LOURENCO SANTOS DA SILVA GUIMARAES ANALISTA DO MP ATIVO BELO HORIZONTE - COMARCA; BH-12PJ JUIZO CRIMINAL 6.265,58 375,93 0,00 2.077,57 0,00 0,00 8.719,08 730,57 799,36 0,00 1.529,93 7.189,15 1.155,50 0,00 31/12/2014
618 195801 DANIELA MARIA DE OLIVEIRA QUEIROZ ANALISTA DO MP ATIVO ARAGUARI - COMARCA; ARAGUARI-PJ-06PJ 7.014,37 2.104,31 0,00 2.048,75 0,00 0,00 11.167,43 1.157,37 1.405,65 0,00 2.563,02 8.604,41 685,50 1.402,88 31/12/2014
619 511400 DANIELA MARIA LARA DE OLIVEIRA ANALISTA DO MP ATIVO BOA ESPERANÇA - COMARCA; BOA ESPERANCA-PJ-02PJ 5.691,44 341,49 0,00 2.429,48 0,00 0,00 8.462,41 726,41 600,99 0,00 1.327,40 7.135,01 685,50 570,81 31/12/2014
620 252101 DANIELA PAULA ALVES PENA ANALISTA DO MP ATIVO CONTAGEM - COMARCA; CONTAGEM-PJ-APO TECNICO 8.233,02 2.469,91 0,00 3.866,11 3.567,64 0,00 18.136,68 1.177,32 2.774,49 0,00 3.951,81 14.184,87 685,50 0,00 31/12/2014
621 604700 DANIELA PEIXOTO NOGUEIRA OFICIAL DO MP ATIVO BELO HORIZONTE - COMARCA; DIRET DE FORMACAO, APERFEIC. E POS-GRADUACAO 3.250,03 0,00 0,00 1.142,37 0,00 0,00 4.392,40 422,76 136,04 0,00 558,80 3.833,60 685,50 627,33 31/12/2014
622 429600 DANIELA PIMENTA NUNES MACHADO ANALISTA DO MP ATIVO BELO HORIZONTE - COMARCA; BH-05PJ JUÍZO DE SUCESSÕES 7.014,37 701,44 0,00 5.804,78 2.571,94 0,00 16.092,53 848,74 1.769,58 0,00 2.618,32 13.474,21 685,50 0,00 31/12/2014
623 424300 DANIELA PORTO PINTO OFICIAL DO MP ATIVO BELO HORIZONTE - COMARCA; EXTINTA-DEFESA DA SAUDE-19 PJ-GABINETE 3.577,90 357,79 0,00 1.656,19 1.311,90 0,00 6.903,78 432,93 497,88 0,00 930,81 5.972,97 685,50 0,00 31/12/2014
624 462000 DANIELA SOUSA GOMES DO AMARAL ANALISTA DO MP ATIVO BETIM - COMARCA; BETIM-PJ-03PJ 6.793,15 407,59 0,00 2.555,79 0,00 0,00 9.756,53 976,62 936,23 0,00 1.912,85 7.843,68 920,50 1.864,07 31/12/2014
625 427000 DANIELA TEIXEIRA DINIZ ANDRADE ANALISTA DO MP ATIVO BELO HORIZONTE - COMARCA; DIRETORIA DE PROJETOS DE EDIFICACOES 6.469,61 646,96 0,00 5.467,54 0,00 0,00 12.584,11 782,82 866,21 0,00 1.649,03 10.935,08 920,50 0,00 31/12/2014
626 337200 DANIELA TOLEDO SENIUK ANALISTA DO MP ATIVO BELO HORIZONTE - COMARCA; CGMP-SECRETARIA DA CORREGEDORIA-GERAL DO MP 7.721,95 772,20 0,00 3.178,21 2.831,38 0,00 14.503,74 934,36 1.982,00 0,00 2.916,36 11.587,38 920,50 0,00 31/12/2014
627 605600 DANIELE ALZIRA SILVA CABRAL MOREIRA OFICIAL DO MP ATIVO BELO HORIZONTE - COMARCA; BH-10PJ EXECUÇÃO PENAL 3.147,52 0,00 0,00 1.142,37 1.049,17 0,00 5.339,06 346,23 263,39 0,00 609,62 4.729,44 685,50 0,00 31/12/2014
628 195500 DANIELE CHAVES FONSECA OFICIAL DO MP ATIVO BELO HORIZONTE - COMARCA; ASSESSORIA ESPECIAL DO PGJ 9.063,59 2.719,08 0,00 7.844,09 3.927,56 0,00 23.554,32 1.495,49 3.137,74 0,00 4.633,23 18.921,09 685,50 1.812,72 31/12/2014
629 323400 DANIELE MEGALE SANTINI OFICIAL DO MP ATIVO BELO HORIZONTE - COMARCA; ASSESS TECNICO-JUR JUNTO AS PROC. DE JUST 6.265,58 626,56 0,00 1.784,92 0,00 0,00 8.677,06 966,55 811,28 0,00 1.777,83 6.899,23 685,50 1.894,65 31/12/2014
630 357900 DANIELE REJANE PINTO VERSIEUX OFICIAL DO MP ATIVO PEDRO LEOPOLDO - COMARCA; PEDRO LEOPOLDO-PJ-03PJ 5.691,44 569,14 0,00 1.652,16 2.086,86 0,00 9.999,60 942,43 1.411,35 0,00 2.353,78 7.645,82 685,50 2.307,00 31/12/2014
631 389500 DANIELE VASCONCELOS AMORIM OFICIAL DO MP ATIVO SÃO SEBASTIÃO DO PARAÍSO - COMARCA; SAO SEBASTIAO DO PARAISO-PJ-04PJ 5.169,86 516,99 0,00 1.626,12 0,00 0,00 7.312,97 684,71 565,71 0,00 1.250,42 6.062,55 685,50 537,87 31/12/2014
632 629700 DANIELLA BASTOS MARTINS BICALHO OFICIAL DO MP ATIVO GOVERNADOR VALADARES - COMARCA; GOVERNADOR VALADARES-PJ-15PJ 2.859,08 0,00 0,00 424,09 0,00 0,00 3.283,17 314,50 56,76 0,00 371,26 2.911,91 685,50 0,00 31/12/2014
633 265000 DANIELLE CASTANHEIRA SCALABRINI OFICIAL DO MP ATIVO BELO HORIZONTE - COMARCA; JUNTA RECURSAL DO PROCON ESTADUAL 5.876,69 1.175,34 0,00 1.998,72 0,00 0,00 9.050,75 775,72 751,57 0,00 1.527,29 7.523,46 685,50 0,00 31/12/2014
634 490100 DANIELLE DE AVILA SILVA LOPES ANALISTA DO MP ATIVO BELO HORIZONTE - COMARCA; PROC. JUSTICA DIR. DIFUSOS E COLETIVOS-SEC 6.265,58 1.253,12 0,00 2.036,78 2.506,23 0,00 12.061,71 827,06 1.703,26 0,00 2.530,32 9.531,39 685,50 0,00 31/12/2014
635 549600 DANIELLE GOMES LOPES RODRIGUES OFICIAL DO MP ATIVO ITABIRA - COMARCA; ITABIRA-PJ-03PJ 3.250,03 0,00 0,00 2.793,68 0,00 0,00 6.043,71 357,50 98,85 0,00 456,35 5.587,36 920,50 0,00 31/12/2014
636 613000 DANIELLE SILVA OLIVEIRA FRANKLIN OFICIAL DO MP ATIVO BELO HORIZONTE - COMARCA; DIRETORIA DE ADMINISTRACAO FINANCEIRA 3.147,52 0,00 0,00 2.293,40 0,00 0,00 5.440,92 346,23 85,16 0,00 431,39 5.009,53 685,50 0,00 31/12/2014
637 380800 DANILLO RIBEIRO ANTUNES ANALISTA DO MP ATIVO MONTES CLAROS - COMARCA; MONTES CLAROS-PJ-SECRETARIA 8.233,02 823,30 0,00 2.198,94 0,00 0,00 11.255,26 1.090,44 1.291,54 0,00 2.381,98 8.873,28 685,50 856,74 31/12/2014
638 453700 DANILO BOTELHO DE CARVALHO ASSESSOR/ANALISTA ATIVO BELO HORIZONTE - COMARCA; DIRETORIA DE ADMINISTRACAO FINANCEIRA 0,00 478,40 7.973,40 2.153,55 2.817,27 0,00 13.422,62 792,08 2.055,02 0,00 2.847,10 10.575,52 920,50 0,00 31/12/2014
639 391200 DANILO D'AVILA MENDES ANALISTA DO MP ATIVO SÃO ROMÃO - COMARCA; SAO ROMAO-PJ-UNPJ 8.233,02 823,30 0,00 2.100,10 3.018,77 0,00 14.175,19 1.090,44 2.220,54 0,00 3.310,98 10.864,21 685,50 856,74 31/12/2014
640 494900 DANILO GAVIAO AVELINO DE MELLO ANALISTA DO MP ATIVO POUSO ALEGRE - COMARCA; POUSO ALEGRE-PJ-08PJ 6.265,58 375,93 0,00 2.740,81 2.213,84 0,00 11.596,16 730,57 1.408,16 0,00 2.138,73 9.457,43 685,50 0,00 31/12/2014
641 604300 DANILO NASCIMENTO SALGADO ANALISTA DO MP ATIVO JANAÚBA - COMARCA; JANAUBA-PJ-01PJ 5.006,87 0,00 0,00 1.438,73 0,00 0,00 6.445,60 749,51 399,66 0,00 1.149,17 5.296,43 859,18 2.020,63 31/12/2014
642 600700 DANILO OLIVEIRA CARILLI OFICIAL DO MP ATIVO ARAGUARI - COMARCA; ARAGUARI-PJ-07PJ 2.952,15 0,00 0,00 2.564,43 0,00 0,00 5.516,58 324,74 62,98 0,00 387,72 5.128,86 685,50 0,00 31/12/2014
643 550800 DANTE MENDES BIANCHETTI FILHO ANALISTA DO MP ATIVO BARBACENA - COMARCA; BARBACENA-PJ-SECRETARIA 4.548,03 0,00 0,00 3.739,97 0,00 0,00 8.288,00 500,28 307,78 0,00 808,06 7.479,94 685,50 0,00 31/12/2014
644 298300 DANUZA MONICA DE SOUZA DINIZ ANALISTA DO MP ATIVO DIVINÓPOLIS - COMARCA; DIVINOPOLIS-PJ-02PJ 7.973,40 1.594,68 0,00 2.265,33 3.189,36 0,00 15.022,77 1.052,49 2.343,29 0,00 3.395,78 11.626,99 685,50 0,00 31/12/2014
645 398700 DARCY LUIZ MILEO GREGATTI OFICIAL DO MP ATIVO LAMBARI - COMARCA; LAMBARI-PJ-SECRETARIA 4.548,03 454,80 0,00 2.026,83 0,00 0,00 7.029,66 550,31 398,86 0,00 949,17 6.080,49 685,50 0,00 31/12/2014
646 406200 DARIANA AUGUSTA DE TOLEDO PATROCINIO ASSESSOR/OFICIAL ATIVO BELO HORIZONTE - COMARCA; EXTINTA - DIRETORIA DE CONTRATOS E CONVÊNIOS 0,00 797,34 7.973,40 2.360,34 0,00 0,00 11.131,08 664,99 1.402,93 0,00 2.067,92 9.063,16 685,50 0,00 31/12/2014
647 305000 DARLI LEITE DE OLIVEIRA OFICIAL DO MP ATIVO ARAÇUAÍ - COMARCA; ARACUAI-PJ-01PJ 4.696,06 939,21 0,00 1.792,93 1.878,42 0,00 9.306,62 726,14 1.157,82 0,00 1.883,96 7.422,66 920,50 966,00 31/12/2014
648 122200 DAVID RIBEIRO DOS SANTOS ANALISTA DO MP ATIVO BORDA DA MATA - COMARCA; BORDA DA MATA-PJ-UNPJ 14.432,31 10.102,61 0,00 4.389,85 8.178,31 0,00 37.103,08 2.721,97 7.479,28 0,00 10.201,25 26.901,83 685,50 210,30 31/12/2014
649 389400 DAWSON CANEDO MARQUES OFICIAL DO MP ATIVO GOVERNADOR VALADARES - COMARCA; GOVERNADOR VALADARES-PJ-03PJ 5.169,86 516,99 0,00 1.652,16 1.895,62 0,00 9.234,63 679,18 1.206,32 0,00 1.885,50 7.349,13 920,50 487,50 31/12/2014
650 537200 DAYANE TEIXEIRA DE OLIVEIRA ANALISTA DO MP ATIVO BONFINÓPOLIS DE MINAS - COMARCA; BONFINOPOLIS DE MINAS-PJ-UNPJ 5.006,87 0,00 0,00 1.782,43 0,00 0,00 6.789,30 550,76 399,66 0,00 950,42 5.838,88 685,50 0,00 31/12/2014
651 256100 DAYSE ROSALY PEREIRA BATISTA OFICIAL DO MP ATIVO BELO HORIZONTE - COMARCA; PROCON-MG-SECRETARIA DE FISCALIZACOES 5.169,86 2.142,29 0,00 1.948,22 2.437,38 0,00 11.697,75 746,96 1.667,31 0,00 2.414,27 9.283,48 685,50 43.263,26 31/12/2014
652 311901 DEBORA APARECIDA DA SILVA ASSESSOR ATIVO BELO HORIZONTE - COMARCA; BH-23PJ CIVEL-SETOR ATEND PUB 0,00 0,00 2.359,08 1.169,63 0,00 0,00 3.528,71 594,40 55,67 0,00 650,07 2.878,64 685,50 0,00 31/12/2014
653 194301 DEBORA APARECIDA DOS SANTOS ANALISTA DO MP ATIVO UBERLÂNDIA - COMARCA; UBERLANDIA-PJ-SEC FAMILIA 10.638,28 2.127,66 0,00 2.671,36 0,00 0,00 15.437,30 1.537,09 2.248,89 0,00 3.785,98 11.651,32 685,50 1.207,62 31/12/2014
654 518800 DEBORA CARVALHO FIORATTO OFICIAL DO MP ATIVO BELO HORIZONTE - COMARCA; EXTINTA - DIVISÃO DE APOIO À LICITAÇÃO 3.938,84 0,00 0,00 3.314,76 0,00 0,00 7.253,60 433,27 190,81 0,00 624,08 6.629,52 685,50 0,00 31/12/2014
655 444900 DEBORA CLAUDIA PEREIRA ALVES ANALISTA DO MP ATIVO BELO HORIZONTE - COMARCA; BH-08PJ JUIZADO ESPECIAL-SECRETARIA 7.014,37 701,44 0,00 2.886,84 0,00 0,00 10.602,65 929,04 1.062,29 0,00 1.991,33 8.611,32 920,50 730,02 31/12/2014
656 617700 DEBORA COMANDUCI SCHREIDER ANALISTA DO MP ATIVO BICAS - COMARCA; BICAS-PJ-UNPJ 4.404,59 0,00 0,00 2.262,76 0,00 0,00 6.667,35 484,50 238,63 0,00 723,13 5.944,22 920,50 0,00 31/12/2014
657 555700 DEBORA CRISTINA BUITRAGO PEREIRA ANALISTA DO MP ATIVO BELO HORIZONTE - COMARCA; EXTINTA - DIRETORIA DE CONTRATOS E CONVÊNIOS 5.006,87 0,00 0,00 1.631,96 0,00 0,00 6.638,83 550,76 399,66 0,00 950,42 5.688,41 685,50 0,00 31/12/2014
658 513100 DEBORA CRISTINA PEREIRA DE OLIVEIRA ANALISTA DO MP ATIVO BELO HORIZONTE - COMARCA; BH-23PJ CIVEL-SETOR JURIDICO 5.691,44 341,49 0,00 1.840,16 0,00 0,00 7.873,09 726,41 650,41 0,00 1.376,82 6.496,27 920,50 570,81 31/12/2014
659 612100 DEBORA DUARTE SILVA DE SOUZA OFICIAL DO MP ATIVO RIBEIRÃO DAS NEVES - COMARCA; RIBEIRAO DAS NEVES-PJ-06PJ 3.147,52 629,50 0,00 1.434,39 0,00 0,00 5.211,41 415,47 115,29 0,00 530,76 4.680,65 920,50 0,00 31/12/2014
660 539700 DEBORA SALES CARVALHO ANALISTA DO MP ATIVO PATOS DE MINAS - COMARCA; COORD REG PJ DEF EDU DIR CRI ADO AL PAR NOROE 5.006,87 0,00 0,00 1.465,95 0,00 0,00 6.472,82 651,70 399,66 0,00 1.051,36 5.421,46 685,50 917,68 31/12/2014
661 424100 DEBORA SANTOS E ALVES ANALISTA DO MP ATIVO JANUÁRIA - COMARCA; JANUARIA-PJ-01PJ 7.973,40 797,34 0,00 2.627,56 2.923,58 0,00 14.321,88 964,78 2.124,47 0,00 3.089,25 11.232,63 685,50 0,00 31/12/2014
662 426301 DEBORA SCUCATO MACHADO SOARES OFICIAL DO MP ATIVO NOVA LIMA - COMARCA; NOVA LIMA-PJ-01PJ 3.250,03 325,00 0,00 1.414,52 1.191,68 0,00 6.181,23 393,25 381,07 0,00 774,32 5.406,91 920,50 0,00 31/12/2014
663 550200 DEBORA TRINDADE LEITE ANALISTA DO MP ATIVO MANHUAÇU - COMARCA; MANHUACU-PJ-05PJ 5.006,87 0,00 0,00 2.226,89 0,00 0,00 7.233,76 550,76 318,80 0,00 869,56 6.364,20 685,50 0,00 31/12/2014
664 438000 DEBORAH COSTA LAGE ANALISTA DO MP ATIVO BELO HORIZONTE - COMARCA; ASSESS TECNICO-JUR JUNTO AS PROC. DE JUST 7.014,37 701,44 0,00 2.204,41 2.571,94 0,00 12.492,16 848,74 1.769,58 0,00 2.618,32 9.873,84 685,50 0,00 31/12/2014
665 475700 DEBORAH LOBAO LACERDA OFICIAL DO MP ATIVO BELO HORIZONTE - COMARCA; BH-23PJ INFRACIONAL 3.694,41 221,66 0,00 1.339,49 1.305,36 0,00 6.560,92 430,77 491,28 0,00 922,05 5.638,87 685,50 0,00 31/12/2014
666 613700 DEISER MARIA FERREIRA ROSCOE OFICIAL DO MP ATIVO BELO HORIZONTE - COMARCA; DIRETORIA DE PAGAMENTO DE PESSOAL-DPAG 3.147,52 0,00 0,00 1.290,60 0,00 0,00 4.438,12 346,23 85,16 0,00 431,39 4.006,73 685,50 0,00 31/12/2014
667 551900 DEISY ROCHA SILVA FREIRE ANALISTA DO MP ATIVO AREADO - COMARCA; AREADO-PJ-UNPJ 5.006,87 0,00 0,00 1.854,15 0,00 0,00 6.861,02 550,76 399,66 0,00 950,42 5.910,60 685,50 0,00 31/12/2014
668 501900 DELI RAQUEL RODRIGUES ANALISTA DO MP ATIVO ITUIUTABA - COMARCA; ITUIUTABA-PJ-04PJ 6.265,58 375,93 0,00 2.077,57 0,00 0,00 8.719,08 730,57 799,36 0,00 1.529,93 7.189,15 685,50 0,00 31/12/2014
669 378600 DELIANE LOPES VIEIRA BREIJAO NEVES ANALISTA DO MP ATIVO JUIZ DE FORA - COMARCA; JUIZ DE FORA-PJ-12PJ 8.233,02 823,30 0,00 2.149,52 0,00 0,00 11.205,84 1.090,44 1.340,96 0,00 2.431,40 8.774,44 920,50 856,74 31/12/2014
670 522500 DELMINDA MARIA LEAO E SILVA OFICIAL DO MP ATIVO ITAGUARA - COMARCA; ITAGUARA-PJ-UNPJ 3.250,03 2.275,02 0,00 1.628,66 0,00 0,00 7.153,71 607,76 526,10 0,00 1.133,86 6.019,85 685,50 0,00 31/12/2014
671 487700 DENIA FERREIRA MAIA SILVA OFICIAL DO MP ATIVO TRÊS CORACOES - COMARCA; TRES CORACOES-PJ-01PJ 3.694,41 221,66 0,00 1.428,20 1.305,36 0,00 6.649,63 430,77 441,86 0,00 872,63 5.777,00 685,50 0,00 31/12/2014
672 424800 DENIS APARECIDO CAMPOS DELFINO ANALISTA DO MP ATIVO LUZ - COMARCA; LUZ-PJ-UNPJ 7.014,37 701,44 0,00 2.144,55 2.571,94 0,00 12.432,30 848,74 1.571,90 0,00 2.420,64 10.011,66 920,50 0,00 31/12/2014
673 381400 DENISE ANGELICA MELLO DE PAULA OFICIAL DO MP ATIVO BELO HORIZONTE - COMARCA; BH-18PJ DIREITOS HUMANOS-SECRETARIA 5.169,86 516,99 0,00 1.652,16 0,00 0,00 7.339,01 625,55 565,71 0,00 1.191,26 6.147,75 685,50 0,00 31/12/2014
674 196300 DENISE DE ALMEIDA VILELA FURTADO OFICIAL DO MP ATIVO BELO HORIZONTE - COMARCA; CENTRAL DE APOIO TECNICO-SECRETARIA 7.014,37 2.104,31 0,00 2.059,61 0,00 0,00 11.178,29 1.244,97 1.356,23 0,00 2.601,20 8.577,09 685,50 2.287,75 31/12/2014
675 336900 DENISE DE SOUSA MORAES SILVA OFICIAL DO MP ATIVO MATEUS LEME - COMARCA; MATEUS LEME-PJ-02PJ 4.696,06 469,61 0,00 1.576,46 0,00 0,00 6.742,13 568,22 438,15 0,00 1.006,37 5.735,76 750,78 0,00 31/12/2014
676 271100 DENISE ELOY PEIXOTO OFICIAL DO MP ATIVO BELO HORIZONTE - COMARCA; DIRET DE DESENV DE RECURSOS HUMANOS-DDRH 6.793,15 1.358,63 0,00 2.138,72 2.717,26 0,00 13.007,76 896,70 1.916,24 0,00 2.812,94 10.194,82 685,50 0,00 31/12/2014
677 385400 DENISE FREITAS DE ASSIS OFICIAL DO MP ATIVO CARATINGA - COMARCA; CARATINGA-PJ-01PJ 5.006,87 1.609,01 0,00 1.949,11 0,00 0,00 8.564,99 663,14 727,77 0,00 1.390,91 7.174,08 859,18 536,96 31/12/2014
678 437100 DENISE NOGUEIRA MAGRI MENDES ANALISTA DO MP ATIVO BELO HORIZONTE - COMARCA; LAB TECNOLOGIA CONTRA LAVAGEM DINHEIRO 7.014,37 1.402,87 0,00 6.405,63 0,00 0,00 14.822,87 925,90 1.085,71 0,00 2.011,61 12.811,26 685,50 0,00 31/12/2014
679 524700 DENISE RAMOS GUIMARAES OFICIAL DO MP ATIVO SANTA LUZIA - COMARCA; SANTA LUZIA-PJ-SECRETARIA 3.577,90 0,00 0,00 1.252,76 0,00 0,00 4.830,66 393,57 142,62 0,00 536,19 4.294,47 685,50 0,00 31/12/2014
680 239100 DENISE RIBEIRO DOS SANTOS CAETANO OFICIAL DO MP ATIVO ITANHANDU - COMARCA; ITANHANDU-PJ-SECRETARIA 7.014,37 1.402,87 0,00 2.109,03 2.805,75 0,00 13.332,02 1.013,50 1.906,71 0,00 2.920,21 10.411,81 685,50 796,38 31/12/2014
681 325500 DENISE ROSA TORRES COORDENADOR/OFICIAL ATIVO BELO HORIZONTE - COMARCA; DIRETORIA DE PESSOAL ADMINISTRATIVO - DPAD 0,00 906,36 9.063,59 2.537,07 3.323,32 0,00 15.830,34 734,23 2.627,59 0,00 3.361,82 12.468,52 685,50 0,00 31/12/2014
682 437200 DENISE VIVIANE DOS SANTOS ANALISTA DO MP ATIVO BELO HORIZONTE - COMARCA; ASSESS TECNICA DA CORREGEDORIA-GERAL DO MP 7.014,37 701,44 0,00 2.204,41 0,00 0,00 9.920,22 848,74 1.062,29 0,00 1.911,03 8.009,19 685,50 0,00 31/12/2014
683 267900 DENISIA DE ALMEIDA SALES OFICIAL DO MP ATIVO BELO HORIZONTE - COMARCA; CAO-CRIMINAL-SECRETARIA 4.696,06 939,21 0,00 1.743,51 1.878,42 0,00 9.257,20 619,88 970,81 0,00 1.590,69 7.666,51 685,50 0,00 31/12/2014
684 480300 DESIREE ARANTES FERREIRA GOUVEA OFICIAL DO MP ATIVO PRATÁPOLIS - COMARCA; PRATAPOLIS-PJ-UNPJ 3.355,81 201,35 0,00 1.513,02 1.185,72 0,00 6.255,90 391,29 376,15 0,00 767,44 5.488,46 685,50 0,00 31/12/2014
685 355300 DEYSE CRISTINA MORAIS OFICIAL DO MP ATIVO PASSOS - COMARCA; PASSOS-PJ-02PJ 5.511,94 551,19 0,00 1.706,82 2.021,04 0,00 9.790,99 666,94 1.213,59 0,00 1.880,53 7.910,46 685,50 0,00 31/12/2014
686 523700 DIANA CAMPOS RESENDE OFICIAL DO MP ATIVO SÃO JOÃO DEL REI - COMARCA; SAO JOAO DEL REI-PJ-04PJ 3.938,84 1.575,54 0,00 1.725,96 0,00 0,00 7.240,34 606,58 424,65 0,00 1.031,23 6.209,11 685,50 0,00 31/12/2014
687 241900 DIANA CARDOSO MARTINS OFICIAL DO MP ATIVO BELO HORIZONTE - COMARCA; BH-09PJ AUDITORIA MILITAR 5.691,44 1.138,29 0,00 1.818,16 0,00 0,00 8.647,89 751,27 845,43 0,00 1.596,70 7.051,19 1.238,05 50,65 31/12/2014
688 410100 DIANA GORDILHO SILVEIRA SENA ANALISTA DO MP ATIVO BELO HORIZONTE - COMARCA; ASSESS TECNICO-JUR JUNTO AS PROC. DE JUST 7.973,40 797,34 0,00 2.627,56 2.923,58 0,00 14.321,88 964,78 2.124,47 0,00 3.089,25 11.232,63 685,50 0,00 31/12/2014
689 553000 DIANA MARIA MARQUES ANALISTA DO MP ATIVO BETIM - COMARCA; BETIM-PJ-12PJ 4.548,03 0,00 0,00 1.890,20 0,00 0,00 6.438,23 500,28 267,35 0,00 767,63 5.670,60 685,50 0,00 31/12/2014
690 520000 DIARLE TOSTE DOS SANTOS ANALISTA DO MP ATIVO RIO POMBA - COMARCA; RIO POMBA-PJ-UNPJ 6.068,01 0,00 0,00 4.790,95 0,00 0,00 10.858,96 667,48 609,58 0,00 1.277,06 9.581,90 920,50 0,00 31/12/2014
691 539800 DIEGO CAMARGOS RODRIGUES OFICIAL DO MP ATIVO CONTAGEM - COMARCA; CONTAGEM-PJ-09PJ 2.952,15 0,00 0,00 1.088,35 0,00 0,00 4.040,50 324,74 62,98 0,00 387,72 3.652,78 685,50 0,00 31/12/2014
692 607300 DIEGO CERVEIRA DE SOUZA ANALISTA DO MP ATIVO PATOS DE MINAS - COMARCA; COORD REG BACIAS PARACATU,URUCUIA E ABAETE 4.404,59 0,00 0,00 1.438,73 1.468,20 0,00 7.311,52 484,50 655,63 0,00 1.140,13 6.171,39 685,50 0,00 31/12/2014
693 446900 DIEGO DE FREITAS OFICIAL DO MP ATIVO UBERABA - COMARCA; UBERABA-PJ-06PJ 3.694,41 221,66 0,00 1.339,49 0,00 0,00 5.255,56 430,77 187,77 0,00 618,54 4.637,02 685,50 0,00 31/12/2014
694 379801 DIEGO OSORIO DA SILVA CORDEIRO ANALISTA DO MP ATIVO CONSELHEIRO LAFAIETE - COMARCA; CONSELHEIRO LAFAIETE-PJ-08PJ 5.006,87 0,00 0,00 1.553,01 0,00 0,00 6.559,88 550,76 399,66 0,00 950,42 5.609,46 685,50 0,00 31/12/2014
695 288800 DILENE NEPOMUCENO ALVES OFICIAL DO MP ATIVO BELO HORIZONTE - COMARCA; DIRETORIA DE PESSOAL ADMINISTRATIVO - DPAD 6.578,93 1.315,79 0,00 3.157,91 2.631,57 0,00 13.684,20 868,42 1.829,76 0,00 2.698,18 10.986,02 685,50 0,00 31/12/2014
696 270101 DILSON DO AMARAL ANALISTA DO MP ATIVO RIO CASCA - COMARCA; RIO CASCA-PJ-UNPJ 5.006,87 0,00 0,00 1.553,01 0,00 0,00 6.559,88 550,76 399,66 0,00 950,42 5.609,46 685,50 0,00 31/12/2014
697 466000 DIMITRI GUDE MARCIAL ANALISTA DO MP ATIVO NANUQUE - COMARCA; NANUQUE-PJ-02PJ 6.265,58 375,93 0,00 1.922,60 0,00 0,00 8.564,11 999,76 889,28 0,00 1.889,04 6.675,07 1.170,36 2.447,23 31/12/2014
698 516300 DINORA APARECIDA MACEDO BRANDAO ANALISTA DO MP ATIVO BELO HORIZONTE - COMARCA; ASSESS JUR DO CONS SUPERIOR DO MINISTERIO PUB 5.006,87 300,41 0,00 1.553,01 0,00 0,00 6.860,29 649,90 472,81 0,00 1.122,71 5.737,58 685,50 600,82 31/12/2014
699 511700 DIOGENES HENRIQUES PEREIRA LOURENCO ANALISTA DO MP ATIVO CONTAGEM - COMARCA; CONTAGEM-PJ-22PJ 6.265,58 375,93 0,00 1.942,45 0,00 0,00 8.583,96 799,68 799,36 0,00 1.599,04 6.984,92 769,27 635,94 31/12/2014
700 604100 DIOGO CESAR DE OLIVEIRA HONORIO ASSESSOR ATIVO PIUMHI - COMARCA; PIUMHI-PJ-02PJ 0,00 0,00 2.359,08 2.335,69 0,00 0,00 4.694,77 594,40 71,42 0,00 665,82 4.028,95 685,50 0,00 31/12/2014
701 387800 DIOGO FELIX DA SILVA OFICIAL DO MP ATIVO CONSELHEIRO PENA - COMARCA; CONSELHEIRO PENA-PJ-01PJ 4.131,19 413,12 0,00 1.465,24 0,00 0,00 6.009,55 499,87 307,04 0,00 806,91 5.202,64 685,50 0,00 31/12/2014
702 259600 DIOGO MESQUITA MAIA ANALISTA DO MP ATIVO BELO HORIZONTE - COMARCA; DIRET DE APOIO AS PROCURADORIAS DE JUSTICA 9.663,38 6.764,36 0,00 3.360,54 0,00 0,00 19.788,28 1.807,05 3.046,28 0,00 4.853,33 14.934,95 920,50 0,00 31/12/2014
703 364100 DIOGO OLIVEIRA CANUTO OFICIAL DO MP ATIVO BELO HORIZONTE - COMARCA; EXTINTA-04ª PJ JUÍZO REG PÚBLICOS-SECRETARIA 5.691,44 569,14 0,00 2.369,19 0,00 0,00 8.629,77 753,82 706,13 0,00 1.459,95 7.169,82 685,50 592,35 31/12/2014
704 386700 DIRCIMAR FERNANDES CARNEIRO OFICIAL DO MP ATIVO VISCONDE DO RIO BRANCO - COMARCA; VISCONDE DO RIO BRANCO-PJ-03PJ 5.169,86 2.584,93 0,00 1.917,02 0,00 0,00 9.671,81 933,71 1.071,83 0,00 2.005,54 7.666,27 760,52 733,47 31/12/2014
705 113800 DIRSON APARECIDO GUIMARAES ASSESSOR ATIVO BELO HORIZONTE - COMARCA; DIVISAO DE MANUTENCAO PREDIAL 0,00 3.151,07 3.938,84 3.017,52 0,00 0,00 10.107,43 965,86 715,95 0,00 1.681,81 8.425,62 1.394,16 64,96 31/12/2014
706 216700 DOMICIO VALDETE PEREIRA OFICIAL DO MP ATIVO TEÓFILO OTONI - COMARCA; COORD REG PJ DEF EDU DIR CRIAN ADOL JEQUI MUC 8.501,02 1.700,20 0,00 2.409,42 0,00 0,00 12.610,64 1.426,70 1.950,36 0,00 3.377,06 9.233,58 685,50 2.768,73 31/12/2014
707 85700 DONIZETTE PEREIRA DOS SANTOS OFICIAL DO MP ATIVO BELO HORIZONTE - COMARCA; EXTINTA - PROTOCOLO DA PGJ 16.215,23 11.350,66 0,00 4.787,14 0,00 0,00 32.353,03 2.924,86 5.582,84 976,21 9.483,91 22.869,12 4.230,79 324,99 31/12/2014
708 192701 DONIZETTI APARECIDO AMORIM ANALISTA DO MP ATIVO PRATÁPOLIS - COMARCA; PRATAPOLIS-PJ-UNPJ 5.169,86 1.033,97 0,00 1.776,67 0,00 0,00 7.980,50 682,42 642,82 0,00 1.325,24 6.655,26 685,50 0,00 31/12/2014
709 558700 DORCILIA FATIMA DE OLIVEIRA OFICIAL DO MP ATIVO DIVINÓPOLIS - COMARCA; DIVINOPOLIS-PJ-02PJ 3.250,03 0,00 0,00 1.246,88 1.083,34 0,00 5.580,25 357,50 251,18 0,00 608,68 4.971,57 920,50 0,00 31/12/2014
710 555300 DOUGLAS CUNHA DE SOUZA ANALISTA DO MP ATIVO VARZEA DA PALMA - COMARCA; VARZEA DA PALMA-PJ-01PJ 5.006,87 0,00 0,00 4.056,45 1.668,96 0,00 10.732,28 550,76 858,24 0,00 1.409,00 9.323,28 685,50 0,00 31/12/2014
711 265900 DOUGLAS GOMES MOREIRA ANALISTA DO MP ATIVO BELO HORIZONTE - COMARCA; CENTRAL DE APOIO TECNICO-SETOR DE ENGENHARIA 10.638,28 2.127,66 0,00 2.680,41 0,00 0,00 15.446,35 1.404,25 2.298,31 0,00 3.702,56 11.743,79 685,50 0,00 31/12/2014
712 241000 DOUGLAS MEIRELLES DE CASTRO OFICIAL DO MP ATIVO CONCEIÇÃO DO RIO VERDE - COMARCA; CONCEICAO DO RIO VERDE-PJ-UNPJ 7.242,73 2.172,82 0,00 2.724,06 3.138,52 0,00 15.278,13 1.035,71 2.242,56 0,00 3.278,27 11.999,86 920,50 0,00 31/12/2014
713 534900 DOUGLAS SILVA E SOUZA ANALISTA DO MP ATIVO CAMPOS GERAIS - COMARCA; CAMPOS GERAIS-PJ-SECRETARIA 5.006,87 0,00 0,00 1.593,44 0,00 0,00 6.600,31 550,76 359,23 0,00 909,99 5.690,32 685,50 0,00 31/12/2014
714 630700 DOUGLAS TAVEIRA LEMOS DE OLIVEIRA ANALISTA DO MP ATIVO BELO HORIZONTE - COMARCA; BH-18PJ VIOLENCIA DOMESTICA 4.848,98 0,00 0,00 653,35 0,00 0,00 5.502,33 583,90 356,18 0,00 940,08 4.562,25 685,50 459,21 31/12/2014
715 615600 DOUGLAS URIEL SOARES MOREIRA SILVA ANALISTA DO MP ATIVO IPATINGA - COMARCA; IPATINGA-PJ-01PJ 4.404,59 0,00 0,00 1.817,37 0,00 0,00 6.221,96 484,50 279,06 0,00 763,56 5.458,40 685,50 0,00 31/12/2014
716 146800 DUCINALVA AMARAL LOPES REIS OFICIAL DO MP ATIVO PARAISÓPOLIS - COMARCA; PARAISOPOLIS-PJ-UNPJ 10.638,28 5.319,14 0,00 3.169,71 5.319,14 0,00 24.446,27 1.921,37 4.443,35 0,00 6.364,72 18.081,55 920,50 1.509,54 31/12/2014
717 122500 DUILIO CARLOS FERREIRA UTSCH OFICIAL DO MP ATIVO CONCEIÇÃO DO MATO DENTRO - COMARCA; CONCEICAO DO MATO DENTRO-PJ-UNPJ 8.501,02 5.950,72 0,00 4.928,58 0,00 0,00 19.380,32 1.740,04 2.710,91 0,00 4.450,95 14.929,37 685,50 1.366,80 31/12/2014
718 201800 DULCINEIA ANDRE DE SOUZA OFICIAL DO MP ATIVO JEQUITINHONHA - COMARCA; JEQUITINHONHA-PJ-SECRETARIA 8.501,02 1.700,20 0,00 2.458,84 3.400,41 0,00 16.060,47 1.327,48 2.622,04 0,00 3.949,52 12.110,95 685,50 1.866,77 31/12/2014
719 395800 DUVIDIER MEDIRCIO JUNIOR ANALISTA DO MP ATIVO BELO HORIZONTE - COMARCA; CENTRAL DE APOIO TECNICO-SETOR DE ENGENHARIA 8.777,78 877,78 0,00 3.198,49 3.218,52 0,00 16.072,57 1.062,11 2.422,14 0,00 3.484,25 12.588,32 685,50 0,00 31/12/2014
720 604800 ECIA RAMILIS ISSA DE ABREU ANALISTA DO MP ATIVO MONTALVÂNIA - COMARCA; MONTALVANIA-PJ-UNPJ 4.404,59 0,00 0,00 1.820,51 0,00 0,00 6.225,10 484,50 279,06 0,00 763,56 5.461,54 685,50 0,00 31/12/2014
721 273000 EDELFINA APARECIDA GUIMARAES OFICIAL DO MP ATIVO BELO HORIZONTE - COMARCA; PROMOT ESTADUAL DE DEF PATRI CULT E TUR DE MG 5.876,69 2.350,68 0,00 6.184,28 2.742,46 0,00 17.154,11 905,01 1.892,26 0,00 2.797,27 14.356,84 685,50 0,00 31/12/2014
722 523300 EDER DOS SANTOS PATRICIO ANALISTA DO MP ATIVO NOVA SERRANA - COMARCA; NOVA SERRANA-PJ-03PJ 6.068,01 0,00 0,00 2.370,76 0,00 0,00 8.438,77 667,48 659,00 0,00 1.326,48 7.112,29 685,50 0,00 31/12/2014
723 356700 EDER JOSE PACHECO OFICIAL DO MP ATIVO CAMPO BELO - COMARCA; CAMPO BELO-PJ-SECRETARIA 5.691,44 569,14 0,00 2.432,90 2.086,86 0,00 10.780,34 688,66 1.280,01 0,00 1.968,67 8.811,67 1.147,83 0,00 31/12/2014
724 507900 EDERSON SILVA LOPES OFICIAL DO MP ATIVO BELO HORIZONTE - COMARCA; SERVICO MEDICO-DEPTO PERIC MEDICA SAUDE OCUP 3.355,81 201,35 0,00 1.661,61 1.185,72 0,00 6.404,49 391,29 295,28 0,00 686,57 5.717,92 920,50 0,00 31/12/2014
725 296200 EDGARD GOULART MATOSINHO DE LAET JUNIOR ANALISTA DO MP ATIVO GOVERNADOR VALADARES - COMARCA; GOVERNADOR VALADARES-PJ-12PJ 9.663,38 1.932,68 0,00 2.658,74 3.865,35 0,00 18.120,15 1.275,57 2.926,70 0,00 4.202,27 13.917,88 685,50 0,00 31/12/2014
726 295000 EDILA MARIA DA SILVEIRA OFICIAL DO MP ATIVO FORMIGA - COMARCA; FORMIGA-PJ-SECRETARIA 5.169,86 1.033,97 0,00 2.351,49 0,00 0,00 8.555,32 746,96 692,24 0,00 1.439,20 7.116,12 685,50 586,77 31/12/2014
727 332300 EDILA MARILAC MIRANDA PRADO OFICIAL DO MP ATIVO DIAMANTINA - COMARCA; COORD REG BACIAS RIOS JEQUITINHONHA E MUCURI 5.691,44 2.276,58 0,00 1.976,28 2.656,01 0,00 12.600,31 1.117,45 1.755,59 0,00 2.873,04 9.727,27 685,50 2.190,63 31/12/2014
728 376600 EDILANE CONSOLACAO ROSA NAZARETH ANALISTA DO MP ATIVO BETIM - COMARCA; BETIM-PJ-10PJ 8.233,02 823,30 0,00 3.242,74 0,00 0,00 12.299,06 1.090,44 1.390,38 0,00 2.480,82 9.818,24 685,50 856,74 31/12/2014
729 301500 EDILENE APARECIDA DE CARVALHO ANALISTA DO MP ATIVO BELO HORIZONTE - COMARCA; DIRETORIA DE ADMINISTRACAO FINANCEIRA 9.663,38 1.932,68 0,00 2.559,90 0,00 0,00 14.155,96 1.275,57 1.962,56 0,00 3.238,13 10.917,83 685,50 0,00 31/12/2014
730 309800 EDILZA DOS REIS OFICIAL DO MP ATIVO UBERLÂNDIA - COMARCA; UBERLANDIA-PJ-03PJ 6.469,61 1.293,92 0,00 1.967,66 2.587,84 0,00 12.319,03 934,78 1.736,21 0,00 2.670,99 9.648,04 685,50 734,52 31/12/2014
731 200500 EDINEIA MARIA DE OLIVEIRA ANTUNES OFICIAL DO MP ATIVO MONTES CLAROS - COMARCA; MONTES CLAROS-PJ-10PJ 8.501,02 2.550,31 0,00 2.431,35 3.683,78 0,00 17.166,46 1.215,65 2.891,70 0,00 4.107,35 13.059,11 920,50 0,00 31/12/2014
732 427700 EDISANGELA SOARES LOPES OFICIAL DO MP ATIVO PIRAPORA - COMARCA; PIRAPORA-PJ-02PJ 4.131,19 413,12 0,00 3.737,40 0,00 0,00 8.281,71 499,87 307,04 0,00 806,91 7.474,80 685,50 0,00 31/12/2014
733 555400 EDISON MONTEIRO SAMPAIO NETO ANALISTA DO MP ATIVO BELO HORIZONTE - COMARCA; BH-12PJ JUIZO CRIMINAL-GAB 085PJ 4.548,03 0,00 0,00 1.537,67 0,00 0,00 6.085,70 500,28 307,78 0,00 808,06 5.277,64 685,50 0,00 31/12/2014
734 517700 EDMILSON TADEU FERNANDES OFICIAL DO MP ATIVO POUSO ALEGRE - COMARCA; POUSO ALEGRE-PJ-SECRETARIA 3.938,84 0,00 0,00 1.345,34 1.312,95 0,00 6.597,13 433,27 498,94 0,00 932,21 5.664,92 685,50 0,00 31/12/2014
735 358400 EDNA APARECIDA SILVA FERREIRA OFICIAL DO MP ATIVO CORONEL FABRICIANO - COMARCA; CORONEL FABRICIANO-PJ-SECRETARIA 5.691,44 569,14 0,00 1.652,16 2.086,86 0,00 9.999,60 877,99 1.280,01 0,00 2.158,00 7.841,60 685,50 1.721,22 31/12/2014
736 331800 EDNA MARCIA CAMILO DA SILVA OFICIAL DO MP ATIVO SETE LAGOAS - COMARCA; SETE LAGOAS-PJ-07PJ 6.068,01 606,80 0,00 1.900,89 2.224,94 0,00 10.800,64 734,23 1.419,37 0,00 2.153,60 8.647,04 685,50 0,00 31/12/2014
737 422800 EDNILSON DE SOUZA FERREIRA ASSESSOR ATIVO BELO HORIZONTE - COMARCA; DIRET DE INFORMACAO E EXPEDICAO DE PROCESSOS 0,00 0,00 2.359,08 1.309,29 0,00 0,00 3.668,37 594,40 42,19 0,00 636,59 3.031,78 685,50 0,00 31/12/2014
738 327900 EDRIEL SANTANA PEREIRA OFICIAL DO MP ATIVO TUPACIGUARA - COMARCA; TUPACIGUARA-PJ-UNPJ 6.068,01 606,80 0,00 1.900,89 2.224,94 0,00 10.800,64 734,23 1.419,37 0,00 2.153,60 8.647,04 920,50 0,00 31/12/2014
739 482400 EDSON GARCIA OFICIAL DO MP ATIVO MACHADO - COMARCA; MACHADO-PJ-02PJ 3.355,81 201,35 0,00 1.301,35 0,00 0,00 4.858,51 418,13 118,51 0,00 536,64 4.321,87 685,50 244,00 31/12/2014
740 225601 EDSON LABRE FILHO ANALISTA DO MP ATIVO VARGINHA - COMARCA; VARGINHA-PJ-01PJ 9.663,38 1.932,68 0,00 2.559,90 3.865,35 0,00 18.021,31 1.275,57 3.025,54 0,00 4.301,11 13.720,20 685,50 0,00 31/12/2014
741 602700 EDSON NOGUEIRA BUENO OFICIAL DO MP ATIVO PITANGUI - COMARCA; PITANGUI-PJ-02PJ 2.952,15 0,00 0,00 2.487,82 0,00 0,00 5.439,97 355,46 62,98 0,00 418,44 5.021,53 1.019,58 310,23 31/12/2014
742 414400 EDUARDO ABRANTES CAMPOS ANALISTA DO MP ATIVO OLIVEIRA - COMARCA; OLIVEIRA-PJ-02PJ 7.973,40 797,34 0,00 2.627,56 0,00 0,00 11.398,30 964,78 1.320,49 0,00 2.285,27 9.113,03 685,50 0,00 31/12/2014
743 476800 EDUARDO ALVES DE MOURA ANALISTA DO MP ATIVO UBERLÂNDIA - COMARCA; UBERLANDIA-PJ-19PJ 6.265,58 375,93 0,00 2.605,21 0,00 0,00 9.246,72 730,57 700,52 0,00 1.431,09 7.815,63 2.013,80 121,76 31/12/2014
744 390800 EDUARDO AMORIM PETTERSEN OFICIAL DO MP ATIVO CARANGOLA - COMARCA; CARANGOLA-PJ-03PJ 5.006,87 500,69 0,00 1.600,89 0,00 0,00 7.108,45 663,14 521,83 0,00 1.184,97 5.923,48 685,50 521,04 31/12/2014
745 461600 EDUARDO ANTONIO DE ASSIS FARIA ASSESSOR ATIVO BELO HORIZONTE - COMARCA; ASSESS EXECUTIVA DO CONSELHO SUPERIOR DO MP 0,00 0,00 3.938,84 3.774,99 1.312,95 0,00 9.026,78 916,20 624,38 0,00 1.540,58 7.486,20 685,50 0,00 31/12/2014
746 248800 EDUARDO DE CASTRO AMORIM ANALISTA DO MP ATIVO BELO HORIZONTE - COMARCA; BH-01PJ FAZENDA PUBLICA EXEC FISCAIS 11.342,29 2.268,46 0,00 3.017,72 4.536,92 0,00 21.165,39 1.497,18 3.752,73 0,00 5.249,91 15.915,48 685,50 0,00 31/12/2014
747 209100 EDUARDO DE SOUZA MAIA ANALISTA DO MP ATIVO BELO HORIZONTE - COMARCA; CAO-TS-TERCEIRO SETOR-ASSESSORIA JURIDICA 11.885,64 2.377,13 0,00 3.046,08 4.754,26 0,00 22.063,11 1.568,90 3.823,83 0,00 5.392,73 16.670,38 685,50 0,00 31/12/2014
748 350500 EDUARDO GONCALVES RIBEIRO OFICIAL DO MP ATIVO VESPASIANO - COMARCA; VESPASIANO-PJ-04PJ 4.696,06 469,61 0,00 4.159,30 1.721,89 0,00 11.046,86 568,22 911,67 0,00 1.479,89 9.566,97 685,50 0,00 31/12/2014
749 115800 EDUARDO HENRIQUE DE CAMPOS MAIA OFICIAL DO MP ATIVO BELO HORIZONTE - COMARCA; EXTINTA - DIVISAO DE SERVICOS GERAIS 9.663,38 3.865,35 0,00 2.828,08 0,00 0,00 16.356,81 1.628,92 2.386,17 0,00 4.015,09 12.341,72 685,50 1.421,77 31/12/2014
750 392600 EDUARDO HENRIQUE DOS SANTOS COSTA ELIAZAR OFICIAL DO MP ATIVO MATOZINHOS - COMARCA; MATOZINHOS-PJ-02PJ 4.848,98 484,90 0,00 4.362,87 1.777,96 0,00 11.474,71 586,73 869,41 0,00 1.456,14 10.018,57 920,50 0,00 31/12/2014
751 122900 EDUARDO JOSE COSTA SILVA OFICIAL DO MP ATIVO SETE LAGOAS - COMARCA; SETE LAGOAS-PJ-04PJ 12.356,19 8.649,34 0,00 3.926,62 0,00 0,00 24.932,15 2.310,61 4.265,53 0,00 6.576,14 18.356,01 685,50 0,00 31/12/2014
752 418700 EDUARDO LEMOS SIMOES OFICIAL DO MP ATIVO LAVRAS - COMARCA; COORD REG DO MA DA BACIA DO RIO GRANDE 4.548,03 454,80 0,00 1.552,24 1.667,61 0,00 8.222,68 550,31 856,89 0,00 1.407,20 6.815,48 685,50 0,00 31/12/2014
753 407500 EDUARDO MASCARENHAS CURI AZEVEDO ANALISTA DO MP ATIVO BELO HORIZONTE - COMARCA; DIRETORIA DE IMPRENSA 7.014,37 701,44 0,00 1.859,83 0,00 0,00 9.575,64 1.046,49 1.062,29 0,00 2.108,78 7.466,86 685,50 1.797,72 31/12/2014
754 601300 EDUARDO TRAD VIEIRA OFICIAL DO MP ATIVO RIBEIRÃO DAS NEVES - COMARCA; RIBEIRAO DAS NEVES-PJ-01PJ 2.952,15 0,00 0,00 1.134,89 0,00 0,00 4.087,04 324,74 62,98 0,00 387,72 3.699,32 920,50 0,00 31/12/2014
755 257600 EDUARDO VALADARES CABRAL ANALISTA DO MP ATIVO BELO HORIZONTE - COMARCA; PROCON-MG-GAB DO COORDENADOR DO PROCON-MG 9.063,59 1.812,72 0,00 7.844,09 0,00 0,00 18.720,40 1.196,39 1.835,83 0,00 3.032,22 15.688,18 685,50 0,00 31/12/2014
756 545700 EDVAIR FERREIRA DE CARVALHO OFICIAL DO MP ATIVO ARAGUARI - COMARCA; ARAGUARI-PJ-06PJ 2.952,15 0,00 0,00 1.128,79 0,00 0,00 4.080,94 324,74 22,54 0,00 347,28 3.733,66 685,50 0,00 31/12/2014
757 401700 EDWANIA AMORIM DO CARMO OFICIAL DO MP ATIVO RIBEIRÃO DAS NEVES - COMARCA; RIBEIRAO DAS NEVES-PJ-03PJ 5.169,86 516,99 0,00 1.626,12 1.895,62 0,00 9.208,59 740,03 1.206,32 0,00 1.946,35 7.262,24 685,50 1.040,74 31/12/2014
758 303600 EFIGENIO SARAIVA LOPES ANALISTA DO MP ATIVO BELO HORIZONTE - COMARCA; DIRETORIA DE PAGAMENTO DE PESSOAL-DPAG 10.638,28 2.127,66 0,00 2.779,25 0,00 0,00 15.545,19 1.404,25 2.199,47 0,00 3.603,72 11.941,47 685,50 0,00 31/12/2014
759 312000 ELAINE APARECIDA DE ARAUJO RODRIGUES ASSESSOR/OFICIAL ATIVO DIVINÓPOLIS - COMARCA; DIVINOPOLIS-PJ-02PJ 0,00 4.385,91 6.265,58 2.451,11 3.550,50 0,00 16.653,10 1.168,22 2.758,14 0,00 3.926,36 12.726,74 685,50 0,00 31/12/2014
760 286000 ELAINE APARECIDA SILVA BERZOINI OFICIAL DO MP ATIVO JUIZ DE FORA - COMARCA; JUIZ DE FORA-PJ-07PJ 6.578,93 1.315,79 0,00 2.279,41 2.631,57 0,00 12.805,70 868,42 1.829,76 0,00 2.698,18 10.107,52 685,50 0,00 31/12/2014
761 509000 ELAINE CANDIDA PONTES OFICIAL DO MP ATIVO BELO HORIZONTE - COMARCA; BH-02PJ FAMILIA-SECRETARIA 3.694,41 221,66 0,00 1.508,58 1.305,36 0,00 6.730,01 430,77 491,28 0,00 922,05 5.807,96 685,50 0,00 31/12/2014
762 283601 ELAINE CRISTINA MEQUELINO DUARTE ANALISTA DO MP ATIVO ALFENAS - COMARCA; ALFENAS-PJ-04PJ 8.233,02 823,30 0,00 2.198,94 0,00 0,00 11.255,26 1.090,44 1.291,54 0,00 2.381,98 8.873,28 1.441,08 882,92 31/12/2014
763 535500 ELAINE DE OLIVEIRA CAMPOS REIS OFICIAL DO MP ATIVO RIBEIRÃO DAS NEVES - COMARCA; RIBEIRAO DAS NEVES-PJ-11PJ 2.952,15 0,00 0,00 2.564,43 0,00 0,00 5.516,58 324,74 62,98 0,00 387,72 5.128,86 685,50 0,00 31/12/2014
764 455700 ELAINE DE OLIVEIRA CASTRO ANALISTA DO MP ATIVO POMPÉU - COMARCA; POMPEU-PJ-UNPJ 6.265,58 375,93 0,00 5.111,58 0,00 0,00 11.753,09 730,57 799,36 0,00 1.529,93 10.223,16 685,50 0,00 31/12/2014
765 367200 ELAINE MUNIZ BARBOSA ANALISTA DO MP ATIVO BELO HORIZONTE - COMARCA; DIRETORIA DE REDES E BANCOS DE DADOS 8.501,02 850,10 0,00 2.184,40 0,00 0,00 11.535,52 1.028,62 1.462,54 0,00 2.491,16 9.044,36 685,50 0,00 31/12/2014
766 176900 ELAINE RIBEIRO TAVEIRA OFICIAL DO MP ATIVO BELO HORIZONTE - COMARCA; DIRETORIA DE PESSOAL ADMINISTRATIVO - DPAD 7.478,49 2.243,55 0,00 2.238,28 3.240,68 0,00 15.201,00 1.069,42 2.444,51 0,00 3.513,93 11.687,07 685,50 0,00 31/12/2014
767 496200 ELAINE SABRINA DIAS MOREIRA ANALISTA DO MP ATIVO CORONEL FABRICIANO - COMARCA; CORONEL FABRICIANO-PJ-03PJ 6.265,58 375,93 0,00 2.077,57 0,00 0,00 8.719,08 730,57 799,36 0,00 1.529,93 7.189,15 685,50 0,00 31/12/2014
768 489200 ELAINE VICENTINO GARCIA ANALISTA DO MP ATIVO BELO HORIZONTE - COMARCA; CENTRAL DE APOIO TECNICO-SETOR CONTABIL 6.265,58 1.253,12 0,00 2.135,62 0,00 0,00 9.654,32 827,06 915,21 0,00 1.742,27 7.912,05 1.155,50 0,00 31/12/2014
769 244500 ELCI ALVES DE SOUZA ASSESSOR ATIVO BELO HORIZONTE - COMARCA; CAO-CONFLITOS AGRARIOS-SECRETARIA 0,00 787,77 3.938,84 2.051,87 0,00 0,00 6.778,48 965,86 479,95 0,00 1.445,81 5.332,67 685,50 0,00 31/12/2014
770 472500 ELCI VAZ DE OLIVEIRA FILHO ANALISTA DO MP ATIVO PIUMHI - COMARCA; PIUMHI-PJ-02PJ 6.265,58 2.506,23 0,00 2.100,25 0,00 0,00 10.872,06 964,90 1.320,75 0,00 2.285,65 8.586,41 685,50 0,00 31/12/2014
771 385200 ELCI VIANA REIS OFICIAL DO MP ATIVO RIO PARDO DE MINAS - COMARCA; RIO PARDO DE MINAS-PJ-SECRETARIA 5.169,86 1.550,96 0,00 1.802,35 2.240,27 0,00 10.763,44 739,29 1.434,85 0,00 2.174,14 8.589,30 685,50 0,00 31/12/2014
772 289801 ELCIO JOSE DOS SANTOS ASSESSOR/ANALISTA ATIVO BELO HORIZONTE - COMARCA; EXTINTA - DIVISAO DE SERVICOS GERAIS 0,00 526,67 8.777,78 3.498,81 0,00 0,00 12.803,26 792,08 1.514,75 0,00 2.306,83 10.496,43 685,50 0,00 31/12/2014
773 123000 ELCIO VILHENA DE FARIA OFICIAL DO MP ATIVO BELO HORIZONTE - COMARCA; DIVISAO DE MEMORIA INSTITUCIONAL 12.356,19 9.884,96 0,00 3.383,87 7.413,72 2.446,53 35.485,27 2.446,53 7.328,94 0,00 9.775,47 25.709,80 685,50 2.446,53 31/12/2014
774 503200 ELDER GOMES DUTRA ANALISTA DO MP ATIVO IGARAPÉ - COMARCA; IGARAPE-PJ-03PJ 6.265,58 375,93 0,00 5.111,58 0,00 0,00 11.753,09 730,57 799,36 0,00 1.529,93 10.223,16 685,50 0,00 31/12/2014
775 319600 ELEN TULER DE ALBERGARIA ANALISTA DO MP ATIVO BELO HORIZONTE - COMARCA; BH-19PJ SAUDE 8.501,02 2.550,31 0,00 2.284,25 0,00 0,00 13.335,58 1.549,87 1.878,66 0,00 3.428,53 9.907,05 1.155,50 3.038,37 31/12/2014
776 333100 ELENILDA ROCHA DE MORAES MELO OFICIAL DO MP ATIVO MAR DE ESPANHA - COMARCA; MAR DE ESPANHA-PJ-SECRETARIA 4.696,06 469,61 0,00 1.623,58 0,00 0,00 6.789,25 568,22 391,03 0,00 959,25 5.830,00 685,50 0,00 31/12/2014
777 151000 ELI LOURENCO RIBEIRO AGENTE DO MP ATIVO BELO HORIZONTE - COMARCA; BH-17PJ PATRIMONIO PUBLICO-SECRETARIA 7.014,37 2.805,75 0,00 2.646,47 0,00 0,00 12.466,59 1.080,21 1.183,38 0,00 2.263,59 10.203,00 685,50 0,00 31/12/2014
778 205500 ELIANA ALVES DE SOUSA OFICIAL DO MP ATIVO GOVERNADOR VALADARES - COMARCA; GOVERNADOR VALADARES-PJ-07PJ 5.876,69 1.763,01 0,00 1.850,45 0,00 0,00 9.490,15 969,65 1.043,67 0,00 2.013,32 7.476,83 685,50 1.175,34 31/12/2014
779 628800 ELIANA APARECIDA PEREIRA ANALISTA DO MP ATIVO CAMBUÍ - COMARCA; CAMBUI-PJ-02PJ 4.404,59 0,00 0,00 980,02 0,00 0,00 5.384,61 484,50 279,06 0,00 763,56 4.621,05 685,50 0,00 31/12/2014
780 301700 ELIANA DA SILVEIRA ANALISTA DO MP ATIVO BELO HORIZONTE - COMARCA; ASSESS TECNICO-JUR JUNTO AS PROC. DE JUST 9.358,72 1.871,74 0,00 2.307,88 0,00 0,00 13.538,34 1.575,00 1.922,51 0,00 3.497,51 10.040,83 685,50 3.087,72 31/12/2014
781 103400 ELIANA DE FARIA MORAIS JOTTA OFICIAL DO MP ATIVO BELO HORIZONTE - COMARCA; DIRET DE PESSOAL DO MINISTERIO PUBLICO - DPMP 18.939,65 7.575,87 0,00 4.825,79 0,00 0,00 31.341,31 2.916,71 5.515,26 0,00 8.431,97 22.909,34 685,50 0,00 31/12/2014
782 251500 ELIANA DE LIMA MILAGRES FONSECA ANALISTA DO MP ATIVO CONTAGEM - COMARCA; CONTAGEM-PJ-06PJ 9.358,72 1.871,74 0,00 2.733,29 3.743,49 0,00 17.707,24 1.235,35 2.853,12 0,00 4.088,47 13.618,77 685,50 0,00 31/12/2014
783 503900 ELIANA DIAS DUTRA FERREIRA OFICIAL DO MP ATIVO GOVERNADOR VALADARES - COMARCA; GOVERNADOR VALADARES-PJ-10PJ 4.000,95 240,06 0,00 1.627,85 0,00 0,00 5.868,86 466,51 177,23 0,00 643,74 5.225,12 920,50 0,00 31/12/2014
784 413900 ELIANA PINTO DE OLIVEIRA NEVES ANALISTA DO MP ATIVO CAMPO BELO - COMARCA; CAMPO BELO-PJ-03PJ 7.014,37 701,44 0,00 1.946,87 2.571,94 0,00 12.234,62 848,74 1.769,58 0,00 2.618,32 9.616,30 685,50 0,00 31/12/2014
785 228200 ELIANA RODRIGUES DA CUNHA PINHEIRO DIRETOR/OFICIAL ATIVO BELO HORIZONTE - COMARCA; SUPERINTENDÊNCIA DE ENGENHARIA E ARQUITETURA 0,00 2.670,79 13.353,95 11.488,05 5.341,58 956,04 33.810,41 956,04 5.049,59 0,00 6.005,63 27.804,78 685,50 956,04 31/12/2014
786 386600 ELIANA SABINO CHAVES ANALISTA DO MP ATIVO CARATINGA - COMARCA; CARATINGA-PJ-06PJ 7.973,40 3.986,70 0,00 3.160,78 0,00 0,00 15.120,88 1.428,37 2.302,56 0,00 3.730,93 11.389,95 685,50 1.025,10 31/12/2014
787 297400 ELIANE AUGUSTA RIBEIRO COSTA ANALISTA DO MP ATIVO CONSELHEIRO LAFAIETE - COMARCA; CONSELHEIRO LAFAIETE-PJ-05PJ 9.977,95 1.995,59 0,00 2.902,31 0,00 0,00 14.875,85 1.317,09 1.956,11 0,00 3.273,20 11.602,65 685,50 0,00 31/12/2014
788 510600 ELIANE CAROLINA MAIA ANALISTA DO MP ATIVO IGARAPÉ - COMARCA; IGARAPE-PJ-01PJ 5.691,44 341,49 0,00 2.037,84 2.010,98 0,00 10.081,75 726,41 1.005,75 0,00 1.732,16 8.349,59 1.155,50 570,81 31/12/2014
789 269300 ELIANE EDLAMAR ROCHA OFICIAL DO MP ATIVO PEDRO LEOPOLDO - COMARCA; PEDRO LEOPOLDO-PJ-02PJ 6.265,58 1.253,12 0,00 1.967,66 2.506,23 0,00 11.992,59 827,06 1.653,84 0,00 2.480,90 9.511,69 920,50 0,00 31/12/2014
790 359100 ELIANE FARIAS DE OLIVEIRA ASSESSOR ATIVO BELO HORIZONTE - COMARCA; EXTINTA-TUTELA DAS FUNDACOES-21 PJ- GABINETE 0,00 0,00 2.359,08 1.156,15 0,00 0,00 3.515,23 594,40 71,42 0,00 665,82 2.849,41 685,50 0,00 31/12/2014
791 262600 ELIANE FERREIRA SOARES ASSESSOR ATIVO BELO HORIZONTE - COMARCA; BH-18PJ DIREITOS HUMANOS-SECRETARIA 0,00 1.181,65 3.938,84 2.601,68 0,00 0,00 7.722,17 965,86 588,27 0,00 1.554,13 6.168,04 920,50 0,00 31/12/2014
792 204400 ELIANE GLAUCE DE QUEIROS MAIA OFICIAL DO MP ATIVO GUANHÃES - COMARCA; GUANHAES-PJ-01PJ 8.501,02 2.550,31 0,00 2.261,16 0,00 0,00 13.312,49 1.508,80 1.878,66 0,00 3.387,46 9.925,03 685,50 2.772,20 31/12/2014
793 91800 ELIANE KAPLER COORDENADOR/OFICIAL ATIVO BELO HORIZONTE - COMARCA; DIRET DE CONTROLE E DE MANUTENCAO DE IMOVEIS 11.711,44 6.951,20 0,00 3.816,50 0,00 0,00 22.479,14 1.803,56 3.711,26 0,00 5.514,82 16.964,32 1.155,50 0,00 31/12/2014
794 334200 ELIANE MARCIA DE OLIVEIRA BRITO OFICIAL DO MP ATIVO BELO HORIZONTE - COMARCA; BH-08PJ JUIZADO ESPECIAL-SECRETARIA 4.696,06 469,61 0,00 2.079,65 0,00 0,00 7.245,32 568,22 438,15 0,00 1.006,37 6.238,95 685,50 0,00 31/12/2014
795 365900 ELIANE MARIA DE OLIVEIRA FERREIRA OFICIAL DO MP ATIVO SETE LAGOAS - COMARCA; SETE LAGOAS-PJ-11PJ 5.876,69 2.350,68 0,00 1.983,51 0,00 0,00 10.210,88 990,60 1.187,50 0,00 2.178,10 8.032,78 685,50 778,05 31/12/2014
796 320600 ELIANE STADLER DE SOUZA OFICIAL DO MP ATIVO FRANCISCO SÁ - COMARCA; FRANCISCO SA-PJ-SECRETARIA 5.691,44 569,14 0,00 1.784,92 0,00 0,00 8.045,50 688,66 656,71 0,00 1.345,37 6.700,13 685,50 0,00 31/12/2014
797 448900 ELIAS PEREIRA OTONI ASSESSOR ATIVO BELO HORIZONTE - COMARCA; EXTINTA - DIVISAO DE TRANSPORTES 0,00 0,00 3.938,84 2.117,62 1.312,95 0,00 7.369,41 916,20 574,96 0,00 1.491,16 5.878,25 685,50 0,00 31/12/2014
798 495400 ELICA SOUZA GASPARONI MATTOS OFICIAL DO MP ATIVO UBÁ - COMARCA; UBA-PJ-SECRETARIA 4.000,95 240,06 0,00 2.007,35 0,00 0,00 6.248,36 466,51 246,30 0,00 712,81 5.535,55 920,50 0,00 31/12/2014
799 86600 ELIENE FERREIRA DA SILVA OFICIAL DO MP ATIVO BELO HORIZONTE - COMARCA; BH-22PJ PES COM DEF E IDOSOS 16.215,23 8.107,62 0,00 4.507,30 8.107,62 0,00 36.937,77 2.675,51 7.208,20 0,00 9.883,71 27.054,06 1.155,50 0,00 31/12/2014
800 183800 ELIENE MARIA CUNHA OFICIAL DO MP ATIVO BELO HORIZONTE - COMARCA; DIRETORIA DE PESSOAL ADMINISTRATIVO - DPAD 9.358,72 2.807,62 0,00 7.457,91 4.055,45 0,00 23.679,70 1.883,85 3.217,39 0,00 5.101,24 18.578,46 685,50 4.959,46 31/12/2014
801 172300 ELINA APARECIDA SILVA ASSESSOR ATIVO BELO HORIZONTE - COMARCA; BH-19PJ SAUDE-SECRETARIA 130PJ 0,00 707,72 2.359,08 1.489,73 1.022,27 0,00 5.578,80 750,10 297,58 0,00 1.047,68 4.531,12 920,50 0,00 31/12/2014
802 492501 ELINE CAMPOS DA FONSECA CUNHA ANALISTA DO MP ATIVO JEQUERI - COMARCA; JEQUERI-PJ-UNPJ 4.404,59 264,28 0,00 2.009,16 0,00 0,00 6.678,03 522,38 348,01 0,00 870,39 5.807,64 920,50 80,04 31/12/2014
803 618900 ELISA MOURA VIEIRA MARCATTI OFICIAL DO MP ATIVO BELO HORIZONTE - COMARCA; BH-23PJ CIVEL-SEC EXP CIVEIS 2.859,08 0,00 0,00 1.272,29 0,00 0,00 4.131,37 314,50 56,76 0,00 371,26 3.760,11 685,50 0,00 31/12/2014
804 256500 ELISABETE NOGUEIRA ANALISTA DO MP ATIVO BELO HORIZONTE - COMARCA; BH-21PJ TUTELA DAS FUNDACOES-ASS CURADORES 9.063,59 3.625,44 0,00 3.398,89 4.229,68 0,00 20.317,60 1.395,79 3.294,39 0,00 4.690,18 15.627,42 1.155,50 0,00 31/12/2014
805 355000 ELISANGELA DARLANTONI RIBEIRO OFICIAL DO MP ATIVO ARAXÁ - COMARCA; ARAXA-PJ-05PJ 4.696,06 469,61 0,00 1.860,26 1.721,89 0,00 8.747,82 568,22 862,25 0,00 1.430,47 7.317,35 1.155,50 0,00 31/12/2014
806 604400 ELISANGELA DEMASI FERREIRA MOREIRA ANALISTA DO MP ATIVO CAXAMBU - COMARCA; CAXAMBU-PJ-UNPJ 4.848,98 0,00 0,00 1.523,05 0,00 0,00 6.372,03 533,39 368,05 0,00 901,44 5.470,59 920,50 0,00 31/12/2014
807 323800 ELISANGELA GONCALVES DE JESUS OFICIAL DO MP ATIVO BELO HORIZONTE - COMARCA; BH-09PJ AUDITORIA MILITAR-SECRETARIA 4.696,06 469,61 0,00 1.576,46 1.721,89 0,00 8.464,02 568,22 911,67 0,00 1.479,89 6.984,13 685,50 0,00 31/12/2014
808 261400 ELISANGELA MENDES OFICIAL DO MP ATIVO POUSO ALEGRE - COMARCA; POUSO ALEGRE-PJ-05PJ 6.265,58 1.253,12 0,00 1.818,16 0,00 0,00 9.336,86 1.054,42 1.014,05 0,00 2.068,47 7.268,39 685,50 2.066,91 31/12/2014
809 507400 ELISANGELA MIGUEL DA ROCHA ASSESSOR ATIVO BELO HORIZONTE - COMARCA; CGMP-DIVIS DE APOIO FISC ORIENTACAO FUNCIONAL 0,00 0,00 2.359,08 1.156,15 786,36 0,00 4.301,59 594,40 189,38 0,00 783,78 3.517,81 685,50 0,00 31/12/2014
810 534100 ELISANGELA ROSINE SILVA OFICIAL DO MP ATIVO UBERABA - COMARCA; UBERABA-PJ-06PJ 2.952,15 0,00 0,00 1.088,35 984,05 0,00 5.024,55 324,74 209,62 0,00 534,36 4.490,19 685,50 0,00 31/12/2014
811 461700 ELIZABETH ALEIXO DA PAZ ANALISTA DO MP ATIVO JUIZ DE FORA - COMARCA; JUIZ DE FORA-PJ-24PJ 6.793,15 407,59 0,00 1.790,82 2.400,25 0,00 11.391,81 985,05 1.596,30 0,00 2.581,35 8.810,46 685,50 1.754,35 31/12/2014
812 198100 ELIZABETH CARDOSO CAMPOS OFICIAL DO MP ATIVO PIUMHI - COMARCA; PIUMHI-PJ-02PJ 7.973,40 6.378,72 0,00 3.389,19 0,00 1.578,73 19.320,04 1.578,73 3.071,26 0,00 4.649,99 14.670,05 4.230,79 1.903,71 31/12/2014
813 227300 ELIZABETH COIMBRA FELIX COORDENADOR/OFICIAL ATIVO BELO HORIZONTE - COMARCA; DIRETORIA DE PAGAMENTO DE PESSOAL-DPAG 7.973,40 4.204,74 0,00 3.085,58 4.059,38 0,00 19.323,10 1.140,20 3.177,35 0,00 4.317,55 15.005,55 685,50 0,00 31/12/2014
814 354800 ELIZABETH DOS REIS OFICIAL DO MP ATIVO BELO HORIZONTE - COMARCA; EXTINTA - DIVISÃO DE MATERIAL PERMANENTE 5.876,69 587,67 0,00 1.784,92 0,00 0,00 8.249,28 778,33 706,58 0,00 1.484,91 6.764,37 685,50 611,34 31/12/2014
815 612000 ELIZABETH MARIA DE QUEIROZ TANIGUCHI OFICIAL DO MP ATIVO BELO HORIZONTE - COMARCA; SUPERINTENDENCIA DE RECURSOS HUMANOS 2.859,08 0,00 0,00 1.142,50 0,00 0,00 4.001,58 314,50 56,76 0,00 371,26 3.630,32 685,50 0,00 31/12/2014
816 452800 ELIZANGELA MARIA DAVI OFICIAL DO MP ATIVO ARCOS - COMARCA; ARCOS-PJ-01PJ 3.694,41 221,66 0,00 1.798,01 1.305,36 0,00 7.019,44 430,77 441,86 0,00 872,63 6.146,81 1.155,50 0,00 31/12/2014
817 496300 ELIZANGELA MARQUES PINTO COELHO OFICIAL DO MP ATIVO BELO HORIZONTE - COMARCA; DIRETORIA DE PESSOAL ADMINISTRATIVO - DPAD 4.000,95 240,06 0,00 1.558,78 1.413,67 0,00 7.213,46 466,51 600,60 0,00 1.067,11 6.146,35 920,50 0,00 31/12/2014
818 422500 ELIZETE FORTES DA CUNHA ANALISTA DO MP ATIVO RIBEIRÃO DAS NEVES - COMARCA; RIBEIRAO DAS NEVES-PJ-07PJ 7.014,37 701,44 0,00 1.996,29 2.571,94 0,00 12.284,04 848,74 1.720,16 0,00 2.568,90 9.715,14 920,50 0,00 31/12/2014
819 506100 ELLEM CRISTINA ROCHA FONSECA BOWEN ANALISTA DO MP ATIVO GOVERNADOR VALADARES - COMARCA; COORD REG PJ DEF EDU DIR CRIANCA ADOL RIODOCE 6.265,58 375,93 0,00 5.111,58 0,00 0,00 11.753,09 730,57 799,36 0,00 1.529,93 10.223,16 1.155,50 0,00 31/12/2014
820 468200 ELLEN CRISTINA BERNARDES DARE ANALISTA DO MP ATIVO TRÊS PONTAS - COMARCA; TRES PONTAS-PJ-02PJ 6.793,15 407,59 0,00 1.840,24 0,00 0,00 9.040,98 976,62 886,81 0,00 1.863,43 7.177,55 685,50 1.677,66 31/12/2014
821 418800 ELLEN CRISTINA DE QUEIROZ FERREIRA ANALISTA DO MP ATIVO BELO HORIZONTE - COMARCA; CENTRAL DE APOIO TECNICO-SETOR CONTABIL 7.014,37 701,44 0,00 2.902,39 2.571,94 0,00 13.190,14 848,74 1.769,58 0,00 2.618,32 10.571,82 685,50 0,00 31/12/2014
822 328401 ELLEN CRISTINA FERREIRA MORAIS MONTEIRO ANALISTA DO MP ATIVO CAMANDUCAIA - COMARCA; CAMANDUCAIA-PJ-UNPJ 7.014,37 701,44 0,00 5.903,62 2.571,94 0,00 16.191,37 848,74 1.670,74 0,00 2.519,48 13.671,89 920,50 0,00 31/12/2014
823 556100 ELLEN CRISTINE BIANCHIN DA SILVA OFICIAL DO MP ATIVO SÃO GONÇALO DO SAPUCAÍ - COMARCA; SAO GONCALO DO SAPUCAI-PJ-02PJ 2.952,15 0,00 0,00 2.604,87 0,00 0,00 5.557,02 324,74 22,54 0,00 347,28 5.209,74 685,50 0,00 31/12/2014
824 447100 ELLEN ROSANA DE MACEDO BORGES OFICIAL DO MP ATIVO UBERLÂNDIA - COMARCA; UBERLANDIA-PJ-17PJ 4.848,98 290,94 0,00 1.808,24 1.713,31 0,00 8.661,47 565,39 903,01 0,00 1.468,40 7.193,07 685,50 0,00 31/12/2014
825 477700 ELMA JACOB OFICIAL DO MP ATIVO BELO HORIZONTE - COMARCA; COORD DE GABINETE DO PGJ 4.000,95 2.000,48 0,00 1.697,85 0,00 0,00 7.699,28 660,16 642,70 0,00 1.302,86 6.396,42 685,50 0,00 31/12/2014
826 123300 ELMA PAULA DOS SANTOS COELHO OFICIAL DO MP ATIVO BELO HORIZONTE - COMARCA; BH-19PJ SAUDE-SECRETARIA 130PJ 10.638,28 8.510,62 0,00 3.028,27 0,00 2.106,38 24.283,55 2.106,38 4.439,80 0,00 6.546,18 17.737,37 685,50 2.106,38 31/12/2014
827 356500 ELOISA CARDOSO SILVA FRANCA OFICIAL DO MP ATIVO PEÇANHA - COMARCA; PECANHA-PJ-SECRETARIA 4.696,06 469,61 0,00 4.287,29 0,00 0,00 9.452,96 568,22 310,16 0,00 878,38 8.574,58 685,50 0,00 31/12/2014
828 251901 ELOISA COSTA E SILVA ANALISTA DO MP ATIVO SANTOS DUMONT - COMARCA; SANTOS DUMONT-PJ-02PJ 6.265,58 1.253,12 0,00 2.036,78 0,00 0,00 9.555,48 827,06 1.014,05 0,00 1.841,11 7.714,37 685,50 0,00 31/12/2014
829 400400 ELOIZA MARIA FERRI PIRES DA SILVA OFICIAL DO MP ATIVO BELO HORIZONTE - COMARCA; EXTINTA - DIRETORIA DE COMPRAS E LICITAÇÕES 4.548,03 454,80 0,00 1.821,94 0,00 0,00 6.824,77 644,67 558,82 0,00 1.203,49 5.621,28 685,50 857,80 31/12/2014
830 258000 ELSO CECIANO PALMEIRA ASSESSOR/OFICIAL ATIVO BELO HORIZONTE - COMARCA; DIRET DE PESSOAL DO MINISTERIO PUBLICO - DPMP 0,00 3.986,70 7.973,40 2.803,38 3.986,70 0,00 18.750,18 1.120,87 3.152,14 0,00 4.273,01 14.477,17 685,50 0,00 31/12/2014
831 206900 ELVIRA RITA DOS SANTOS ANALISTA DO MP ATIVO BELO HORIZONTE - COMARCA; CENTRAL DE APOIO TECNICO-SETOR CONTABIL 13.353,95 4.006,19 0,00 3.153,74 0,00 0,00 20.513,88 2.203,40 3.422,74 0,00 5.626,14 14.887,74 4.011,00 2.975,64 31/12/2014
832 506800 ELVIS FERREIRA DA SILVA ANALISTA DO MP ATIVO BELO HORIZONTE - COMARCA; DIRETORIA DE SISTEMAS DE INFORMACAO 6.265,58 375,93 0,00 2.126,99 2.213,84 0,00 10.982,34 730,57 1.358,74 0,00 2.089,31 8.893,03 685,50 0,00 31/12/2014
833 154300 ELZA MARIA DA SILVA OFICIAL DO MP ATIVO ERVÁLIA - COMARCA; ERVALIA-PJ-SECRETARIA 7.478,49 5.982,80 0,00 4.552,42 4.487,10 1.480,74 23.981,55 1.480,74 4.109,66 0,00 5.590,40 18.391,15 685,50 740,37 31/12/2014
834 602400 ELZA MARIA MOREIRA MUNIZ ANALISTA DO MP ATIVO CARMO DO PARANAÍBA - COMARCA; CARMO DO PARANAIBA-PJ-02PJ 4.548,03 0,00 0,00 1.537,67 0,00 0,00 6.085,70 500,28 307,78 0,00 808,06 5.277,64 685,50 0,00 31/12/2014
835 368401 ELZIRA SIMOES DOS SANTOS ASSESSOR ATIVO BELO HORIZONTE - COMARCA; DIRETORIA DE RELACOES PUBLICAS E CERIMONIAL 0,00 1.755,56 8.777,78 3.328,96 0,00 0,00 13.862,30 965,86 2.126,23 0,00 3.092,09 10.770,21 685,50 0,00 31/12/2014
836 437400 EMANOELLE DA SILVA RODRIGUES OFICIAL DO MP ATIVO UNAÍ - COMARCA; UNAI-PJ-03PJ 4.848,98 484,90 0,00 1.982,81 1.777,96 0,00 9.094,65 586,73 918,84 0,00 1.505,57 7.589,08 685,50 0,00 31/12/2014
837 458900 EMANUELLE CONRAD SILVA FREDERICO ANALISTA DO MP ATIVO DIVINÓPOLIS - COMARCA; DIVINOPOLIS-PJ-08PJ 6.793,15 407,59 0,00 2.151,67 2.400,25 0,00 11.752,66 792,08 1.596,30 0,00 2.388,38 9.364,28 685,50 0,00 31/12/2014
838 284100 EMERSON MAGNO ALMEIDA PEDROSA DA FONSECA ANALISTA DO MP ATIVO BELO HORIZONTE - COMARCA; CENTRAL DE APOIO TECNICO-SETOR CONTABIL 9.977,95 1.995,59 0,00 3.566,59 0,00 0,00 15.540,13 1.317,09 1.291,83 0,00 2.608,92 12.931,21 920,50 0,00 31/12/2014
839 179900 EMERSON MORAIS DIAS OFICIAL DO MP ATIVO BELO HORIZONTE - COMARCA; EXTINTA - DIVISÃO DE APOIO À LICITAÇÃO 9.358,72 2.807,62 0,00 2.593,31 0,00 0,00 14.759,65 1.338,30 2.151,56 0,00 3.489,86 11.269,79 685,50 0,00 31/12/2014
840 488700 EMERSON SIQUEIRA DE SOUSA TEIXEIRA ANALISTA DO MP ATIVO TARUMIRIM - COMARCA; TARUMIRIM-PJ-UNPJ 6.265,58 375,93 0,00 2.043,79 0,00 0,00 8.685,30 730,57 651,10 0,00 1.381,67 7.303,63 1.155,50 0,00 31/12/2014
841 194200 EMILIA ALVES FERREIRA RAMOS OFICIAL DO MP ATIVO UBERLÂNDIA - COMARCA; UBERLANDIA-PJ-19PJ 4.696,06 1.408,82 0,00 2.280,57 0,00 0,00 8.385,45 774,86 569,18 0,00 1.344,04 7.041,41 685,50 939,22 31/12/2014
842 123400 EMILIO CARLOS MARTINS OFICIAL DO MP ATIVO AREADO - COMARCA; AREADO-PJ-UNPJ 10.984,62 7.689,24 0,00 4.443,61 0,00 0,00 23.117,47 2.054,12 3.694,86 0,00 5.748,98 17.368,49 4.230,79 324,98 31/12/2014
843 549300 EMILIO VIEIRA SILVA ASSESSOR ATIVO BELO HORIZONTE - COMARCA; EXTINTA - DIVISAO DE TRANSPORTES 0,00 0,00 2.359,08 1.156,15 0,00 0,00 3.515,23 594,40 71,42 0,00 665,82 2.849,41 685,50 0,00 31/12/2014
844 620700 EMILY FONTANA DE SIQUEIRA ANALISTA DO MP ATIVO BELO HORIZONTE - COMARCA; BH-18PJ VIOLENCIA DOMESTICA 4.848,98 0,00 0,00 2.130,04 0,00 0,00 6.979,02 533,39 368,05 0,00 901,44 6.077,58 685,50 0,00 31/12/2014
845 297000 ENEIDA SOARES COSTA MELO ANALISTA DO MP ATIVO PIUMHI - COMARCA; PIUMHI-PJ-01PJ 9.977,95 1.995,59 0,00 2.754,05 3.991,18 0,00 18.718,77 1.317,09 3.201,95 0,00 4.519,04 14.199,73 685,50 0,00 31/12/2014
846 276000 ENEZIO RODRIGUES DE SOUZA FILHO OFICIAL DO MP ATIVO UBERLÂNDIA - COMARCA; UBERLANDIA-PJ-SEC FAMILIA 6.068,01 1.213,60 0,00 1.883,80 0,00 0,00 9.165,41 800,98 956,02 0,00 1.757,00 7.408,41 685,50 0,00 31/12/2014
847 387700 ENI MARIA DOS REIS OFICIAL DO MP ATIVO POUSO ALEGRE - COMARCA; POUSO ALEGRE-PJ-04PJ 5.169,86 1.625,31 0,00 2.616,44 0,00 0,00 9.411,61 684,71 821,08 0,00 1.505,79 7.905,82 685,50 537,87 31/12/2014
848 605100 ENIA MAIA OFICIAL DO MP ATIVO BELO HORIZONTE - COMARCA; DIRETORIA DE ORCAMENTO-DIOR/SPC 2.859,08 0,00 0,00 1.058,28 953,03 0,00 4.870,39 314,50 189,61 0,00 504,11 4.366,28 685,50 0,00 31/12/2014
849 612200 ENILDO GOMES MEIRA FILHO ANALISTA DO MP ATIVO BUENÓPOLIS - COMARCA; BUENOPOLIS-PJ-UNPJ 4.404,59 0,00 0,00 1.608,09 0,00 0,00 6.012,68 484,50 199,07 0,00 683,57 5.329,11 920,50 0,00 31/12/2014
850 553700 ENIVALDO NOVATO PUBLIO ANALISTA DO MP ATIVO DIVINÓPOLIS - COMARCA; DIVINOPOLIS-PJ-09PJ 4.548,03 0,00 0,00 1.939,67 0,00 0,00 6.487,70 500,28 267,35 0,00 767,63 5.720,07 685,50 0,00 31/12/2014
851 417300 ERIC BARATTI DA SILVA ANALISTA DO MP ATIVO PRATA - COMARCA; PRATA-PJ-UNPJ 6.469,61 646,96 0,00 2.625,57 0,00 0,00 9.742,14 839,76 915,63 0,00 1.755,39 7.986,75 685,50 517,56 31/12/2014
852 398900 ERIC TEIXEIRA SILVA OFICIAL DO MP ATIVO UBERLÂNDIA - COMARCA; UBERLANDIA-PJ-08PJ 4.548,03 454,80 0,00 1.552,24 0,00 0,00 6.555,07 550,31 398,86 0,00 949,17 5.605,90 685,50 0,00 31/12/2014
853 274200 ERICA DE SOUZA ANDRADE OFICIAL DO MP ATIVO BELO HORIZONTE - COMARCA; BH-18PJ DIREITOS HUMANOS 6.469,61 1.293,92 0,00 2.003,22 0,00 0,00 9.766,75 853,99 1.024,55 0,00 1.878,54 7.888,21 685,50 0,00 31/12/2014
854 225700 ERICA GOMES DO COUTO OFICIAL DO MP ATIVO BELO HORIZONTE - COMARCA; CAO-TS-TERCEIRO SETOR-SECRETARIA 8.233,02 1.646,60 0,00 2.654,31 3.293,21 0,00 15.827,14 1.189,57 2.497,52 0,00 3.687,09 12.140,05 685,50 934,62 31/12/2014
855 524800 ERICA MACHADO DA COSTA E SOUZA ANALISTA DO MP ATIVO BELO HORIZONTE - COMARCA; PROC JUST RECURSOS ESP E EXTRAORD CRIMINAIS 6.068,01 0,00 0,00 1.707,52 0,00 0,00 7.775,53 667,48 659,00 0,00 1.326,48 6.449,05 685,50 0,00 31/12/2014
856 249500 ERICA RODRIGUES ANDRADE OFICIAL DO MP ATIVO SÃO FRANCISCO - COMARCA; SAO FRANCISCO-PJ-02PJ 4.696,06 939,21 0,00 4.511,73 0,00 0,00 10.147,00 619,88 503,66 0,00 1.123,54 9.023,46 920,50 0,00 31/12/2014
857 260800 ERICA VIANA GIARDINI DE OLIVEIRA OFICIAL DO MP ATIVO BELO HORIZONTE - COMARCA; EXTINTA - DIVISÃO DE COMPRAS 6.578,93 1.315,79 0,00 2.038,45 0,00 0,00 9.933,17 868,42 1.106,08 0,00 1.974,50 7.958,67 685,50 0,00 31/12/2014
858 299800 ERICH DOUGLAS RIBEIRO GARCIA ANALISTA DO MP ATIVO BELO HORIZONTE - COMARCA; CENTRAL DE APOIO TECNICO-SETOR CONTABIL 9.663,38 1.932,68 0,00 2.510,48 0,00 0,00 14.106,54 1.275,57 2.011,98 0,00 3.287,55 10.818,99 685,50 0,00 31/12/2014
859 365000 ERICK EDUARDO JOSE DA SILVA OFICIAL DO MP ATIVO SANTOS DUMONT - COMARCA; SANTOS DUMONT-PJ-02PJ 4.696,06 469,61 0,00 4.159,30 1.721,89 0,00 11.046,86 568,22 911,67 0,00 1.479,89 9.566,97 685,50 0,00 31/12/2014
860 123500 ERICO SEGISMUNDO LIMA VILASBOAS ANALISTA DO MP ATIVO MONTES CLAROS - COMARCA; COORD REG PJ DEF EDUC DIR CRIANCA ADOL NORTE 14.432,31 11.545,84 0,00 8.500,19 0,00 2.857,60 37.335,94 2.857,60 6.120,16 0,00 8.977,76 28.358,18 685,50 1.428,80 31/12/2014
861 227400 ERIKA DE LAET GOULART BOECHAT ASSESSOR/OFICIAL ATIVO BELO HORIZONTE - COMARCA; ASSESSORIA ESPECIAL DO PGJ 0,00 1.932,68 9.663,38 2.721,63 3.865,35 0,00 18.183,04 1.155,30 3.058,61 0,00 4.213,91 13.969,13 4.465,79 324,98 31/12/2014
862 451800 ERIKA DELLARETTI GUIMARAES OFICIAL DO MP ATIVO LAVRAS - COMARCA; LAVRAS-PJ-SECRETARIA 3.694,41 221,66 0,00 871,33 0,00 0,00 4.787,40 430,77 160,81 0,00 591,58 4.195,82 685,50 0,00 31/12/2014
863 285100 ERIKA FERREIRA DA SILVA OFICIAL DO MP ATIVO JUIZ DE FORA - COMARCA; JUIZ DE FORA-PJ-14PJ 6.469,61 1.293,92 0,00 1.953,80 2.587,84 0,00 12.305,17 853,99 1.785,63 0,00 2.639,62 9.665,55 685,50 0,00 31/12/2014
864 420100 ERIKA JEANINE VERSIANI DE CASTRO ANALISTA DO MP ATIVO MONTES CLAROS - COMARCA; COORD REG PJ DEF EDUC DIR CRIANCA ADOL NORTE 7.973,40 797,34 0,00 2.676,98 2.923,58 0,00 14.371,30 964,78 2.075,05 0,00 3.039,83 11.331,47 685,50 0,00 31/12/2014
865 606900 ERIKA MARIA BARBOSA ANALISTA DO MP ATIVO BELO HORIZONTE - COMARCA; CAO-SAUDE 4.404,59 0,00 0,00 1.479,16 0,00 0,00 5.883,75 484,50 238,63 0,00 723,13 5.160,62 920,50 0,00 31/12/2014
866 491000 ERIKA ROCHA PEREIRA E SILVA ANALISTA DO MP ATIVO BELO HORIZONTE - COMARCA; DIRETORIA DE SISTEMAS DE INFORMACAO 6.265,58 375,93 0,00 2.077,57 2.213,84 0,00 10.932,92 730,57 1.408,16 0,00 2.138,73 8.794,19 685,50 0,00 31/12/2014
867 283201 ERIKA STEHLING ASSESSOR/ANALISTA ATIVO BELO HORIZONTE - COMARCA; CENTRAL DE APOIO TECNICO-SETOR DE ENGENHARIA 0,00 478,40 7.973,40 3.411,99 2.817,27 0,00 14.681,06 730,57 1.973,10 0,00 2.703,67 11.977,39 685,50 0,00 31/12/2014
868 383500 ERIKO RODRIGUES VELOSO ANALISTA DO MP ATIVO BOCAIÚVA - COMARCA; BOCAIUVA-PJ-01PJ 6.793,15 679,32 0,00 1.877,30 0,00 0,00 9.349,77 899,73 1.002,74 0,00 1.902,47 7.447,30 685,50 706,92 31/12/2014
869 254000 ERLANDIA DA SILVA MENDES OFICIAL DO MP ATIVO IPATINGA - COMARCA; IPATINGA-PJ-03PJ 6.793,15 2.037,95 0,00 2.157,50 2.943,70 0,00 13.932,30 1.287,47 2.181,77 0,00 3.469,24 10.463,06 685,50 2.873,21 31/12/2014
870 208600 ERNANE JOSE DA COSTA ANALISTA DO MP ATIVO BELO HORIZONTE - COMARCA; CENTRAL DE APOIO TECNICO-SETOR MEDICO 13.353,95 6.676,98 0,00 3.735,64 0,00 0,00 23.766,57 2.203,40 4.076,42 0,00 6.279,82 17.486,75 685,50 0,00 31/12/2014
871 260600 ERNANI CALDEIRA DE ANDRADE ANALISTA DO MP ATIVO BELO HORIZONTE - COMARCA; CENTRAL DE APOIO TECNICO-SETOR CONTABIL 10.984,62 2.196,92 0,00 2.948,57 4.393,85 0,00 20.523,96 1.449,97 3.608,34 0,00 5.058,31 15.465,65 685,50 0,00 31/12/2014
872 348500 ERNILANDIA OLIVEIRA DIAS OFICIAL DO MP ATIVO BELO HORIZONTE - COMARCA; EXTINTA - JUIZO DE FAMILIA-02 PJ-02 VARA 5.169,86 516,99 0,00 1.626,12 0,00 0,00 7.312,97 684,71 565,71 0,00 1.250,42 6.062,55 685,50 537,87 31/12/2014
873 199300 ERTON PORTINARI DE ANDRADE OFICIAL DO MP ATIVO SETE LAGOAS - COMARCA; SETE LAGOAS-PJ-01PJ 8.501,02 2.550,31 0,00 2.479,59 3.683,78 0,00 17.214,70 1.330,62 2.792,86 0,00 4.123,48 13.091,22 685,50 1.045,20 31/12/2014
874 430400 ESDRAS SOARES VILAS BOAS RIBEIRO OFICIAL DO MP ATIVO BELO HORIZONTE - COMARCA; BH-17PJ PATRIMONIO PUBLICO-SECRETARIA 4.848,98 484,90 0,00 1.845,30 0,00 0,00 7.179,18 586,73 479,32 0,00 1.066,05 6.113,13 685,50 0,00 31/12/2014
875 618800 ESLY DE CARLA AYALLA BARBOSA MENDES OFICIAL DO MP ATIVO ITABIRITO - COMARCA; ITABIRITO-PJ-01PJ 2.859,08 0,00 0,00 1.246,08 0,00 0,00 4.105,16 314,50 56,76 0,00 371,26 3.733,90 920,50 0,00 31/12/2014
876 537000 ESTANISLAU CORREIA ALMEIDA JUNIOR OFICIAL DO MP ATIVO UBERLÂNDIA - COMARCA; UBERLANDIA-PJ-25PJ 2.952,15 0,00 0,00 1.088,35 0,00 0,00 4.040,50 324,74 62,98 0,00 387,72 3.652,78 685,50 0,00 31/12/2014
877 326900 ESTER ALICE PIMENTA OFICIAL DO MP ATIVO BELO HORIZONTE - COMARCA; COORD DE INCLUSAO E MOBILIZACAO SOCIAIS 6.068,01 606,80 0,00 1.814,52 2.224,94 0,00 10.714,27 803,68 1.369,95 0,00 2.173,63 8.540,64 685,50 631,35 31/12/2014
878 503700 ESTHER GONCALVES FONSECA ANALISTA DO MP ATIVO BELO HORIZONTE - COMARCA; DIRETORIA DE PUBLICIDADE INSTITUCIONAL 5.169,86 310,19 0,00 1.858,71 0,00 0,00 7.338,76 602,81 515,09 0,00 1.117,90 6.220,86 685,50 0,00 31/12/2014
879 475600 ETIENE DE FATIMA OLIVEIRA PEREIRA ANALISTA DO MP ATIVO PATROCÍNIO - COMARCA; PATROCINIO-PJ-04PJ 6.265,58 375,93 0,00 1.840,24 2.213,84 0,00 10.695,59 730,57 1.358,74 0,00 2.089,31 8.606,28 920,50 0,00 31/12/2014
880 428800 EUGENIA RODRIGUES TRAJANO BORGES ANALISTA DO MP ATIVO UBERABA - COMARCA; UBERABA-PJ-08PJ 7.014,37 701,44 0,00 1.946,87 0,00 0,00 9.662,68 848,74 1.062,29 0,00 1.911,03 7.751,65 685,50 0,00 31/12/2014
881 272700 EUGENIO DE BARCELOS FILHO OFICIAL DO MP ATIVO FRUTAL - COMARCA; FRUTAL-PJ-02PJ 5.169,86 1.033,97 0,00 2.376,20 2.067,94 0,00 10.647,97 746,96 1.211,50 0,00 1.958,46 8.689,51 685,50 586,77 31/12/2014
882 254100 EULALIA ALVES MIRANDA LUCAS OFICIAL DO MP ATIVO ALMENARA - COMARCA; ALMENARA-PJ-SECRETARIA 6.469,61 2.402,24 0,00 2.351,43 0,00 0,00 11.223,28 853,99 1.230,50 0,00 2.084,49 9.138,79 685,50 0,00 31/12/2014
883 615500 EUNICE BARBOSA PINTO OFICIAL DO MP ATIVO CARLOS CHAGAS - COMARCA; CARLOS CHAGAS-PJ-UNPJ 2.859,08 0,00 0,00 1.219,87 0,00 0,00 4.078,95 314,50 56,76 0,00 371,26 3.707,69 685,50 0,00 31/12/2014
884 557900 EURIPEDES JUSUE PERES OFICIAL DO MP ATIVO IBIÁ - COMARCA; IBIA-PJ-UNPJ 2.952,15 0,00 0,00 2.564,43 0,00 0,00 5.516,58 324,74 62,98 0,00 387,72 5.128,86 812,22 0,00 31/12/2014
885 225800 EURO CESAR VIEIRA BARBOSA ANALISTA DO MP ATIVO BELO HORIZONTE - COMARCA; BH-17PJ PATRIMONIO PUBLICO 12.356,19 3.706,86 0,00 4.158,28 5.354,35 0,00 25.575,68 1.766,94 4.478,89 0,00 6.245,83 19.329,85 920,50 0,00 31/12/2014
886 199400 EUSTAQUIO ADAILTON LIMA E SILVA OFICIAL DO MP ATIVO MANGA - COMARCA; MANGA-PJ-01PJ 8.501,02 4.250,51 0,00 4.351,61 0,00 0,00 17.103,14 1.589,69 2.097,11 0,00 3.686,80 13.416,34 685,50 1.700,20 31/12/2014
887 249000 EUSTAQUIO GOMES DE OLIVEIRA OFICIAL DO MP ATIVO BELO HORIZONTE - COMARCA; CAO-TS-CONTROLADORIA E APOIO AS ENTIDADES  6.578,93 2.631,57 0,00 2.240,49 0,00 0,00 11.450,99 1.013,16 1.428,12 0,00 2.441,28 9.009,71 2.652,37 180,30 31/12/2014
888 67100 EVA DAS DORES BARROS VALGAS ANALISTA DO MP ATIVO FERROS - COMARCA; FERROS-PJ-SECRETARIA 13.882,65 9.717,87 0,00 4.352,96 7.866,84 0,00 35.820,32 2.596,06 7.014,62 0,00 9.610,68 26.209,64 685,50 0,00 31/12/2014
889 548000 EVA VILMA LEAO DOS REIS JULIO OFICIAL DO MP ATIVO BELO HORIZONTE - COMARCA; BH-15PJ M AMB 16PJ HAB URB-SECRETARIA 3.250,03 650,01 0,00 3.285,41 1.300,01 0,00 8.485,46 429,00 485,89 0,00 914,89 7.570,57 685,50 0,00 31/12/2014
890 517000 EVALDO SENA COSTA FILHO ANALISTA DO MP ATIVO CONTAGEM - COMARCA; CONTAGEM-PJ-15PJ 6.068,01 1.213,60 0,00 2.032,06 0,00 0,00 9.313,67 800,98 807,76 0,00 1.608,74 7.704,93 920,50 0,00 31/12/2014
891 217500 EVELANGE LEAO RABELO ASSESSOR ATIVO BELO HORIZONTE - COMARCA; COORD EST DEF DIR FAMILIA PESSOA DEFICI IDOSO 0,00 471,82 2.359,08 1.360,57 0,00 0,00 4.191,47 698,20 134,41 0,00 832,61 3.358,86 685,50 0,00 31/12/2014
892 540400 EVIE SARAMELLA DE RESENDE OFICIAL DO MP ATIVO BARBACENA - COMARCA; BARBACENA-PJ-05PJ 2.952,15 0,00 0,00 2.564,43 0,00 0,00 5.516,58 324,74 62,98 0,00 387,72 5.128,86 685,50 0,00 31/12/2014
893 469000 EWERTON CARDOSO DE SA RODRIGUES ANALISTA DO MP ATIVO CAMPO BELO - COMARCA; CAMPO BELO-PJ-01PJ 6.793,15 407,59 0,00 1.840,24 0,00 0,00 9.040,98 976,62 886,81 0,00 1.863,43 7.177,55 685,50 1.677,66 31/12/2014
894 368900 FABIANA BARBOSA SIQUEIRA OFICIAL DO MP ATIVO BELO HORIZONTE - COMARCA; CAO-ORDEM ECONOMICA E TRIBUTARIA-SECRETARIA 5.691,44 569,14 0,00 2.457,61 0,00 0,00 8.718,19 688,66 656,71 0,00 1.345,37 7.372,82 920,50 0,00 31/12/2014
895 273800 FABIANA CARNEIRO AMORIM COORDENADOR/OFICIAL ATIVO BELO HORIZONTE - COMARCA; BH-23PJ INFRACIONAL-COORD ADM INFRACIONAL 0,00 1.812,72 9.063,59 2.827,48 3.625,44 0,00 17.329,23 978,64 2.793,86 0,00 3.772,50 13.556,73 685,50 0,00 31/12/2014
896 519300 FABIANA DE OLIVEIRA LOUREIRO ANALISTA DO MP ATIVO BELO HORIZONTE - COMARCA; BH-09PJ AUDITORIA MILITAR 6.068,01 0,00 0,00 1.707,52 0,00 0,00 7.775,53 667,48 659,00 0,00 1.326,48 6.449,05 920,50 0,00 31/12/2014
897 363400 FABIANA DOURADO DUPIN VIEGAS ANALISTA DO MP ATIVO BELO HORIZONTE - COMARCA; GABINETE DE PROCURADOR DE JUSTIÇA - SALA 705 8.754,97 935,87 0,00 2.233,82 0,00 0,00 11.924,66 1.443,74 1.478,00 0,00 2.921,74 9.002,92 1.155,50 2.830,41 31/12/2014
898 410800 FABIANA DUARTE QUITITE ANALISTA DO MP ATIVO BELO HORIZONTE - COMARCA; COORD ESTADUAL COMBATE CRIMES CIBERNETICOS 7.973,40 797,34 0,00 2.627,56 2.923,58 0,00 14.321,88 964,78 2.124,47 0,00 3.089,25 11.232,63 685,50 0,00 31/12/2014
899 419500 FABIANA EULALIA DOS SANTOS ANALISTA DO MP ATIVO SÃO JOÃO DEL REI - COMARCA; SAO JOAO DEL REI-PJ-01PJ 7.014,37 701,44 0,00 2.902,39 2.571,94 0,00 13.190,14 848,74 1.769,58 0,00 2.618,32 10.571,82 685,50 0,00 31/12/2014
900 376300 FABIANA MATTOSO LEMOS ANALISTA DO MP ATIVO BELO HORIZONTE - COMARCA; COORD-GERAL DAS PJS POR BACIA HIDRO. DE MG 8.233,02 823,30 0,00 2.284,37 3.018,77 0,00 14.359,46 996,20 2.220,54 0,00 3.216,74 11.142,72 685,50 0,00 31/12/2014
901 331500 FABIANA PACHECO OFICIAL DO MP ATIVO GUAXUPÉ - COMARCA; GUAXUPE-PJ-01PJ 5.876,69 587,67 0,00 1.834,34 2.154,79 0,00 10.453,49 778,33 1.249,73 0,00 2.028,06 8.425,43 685,50 611,34 31/12/2014
902 510700 FABIANA PEREIRA SANTOS BORGES ANALISTA DO MP ATIVO BELO HORIZONTE - COMARCA; DIRETORIA DE SISTEMAS DE INFORMACAO 6.265,58 375,93 0,00 2.269,91 0,00 0,00 8.911,42 799,68 749,94 0,00 1.549,62 7.361,80 685,50 628,26 31/12/2014
903 181700 FABIANA SOUZA FERREIRA OFICIAL DO MP ATIVO BELO HORIZONTE - COMARCA; BH-19PJ SAUDE-SECRETARIA 150PJ 4.404,59 880,92 0,00 1.686,75 1.761,84 0,00 8.734,10 581,41 853,14 0,00 1.434,55 7.299,55 920,50 0,00 31/12/2014
904 272900 FABIANA STOCKLER LEITE OFICIAL DO MP ATIVO LAJINHA - COMARCA; LAJINHA-PJ-SECRETARIA 6.469,61 2.587,84 0,00 2.512,37 0,00 0,00 11.569,82 1.090,58 1.291,82 0,00 2.382,40 9.187,42 1.055,16 856,92 31/12/2014
905 225500 FABIANE DE FATIMA PORTELLA ANALISTA DO MP ATIVO BELO HORIZONTE - COMARCA; SERVICO MEDICO-DEPTO PERIC MEDICA SAUDE OCUP 11.885,64 2.377,13 0,00 3.438,44 0,00 0,00 17.701,21 1.568,90 2.664,66 0,00 4.233,56 13.467,65 685,50 0,00 31/12/2014
906 433800 FABIANE DINIZ MATTOS ANALISTA DO MP ATIVO BELO HORIZONTE - COMARCA; BH-23PJ INFRACIONAL-ASS JURIDICA 7.014,37 701,44 0,00 2.204,41 0,00 0,00 9.920,22 892,39 1.159,42 0,00 2.051,81 7.868,41 685,50 396,84 31/12/2014
907 455000 FABIANO CARVALHO DA SILVA ANALISTA DO MP ATIVO LAVRAS - COMARCA; COORD REG DO MA DA BACIA DO RIO GRANDE 6.793,15 407,59 0,00 2.151,67 2.400,25 0,00 11.752,66 792,08 1.596,30 0,00 2.388,38 9.364,28 4.230,79 324,98 31/12/2014
908 498800 FABIANO FURTADO PESSOA COELHO ANALISTA DO MP ATIVO BELO HORIZONTE - COMARCA; DIRETORIA DE REDES E BANCOS DE DADOS 6.265,58 375,93 0,00 2.126,99 0,00 0,00 8.768,50 793,19 889,28 0,00 1.682,47 7.086,03 1.155,50 569,30 31/12/2014
909 394600 FABIANO PALHARES SILVA ANALISTA DO MP ATIVO BELO HORIZONTE - COMARCA; CENTRAL DE APOIO TECN-SETOR DE MEIO AMBIENTE 8.233,02 823,30 0,00 2.149,52 0,00 0,00 11.205,84 1.090,44 1.340,96 0,00 2.431,40 8.774,44 2.886,24 1.036,93 31/12/2014
910 444400 FABIANO SARAIVA MEDEIROS ANALISTA DO MP ATIVO BETIM - COMARCA; BETIM-PJ-11PJ 6.793,15 679,32 0,00 1.921,48 2.490,82 0,00 11.884,77 881,75 1.638,29 0,00 2.520,04 9.364,73 920,50 543,46 31/12/2014
911 408700 FABIANO SOARES PORTILHO ANALISTA DO MP ATIVO VIÇOSA - COMARCA; VICOSA-PJ-02PJ 7.014,37 701,44 0,00 1.946,87 2.571,94 0,00 12.234,62 848,74 1.769,58 0,00 2.618,32 9.616,30 685,50 0,00 31/12/2014
912 384301 FABIO BRUNO DA SILVA ANALISTA DO MP ATIVO BONFIM - COMARCA; BONFIM-PJ-UNPJ 6.469,61 646,96 0,00 1.859,83 0,00 0,00 8.976,40 782,82 915,63 0,00 1.698,45 7.277,95 4.230,79 324,98 31/12/2014
913 442600 FABIO CARVALHO VIEIRA ANALISTA DO MP ATIVO MONTES CLAROS - COMARCA; MONTES CLAROS-PJ-06PJ 5.691,44 569,14 0,00 1.702,43 2.086,86 0,00 10.049,87 738,74 1.280,01 0,00 2.018,75 8.031,12 685,50 455,32 31/12/2014
914 123700 FABIO JOSE ANDRADE NOGUEIRA OFICIAL DO MP ATIVO FORMIGA - COMARCA; FORMIGA-PJ-SECRETARIA 7.721,95 5.405,38 0,00 3.755,51 0,00 0,00 16.882,84 1.444,01 1.364,14 0,00 2.808,15 14.074,69 685,50 0,00 31/12/2014
915 240101 FABIO JUNQUEIRA DE ASSIS FONSECA OFICIAL DO MP ATIVO BELO HORIZONTE - COMARCA; DIRET DE DESENV DE RECURSOS HUMANOS-DDRH 4.265,74 426,57 0,00 1.465,24 1.564,10 0,00 7.721,65 564,99 752,42 0,00 1.317,41 6.404,24 685,50 444,03 31/12/2014
916 271500 FABIO LUIZ VIEIRA OFICIAL DO MP ATIVO SANTA VITÓRIA - COMARCA; SANTA VITORIA-PJ-UNPJ 6.265,58 1.253,12 0,00 1.917,00 2.506,23 0,00 11.941,93 1.131,80 1.762,14 0,00 2.893,94 9.047,99 839,58 2.770,36 31/12/2014
917 213100 FABIO PRATES GONCALVES ASSESSOR ATIVO BELO HORIZONTE - COMARCA; DIRETORIA DE RELACOES PUBLICAS E CERIMONIAL 6.265,58 1.879,67 0,00 2.749,50 2.715,08 0,00 13.609,83 965,86 2.117,31 0,00 3.083,17 10.526,66 920,50 1.253,12 31/12/2014
918 436700 FABIO SANTIAGO DE CARVALHO OFICIAL DO MP ATIVO POÇO FUNDO - COMARCA; POCO FUNDO-PJ-UNPJ 5.006,87 500,69 0,00 1.697,87 0,00 0,00 7.205,43 663,14 521,83 0,00 1.184,97 6.020,46 685,50 521,04 31/12/2014
919 208400 FABIOLA DE SOUSA CARDOSO ASSESSOR/ANALISTA ATIVO BELO HORIZONTE - COMARCA; ASSESS TECNICA DA CORREGEDORIA-GERAL DO MP 13.882,65 6.097,48 0,00 3.997,97 6.660,04 0,00 30.638,14 2.290,64 5.953,96 0,00 8.244,60 22.393,54 685,50 2.776,54 31/12/2014
920 392200 FABIOLA LEROY COSTA ANALISTA DO MP ATIVO ESMERALDAS - COMARCA; ESMERALDAS-PJ-01PJ 6.469,61 646,96 0,00 5.418,12 0,00 0,00 12.534,69 782,82 915,63 0,00 1.698,45 10.836,24 685,50 0,00 31/12/2014
921 409000 FABIOLA MONTEIRO DE CARVALHO CASTRO ANALISTA DO MP ATIVO BOM SUCESSO - COMARCA; BOM SUCESSO-PJ-UNPJ 7.014,37 701,44 0,00 1.946,87 0,00 0,00 9.662,68 848,74 1.062,29 0,00 1.911,03 7.751,65 685,50 0,00 31/12/2014
922 227900 FABIOLA PIMENTA DE CARVALHO OFICIAL DO MP ATIVO MONTES CLAROS - COMARCA; COORD REG BACIA RIOS VERDE GRANDE E PARDO 5.876,69 1.175,34 0,00 1.867,58 2.350,68 0,00 11.270,29 849,08 1.496,85 0,00 2.345,93 8.924,36 685,50 666,90 31/12/2014
923 525800 FABRICIA ALVES DANTAS OFICIAL DO MP ATIVO MONTES CLAROS - COMARCA; MONTES CLAROS-PJ-01PJ 3.938,84 0,00 0,00 1.399,26 1.312,95 0,00 6.651,05 433,27 400,34 0,00 833,61 5.817,44 920,50 0,00 31/12/2014
924 263400 FABRICIA PINTO TEIXEIRA SANTIAGO OFICIAL DO MP ATIVO BELO HORIZONTE - COMARCA; CAO-TS-TERCEIRO SETOR-SECRETARIA 6.578,93 1.315,79 0,00 2.137,29 0,00 0,00 10.032,01 868,42 1.007,24 0,00 1.875,66 8.156,35 920,50 0,00 31/12/2014
925 420800 FABRICIO BERNARDES DE OLIVEIRA OFICIAL DO MP ATIVO ITURAMA - COMARCA; ITURAMA-PJ-02PJ 5.006,87 500,69 0,00 1.650,31 0,00 0,00 7.157,87 663,14 472,41 0,00 1.135,55 6.022,32 764,35 521,04 31/12/2014
926 474000 FABRICIO DE FREITAS SALES ANALISTA DO MP ATIVO BELO HORIZONTE - COMARCA; SUPERINTENDENCIA DE RECURSOS HUMANOS 6.265,58 375,93 0,00 1.790,82 2.213,84 0,00 10.646,17 730,57 1.408,16 0,00 2.138,73 8.507,44 920,50 0,00 31/12/2014
927 510100 FABRICIO FURTADO ASSIS DO CARMO ANALISTA DO MP ATIVO BELO HORIZONTE - COMARCA; SERVICO MEDICO-DEPTO PERIC MEDICA SAUDE OCUP 5.691,44 1.080,37 0,00 2.498,62 0,00 0,00 9.270,43 663,62 853,60 0,00 1.517,22 7.753,21 685,50 16.404,16 31/12/2014
928 519600 FABRICIO GONTIJO SALVATI ANALISTA DO MP ATIVO JUIZ DE FORA - COMARCA; JUIZ DE FORA-PJ-13PJ 6.068,01 0,00 0,00 4.741,53 2.022,67 0,00 12.832,21 667,48 1.215,23 0,00 1.882,71 10.949,50 685,50 0,00 31/12/2014
929 428200 FABRICIO ORZIL VIANA ANALISTA DO MP ATIVO SANTA LUZIA - COMARCA; SANTA LUZIA-PJ-04PJ 6.469,61 646,96 0,00 2.709,06 0,00 0,00 9.825,63 782,82 915,63 0,00 1.698,45 8.127,18 711,49 2,38 31/12/2014
930 455600 FABRICIO PAIVA DA ROCHA ANALISTA DO MP ATIVO ANDRELÂNDIA - COMARCA; ANDRELANDIA-PJ-UNPJ 6.793,15 407,59 0,00 2.201,09 0,00 0,00 9.401,83 792,08 886,81 0,00 1.678,89 7.722,94 685,50 0,00 31/12/2014
931 511500 FABRICIO RENE CARDOSO DE PADUA ANALISTA DO MP ATIVO SÃO SEBASTIÃO DO PARAÍSO - COMARCA; SAO SEBASTIAO DO PARAISO-PJ-03PJ 6.265,58 375,93 0,00 1.942,45 0,00 0,00 8.583,96 799,68 799,36 0,00 1.599,04 6.984,92 685,50 628,26 31/12/2014
932 496100 FABRICIO RESENDE GONCALVES OFICIAL DO MP ATIVO ENTRE-RIOS DE MINAS - COMARCA; ENTRE RIOS DE MINAS-PJ-UNPJ 4.000,95 1.348,38 0,00 4.156,52 0,00 0,00 9.505,85 573,73 516,63 0,00 1.090,36 8.415,49 685,50 974,79 31/12/2014
933 514900 FADUA MARIA DRUMOND CHEQUER FIGUEIREDO ANALISTA DO MP ATIVO ALMENARA - COMARCA; COORD REG INCLUSAO MOBILIZ VALE JEQUITINHONHA 6.068,01 0,00 0,00 1.707,52 0,00 0,00 7.775,53 667,48 659,00 0,00 1.326,48 6.449,05 685,50 0,00 31/12/2014
934 282500 FANNY FERREIRA MELO FAVERO DE FRAVET OFICIAL DO MP ATIVO ARAXÁ - COMARCA; ARAXA-PJ-03PJ 5.511,94 1.102,39 0,00 2.089,92 2.204,78 0,00 10.909,03 727,58 1.399,02 0,00 2.126,60 8.782,43 920,50 0,00 31/12/2014
935 540100 FATIMA CRISTINA POVOA DA COSTA OFICIAL DO MP ATIVO BELO HORIZONTE - COMARCA; BH-18PJ VIOLENCIA DOMESTICA-SECRETARIA 2.952,15 590,43 0,00 3.014,99 0,00 0,00 6.557,57 389,68 137,91 0,00 527,59 6.029,98 685,50 0,00 31/12/2014
936 382800 FATIMA DE OLIVEIRA COELHO E SILVA OFICIAL DO MP ATIVO BELO HORIZONTE - COMARCA; DIRETORIA DE ADMINISTRACAO FINANCEIRA 4.131,19 826,24 0,00 1.584,06 1.652,48 0,00 8.193,97 545,32 792,19 0,00 1.337,51 6.856,46 920,50 0,00 31/12/2014
937 398601 FELIPE ANTONIO HORTA DE PAULA ANALISTA DO MP ATIVO BELO HORIZONTE - COMARCA; PROC. JUSTICA DIR. DIFUSOS E COLETIVOS-SEC 5.006,87 0,00 0,00 1.553,01 0,00 0,00 6.559,88 550,76 399,66 0,00 950,42 5.609,46 685,50 0,00 31/12/2014
938 430900 FELIPE BOY VIEIRA ANALISTA DO MP ATIVO BELO HORIZONTE - COMARCA; CAO-DH APOIO COMUNITARIO-SEC ADM 7.014,37 701,44 0,00 5.804,78 2.571,94 0,00 16.092,53 848,74 1.769,58 0,00 2.618,32 13.474,21 685,50 0,00 31/12/2014
939 631700 FELIPE DE MORAIS SIMOES COELHO ANALISTA DO MP ATIVO BELO HORIZONTE - COMARCA; BH-18PJ VIOLENCIA DOMESTICA 4.404,59 0,00 0,00 0,00 0,00 0,00 4.404,59 621,78 279,06 0,00 900,84 3.503,75 872,45 1.247,97 31/12/2014
940 549100 FELIPE FERNANDES ALVIM ANALISTA DO MP ATIVO LAJINHA - COMARCA; LAJINHA-PJ-UNPJ 5.006,87 0,00 0,00 1.465,95 0,00 0,00 6.472,82 702,17 399,66 0,00 1.101,83 5.370,99 685,50 1.376,52 31/12/2014
941 487300 FELIPE FERNANDES SILVEIRA ASSESSOR ATIVO BELO HORIZONTE - COMARCA; DIVISAO DE MANUTENCAO PREDIAL 0,00 0,00 2.359,08 1.156,15 0,00 0,00 3.515,23 594,40 71,42 0,00 665,82 2.849,41 685,50 0,00 31/12/2014
942 620100 FELIPE GOMES DE AZEVEDO OFICIAL DO MP ATIVO BELO HORIZONTE - COMARCA; BH-18PJ VIOLENCIA DOMESTICA-SECRETARIA 2.859,08 0,00 0,00 1.272,29 0,00 0,00 4.131,37 314,50 56,76 0,00 371,26 3.760,11 685,50 0,00 31/12/2014
943 601600 FELIPE RODRIGUES DE SIQUEIRA ANALISTA DO MP ATIVO BELO HORIZONTE - COMARCA; BH-02PJ FAMILIA 5.006,87 0,00 0,00 1.854,15 0,00 0,00 6.861,02 579,08 462,31 0,00 1.041,39 5.819,63 685,50 257,52 31/12/2014
944 628900 FELIX FERNANDO JUNIO VIEIRA ANALISTA DO MP ATIVO CAETÉ - COMARCA; CAETE-PJ-02PJ 4.404,59 0,00 0,00 980,02 0,00 0,00 5.384,61 484,50 279,06 0,00 763,56 4.621,05 685,50 0,00 31/12/2014
945 544500 FELLIPE LEMOS MARCONDES BUENO ANALISTA DO MP ATIVO SÃO SEBASTIÃO DO PARAÍSO - COMARCA; SAO SEBASTIAO DO PARAISO-PJ-04PJ 5.006,87 0,00 0,00 1.782,43 0,00 0,00 6.789,30 550,76 399,66 0,00 950,42 5.838,88 685,50 0,00 31/12/2014
946 612600 FERNANDA ADRIANA DE PAULA GUIDO ANALISTA DO MP ATIVO PARACATU - COMARCA; PARACATU-PJ-03PJ 4.848,98 0,00 0,00 3.390,12 0,00 0,00 8.239,10 533,39 368,05 0,00 901,44 7.337,66 685,50 0,00 31/12/2014
947 508400 FERNANDA AGANETTI MATTOS DE OLIVEIRA ANALISTA DO MP ATIVO BELO HORIZONTE - COMARCA; BH-19PJ SAUDE 6.265,58 375,93 0,00 1.942,45 0,00 0,00 8.583,96 799,68 799,36 0,00 1.599,04 6.984,92 685,50 628,26 31/12/2014
948 453600 FERNANDA ALBERNAZ RABELO ANALISTA DO MP ATIVO BELO HORIZONTE - COMARCA; GABINETE DE PROCURADOR DE JUSTIÇA - SALA 616 6.793,15 407,59 0,00 2.151,67 0,00 0,00 9.352,41 792,08 936,23 0,00 1.728,31 7.624,10 685,50 0,00 31/12/2014
949 255600 FERNANDA ALINA DE ALMEIDA ANDRADE OFICIAL DO MP ATIVO BELO HORIZONTE - COMARCA; SUPRIN DE PLANEJAMENTO E COORDENACAO 5.876,69 1.175,34 0,00 1.850,45 0,00 0,00 8.902,48 775,72 899,84 0,00 1.675,56 7.226,92 685,50 0,00 31/12/2014
950 443200 FERNANDA ALMEIDA LOPES ANALISTA DO MP ATIVO CONTAGEM - COMARCA; CONTAGEM-PJ-23PJ 7.014,37 420,86 0,00 1.872,06 0,00 0,00 9.307,29 968,91 1.149,63 0,00 2.118,54 7.188,75 685,50 1.373,03 31/12/2014
951 281100 FERNANDA ANANIAS MEIRA ANALISTA DO MP ATIVO BELO HORIZONTE - COMARCA; BH-23PJ INFRACIONAL-ASS JURIDICA 9.663,38 1.932,68 0,00 2.510,48 3.865,35 0,00 17.971,89 1.341,16 3.220,91 0,00 4.562,07 13.409,82 685,50 596,34 31/12/2014
952 539000 FERNANDA BARBOSA ALVES ANALISTA DO MP ATIVO CANÁPOLIS - COMARCA; CANAPOLIS-PJ-SECRETARIA 5.006,87 0,00 0,00 1.553,01 0,00 0,00 6.559,88 550,76 399,66 0,00 950,42 5.609,46 685,50 0,00 31/12/2014
953 451200 FERNANDA BLOISE PRADO OFICIAL DO MP ATIVO BELO HORIZONTE - COMARCA; NUCLEO DE NEGOCIACAO DE CONFLITOS AMBIENTAIS 4.000,95 240,06 0,00 1.407,69 1.413,67 0,00 7.062,37 466,51 600,60 0,00 1.067,11 5.995,26 685,50 0,00 31/12/2014
954 427900 FERNANDA BRAGA CARNEIRO BICALHO ANALISTA DO MP ATIVO PEÇANHA - COMARCA; PECANHA-PJ-SECRETARIA 7.014,37 701,44 0,00 1.996,29 0,00 0,00 9.712,10 848,74 1.012,87 0,00 1.861,61 7.850,49 685,50 0,00 31/12/2014
955 507100 FERNANDA CABRINI VAZ MOTA ANALISTA DO MP ATIVO BELO HORIZONTE - COMARCA; ASSESSORIA JURIDICO-ADMINISTRATIVA 6.265,58 375,93 0,00 2.077,57 2.213,84 0,00 10.932,92 730,57 1.408,16 0,00 2.138,73 8.794,19 685,50 0,00 31/12/2014
956 259800 FERNANDA CALZAVARA DE SOUSA COORDENADOR/OFICIAL ATIVO BELO HORIZONTE - COMARCA; DIRET DE FORMACAO, APERFEIC. E POS-GRADUACAO 0,00 2.060,57 10.302,83 2.957,81 4.121,13 0,00 19.442,34 896,70 3.460,50 0,00 4.357,20 15.085,14 685,50 0,00 31/12/2014
957 550300 FERNANDA CAMARGOS CALDEIRA BRANT ANALISTA DO MP ATIVO CONTAGEM - COMARCA; CONTAGEM-PJ-10PJ 5.006,87 0,00 0,00 1.553,01 0,00 0,00 6.559,88 550,76 399,66 0,00 950,42 5.609,46 685,50 0,00 31/12/2014
958 494400 FERNANDA CAMPOS BARATA OFICIAL DO MP ATIVO JUIZ DE FORA - COMARCA; JUIZ DE FORA-PJ-08PJ 3.355,81 201,35 0,00 1.401,00 0,00 0,00 4.958,16 391,29 139,85 0,00 531,14 4.427,02 920,50 0,00 31/12/2014
959 555600 FERNANDA CAROLINE RIBEIRO ANALISTA DO MP ATIVO BELO HORIZONTE - COMARCA; EXTINTA - DIRETORIA DE CONTRATOS E CONVÊNIOS 5.006,87 0,00 0,00 1.631,96 0,00 0,00 6.638,83 550,76 399,66 0,00 950,42 5.688,41 685,50 0,00 31/12/2014
960 294500 FERNANDA COSTA FLORES OFICIAL DO MP ATIVO PARÁ DE MINAS - COMARCA; PARA DE MINAS-PJ-04PJ 6.469,61 1.293,92 0,00 2.003,22 2.587,84 0,00 12.354,59 853,99 1.736,21 0,00 2.590,20 9.764,39 685,50 0,00 31/12/2014
961 344500 FERNANDA CRISTINA DE SOUZA PAZ ASSESSOR ATIVO BELO HORIZONTE - COMARCA; CENTRAL DE APOIO TECN-SETOR DE MEIO AMBIENTE 0,00 0,00 3.938,84 1.832,53 0,00 0,00 5.771,37 916,20 247,99 0,00 1.164,19 4.607,18 1.155,50 0,00 31/12/2014
962 538100 FERNANDA CRISTINA DOS SANTOS ROSA MOREIRA OFICIAL DO MP ATIVO RIBEIRÃO DAS NEVES - COMARCA; RIBEIRAO DAS NEVES-PJ-09PJ 3.250,03 650,01 0,00 3.285,41 0,00 0,00 7.185,45 429,00 185,63 0,00 614,63 6.570,82 685,50 0,00 31/12/2014
963 337800 FERNANDA CRISTINA REIS ROLAND CLIMACO DA SILVA ASSESSOR/OFICIAL ATIVO BELO HORIZONTE - COMARCA; DIRETORIA-GERAL 0,00 877,78 8.777,78 2.499,37 0,00 0,00 12.154,93 897,08 1.582,43 0,00 2.479,51 9.675,42 685,50 0,00 31/12/2014
964 545400 FERNANDA CUNHA GUIMARAES ANALISTA DO MP ATIVO BELO HORIZONTE - COMARCA; EXTINTA - COORD DEFESA DO DIREITO DE FAMILIA 4.548,03 0,00 0,00 1.869,98 0,00 0,00 6.418,01 500,28 307,78 0,00 808,06 5.609,95 685,50 0,00 31/12/2014
965 429801 FERNANDA CUNHA PINHEIRO DA SILVA ANALISTA DO MP ATIVO BELO HORIZONTE - COMARCA; DIRETORIA DE PRODUCAO EDITORIAL 5.511,94 330,72 0,00 2.191,37 0,00 0,00 8.034,03 715,45 634,16 0,00 1.349,61 6.684,42 685,50 771,68 31/12/2014
966 408000 FERNANDA DAS NEVES RAMOS ANALISTA DO MP ATIVO BELO HORIZONTE - COMARCA; CENTRAL DE APOIO TECNICO-SETOR CONTABIL 7.014,37 701,44 0,00 1.946,87 2.571,94 0,00 12.234,62 848,74 1.769,58 0,00 2.618,32 9.616,30 685,50 0,00 31/12/2014
967 496000 FERNANDA DE ALMEIDA VIANA ASSESSOR/ANALISTA ATIVO BELO HORIZONTE - COMARCA; PROC JUST RECURSOS ESP E EXTRAORD CRIMINAIS 0,00 478,40 7.973,40 3.390,03 2.817,27 0,00 14.659,10 730,57 2.071,94 0,00 2.802,51 11.856,59 685,50 0,00 31/12/2014
968 266700 FERNANDA DE CASTRO LUCAS ASSESSOR/OFICIAL ATIVO BELO HORIZONTE - COMARCA; DIRET DE DESENV DE RECURSOS HUMANOS-DDRH 0,00 1.755,56 8.777,78 2.566,55 3.511,11 0,00 16.611,00 868,42 3.300,52 0,00 4.168,94 12.442,06 685,50 1.830,06 31/12/2014
969 433200 FERNANDA DE FIGUEIREDO NORTE ANALISTA DO MP ATIVO BELO HORIZONTE - COMARCA; ASSESS JUR DO CONS SUPERIOR DO MINISTERIO PUB 7.014,37 701,44 0,00 2.253,83 0,00 0,00 9.969,64 848,74 1.012,87 0,00 1.861,61 8.108,03 920,50 0,00 31/12/2014
970 419200 FERNANDA DE MIRANDA MARTINS SIMOES ANALISTA DO MP ATIVO UBERLÂNDIA - COMARCA; UBERLANDIA-PJ-19PJ 7.973,40 797,34 0,00 2.627,56 2.923,58 0,00 14.321,88 964,78 2.124,47 0,00 3.089,25 11.232,63 685,50 0,00 31/12/2014
971 441400 FERNANDA DE MORAIS PINTO ANALISTA DO MP ATIVO BELO HORIZONTE - COMARCA; PROC. JUSTICA DIR. DIFUSOS E COLETIVOS-SEC 7.014,37 701,44 0,00 2.204,41 0,00 0,00 9.920,22 848,74 1.062,29 0,00 1.911,03 8.009,19 685,50 0,00 31/12/2014
972 432200 FERNANDA DE MOURA GUIMARAES ANALISTA DO MP ATIVO BELO HORIZONTE - COMARCA; ASSESS TECNICO-JUR JUNTO AS PROC. DE JUST 7.014,37 701,44 0,00 2.204,41 0,00 0,00 9.920,22 848,74 1.062,29 0,00 1.911,03 8.009,19 685,50 0,00 31/12/2014
973 461800 FERNANDA DE OLIVEIRA SANTOS ANALISTA DO MP ATIVO JUIZ DE FORA - COMARCA; JUIZ DE FORA-PJ-21PJ 6.793,15 407,59 0,00 1.790,82 2.400,25 0,00 11.391,81 976,62 1.596,30 0,00 2.572,92 8.818,89 920,50 1.677,66 31/12/2014
974 432500 FERNANDA DE PAULA ABRANTES ANALISTA DO MP ATIVO BELO HORIZONTE - COMARCA; PROC JUST RECURSOS ESP E EXTRAORD CRIMINAIS 7.014,37 701,44 0,00 2.204,41 0,00 0,00 9.920,22 848,74 1.062,29 0,00 1.911,03 8.009,19 685,50 0,00 31/12/2014
975 431600 FERNANDA DIAS BARBOSA MENEZES ANALISTA DO MP ATIVO OURO BRANCO - COMARCA; OURO BRANCO-PJ-UNPJ 7.014,37 701,44 0,00 2.303,25 2.571,94 0,00 12.591,00 848,74 1.670,74 0,00 2.519,48 10.071,52 920,50 0,00 31/12/2014
976 162200 FERNANDA FERNANDES MONTEIRO ASSESSOR ATIVO BELO HORIZONTE - COMARCA; CAO-DH APOIO COMUNITARIO-SEC ADM 0,00 1.181,65 3.938,84 2.160,18 1.706,83 0,00 8.987,50 965,86 1.057,65 0,00 2.023,51 6.963,99 920,50 0,00 31/12/2014
977 512800 FERNANDA FERREIRA BARBOSA MOREIRA ANALISTA DO MP ATIVO IPATINGA - COMARCA; IPATINGA-PJ-05PJ 5.691,44 341,49 0,00 1.840,16 0,00 0,00 7.873,09 726,41 650,41 0,00 1.376,82 6.496,27 920,50 570,81 31/12/2014
978 329200 FERNANDA GABRIEL GUZELLA OFICIAL DO MP ATIVO BELO HORIZONTE - COMARCA; ASSESS ESPECIAL DO PGJ ATUACAO JUNTO A PGJAI 5.691,44 569,14 0,00 1.735,50 0,00 0,00 7.996,08 688,66 706,13 0,00 1.394,79 6.601,29 685,50 0,00 31/12/2014
979 324200 FERNANDA GEORGIA NEVES ZAHAN OFICIAL DO MP ATIVO IPANEMA - COMARCA; IPANEMA-PJ-SECRETARIA 5.006,87 2.503,43 0,00 2.134,27 2.503,43 0,00 12.148,00 883,97 1.730,28 0,00 2.614,25 9.533,75 685,50 525,77 31/12/2014
980 548200 FERNANDA GONCALVES DE CARVALHO ZUZA OFICIAL DO MP ATIVO TUPACIGUARA - COMARCA; TUPACIGUARA-PJ-UNPJ 2.952,15 0,00 0,00 1.088,35 0,00 0,00 4.040,50 324,74 62,98 0,00 387,72 3.652,78 685,50 0,00 31/12/2014
981 355400 FERNANDA HELENA BASQUES OFICIAL DO MP ATIVO SABARÁ - COMARCA; SABARA-PJ-01PJ 5.691,44 569,14 0,00 1.735,50 2.086,86 0,00 10.082,94 688,66 1.280,01 0,00 1.968,67 8.114,27 685,50 0,00 31/12/2014
982 454800 FERNANDA IATAROLA BARBOSA DIAS ANALISTA DO MP ATIVO BARBACENA - COMARCA; BARBACENA-PJ-05PJ 6.793,15 407,59 0,00 2.201,09 0,00 0,00 9.401,83 792,08 886,81 0,00 1.678,89 7.722,94 685,50 0,00 31/12/2014
983 515500 FERNANDA LILIANE MARUGEIRO ANALISTA DO MP ATIVO VESPASIANO - COMARCA; VESPASIANO-PJ-04PJ 6.068,01 364,08 0,00 1.707,52 0,00 0,00 8.139,61 787,63 748,10 0,00 1.535,73 6.603,88 685,50 728,16 31/12/2014
984 392900 FERNANDA MAGALHAES SILVA COORDENADOR/ANALISTA ATIVO BELO HORIZONTE - COMARCA; DIRETORIA DE IMPRENSA 0,00 1.030,28 10.302,83 2.653,85 0,00 0,00 13.986,96 996,20 2.016,50 0,00 3.012,70 10.974,26 685,50 0,00 31/12/2014
985 409200 FERNANDA MAIA SANTIAGO ANALISTA DO MP ATIVO PIRAPORA - COMARCA; PIRAPORA-PJ-02PJ 6.469,61 646,96 0,00 1.765,10 0,00 0,00 8.881,67 998,05 915,63 0,00 1.913,68 6.967,99 685,50 1.956,63 31/12/2014
986 621200 FERNANDA MEYGE DE BRITO ANALISTA DO MP ATIVO BELO HORIZONTE - COMARCA; BH-12PJ JUIZO CRIMINAL 4.848,98 0,00 0,00 2.130,04 0,00 0,00 6.979,02 533,39 368,05 0,00 901,44 6.077,58 685,50 0,00 31/12/2014
987 556500 FERNANDA OTERO COSTA ANALISTA DO MP ATIVO BELO HORIZONTE - COMARCA; ASSESS TECNICO-JUR JUNTO AS PROC. DE JUST 5.006,87 0,00 0,00 1.854,15 0,00 0,00 6.861,02 550,76 399,66 0,00 950,42 5.910,60 685,50 0,00 31/12/2014
988 615300 FERNANDA PATRICIA RIBEIRO MOTA OFICIAL DO MP ATIVO UBERABA - COMARCA; UBERABA-PJ-05PJ 2.859,08 0,00 0,00 1.696,38 0,00 0,00 4.555,46 314,50 56,76 0,00 371,26 4.184,20 685,50 0,00 31/12/2014
989 619800 FERNANDA PINTO PEREIRA ANALISTA DO MP ATIVO UBERLÂNDIA - COMARCA; UBERLANDIA-PJ-20PJ 4.848,98 0,00 0,00 2.130,04 0,00 0,00 6.979,02 533,39 368,05 0,00 901,44 6.077,58 685,50 0,00 31/12/2014
990 412900 FERNANDA PORTELA ROSA ANALISTA DO MP ATIVO BELO HORIZONTE - COMARCA; BH-08PJ JUIZADO ESPECIAL-SECRETARIA 7.973,40 797,34 0,00 3.583,08 0,00 0,00 12.353,82 1.179,80 1.798,90 0,00 2.978,70 9.375,12 685,50 1.954,68 31/12/2014
991 274301 FERNANDA QUEIROZ PARREIRA ANALISTA DO MP ATIVO PATOS DE MINAS - COMARCA; COORD REG PJ DEF EDU DIR CRI ADO AL PAR NOROE 6.265,58 375,93 0,00 2.077,57 2.213,84 0,00 10.932,92 730,57 1.408,16 0,00 2.138,73 8.794,19 685,50 0,00 31/12/2014
992 467900 FERNANDA QUEIROZ SIMOES GANNAM ANALISTA DO MP ATIVO SÃO LOURENÇO - COMARCA; SAO LOURENCO-PJ-02PJ 6.793,15 407,59 0,00 1.790,82 0,00 0,00 8.991,56 976,62 936,23 0,00 1.912,85 7.078,71 685,50 1.677,66 31/12/2014
993 255500 FERNANDA SIMOES LOPES MENDES ANALISTA DO MP ATIVO BELO HORIZONTE - COMARCA; BH-17PJ PATRIMONIO PUBLICO-SECRETARIA 10.984,62 2.196,92 0,00 3.443,61 4.393,85 0,00 21.019,00 1.449,97 3.509,50 0,00 4.959,47 16.059,53 1.155,50 0,00 31/12/2014
994 481700 FERNANDA VIANA FROES DA SILVA OFICIAL DO MP ATIVO GOVERNADOR VALADARES - COMARCA; GOVERNADOR VALADARES-PJ-09PJ 4.000,95 240,06 0,00 1.407,69 0,00 0,00 5.648,70 466,51 246,30 0,00 712,81 4.935,89 1.155,50 0,00 31/12/2014
995 123900 FERNANDO ANTONIO FARIA ABREU ASSESSOR/ANALISTA ATIVO BELO HORIZONTE - COMARCA; PROCURADORIA-GERAL ADJUNTA ADMINISTRATIVA 20.299,65 21.542,83 0,00 5.127,04 8.863,23 2.924,86 58.757,61 2.924,86 8.923,40 15.252,80 27.101,06 31.656,55 685,50 2.924,86 31/12/2014
996 416900 FERNANDO APARECIDO DA SILVA ANALISTA DO MP ATIVO BOM DESPACHO - COMARCA; BOM DESPACHO-PJ-01PJ 7.014,37 2.805,75 0,00 2.351,37 0,00 0,00 12.171,49 1.080,21 1.478,48 0,00 2.558,69 9.612,80 920,50 0,00 31/12/2014
997 395900 FERNANDO AUGUSTO ETO LAGES ANALISTA DO MP ATIVO BELO HORIZONTE - COMARCA; CENTRAL DE APOIO TECN-SETOR DE MEIO AMBIENTE 8.233,02 823,30 0,00 2.100,10 3.018,77 0,00 14.175,19 1.090,44 2.220,54 0,00 3.310,98 10.864,21 798,48 867,10 31/12/2014
998 380500 FERNANDO BONES COSTA OFICIAL DO MP ATIVO BELO HORIZONTE - COMARCA; EXTINTA - DIVISÃO DE MATERIAL PERMANENTE 4.131,19 413,12 0,00 1.465,24 1.514,77 0,00 7.524,32 499,87 702,63 0,00 1.202,50 6.321,82 685,50 0,00 31/12/2014
999 500100 FERNANDO CEZAR PINTO ASSESSOR/OFICIAL ATIVO BELO HORIZONTE - COMARCA; EXTINTA - DIVISÃO DE MATERIAL PERMANENTE 0,00 478,40 7.973,40 2.678,21 0,00 0,00 11.130,01 466,51 1.320,38 0,00 1.786,89 9.343,12 920,50 0,00 31/12/2014
1000 346100 FERNANDO EUSTAQUIO CAMPOS UTSCH MOREIRA ANALISTA DO MP ATIVO BELO HORIZONTE - COMARCA; DIRETORIA DE REDES E BANCOS DE DADOS 9.358,72 935,87 0,00 1.439,42 3.431,53 0,00 15.165,54 1.229,48 2.704,85 0,00 3.934,33 11.231,21 920,50 882,50 31/12/2014
1001 103500 FERNANDO LUIZ DA SILVA JUNIOR COORDENADOR/OFICIAL ATIVO BELO HORIZONTE - COMARCA; DIVISAO DE ATENDIMENTO E CONSULTA JURIDICA 12.356,19 6.936,47 0,00 3.787,43 0,00 0,00 23.080,09 1.902,85 3.956,05 0,00 5.858,90 17.221,19 685,50 0,00 31/12/2014
1002 287300 FERNANDO MARCIO ALVES MARTINS OFICIAL DO MP ATIVO LEOPOLDINA - COMARCA; LEOPOLDINA-PJ-01PJ 5.006,87 1.001,37 0,00 1.819,59 2.002,75 0,00 9.830,58 723,43 1.046,86 0,00 1.770,29 8.060,29 685,50 568,41 31/12/2014
1003 262200 FERNANDO MARCIO RESENDE PEREIRA COORDENADOR/OFICIAL ATIVO BELO HORIZONTE - COMARCA; BH-12PJ JUIZO CRIMINAL-SECRETARIA 0,00 1.812,72 9.063,59 8.166,80 0,00 0,00 19.043,11 751,27 1.958,24 0,00 2.709,51 16.333,60 685,50 0,00 31/12/2014
1004 472900 FERNANDO RODRIGUES DE FREITAS ANALISTA DO MP ATIVO BELO HORIZONTE - COMARCA; BH-15PJ M AMB PAT HIST CULT-ASS TECNICA 6.265,58 375,93 0,00 1.840,24 0,00 0,00 8.481,75 730,57 749,94 0,00 1.480,51 7.001,24 685,50 0,00 31/12/2014
1005 421400 FERNANDO TEODORO MACIEL ANALISTA DO MP ATIVO SANTA VITÓRIA - COMARCA; SANTA VITORIA-PJ-UNPJ 7.014,37 701,44 0,00 1.996,29 2.571,94 0,00 12.284,04 921,49 1.882,04 0,00 2.803,53 9.480,51 920,50 661,40 31/12/2014
1006 446300 FERNANDO VITOR DE OLIVEIRA ANALISTA DO MP ATIVO MONTES CLAROS - COMARCA; COORD REG BACIA RIOS VERDE GRANDE E PARDO 6.793,15 679,32 0,00 1.872,06 2.490,82 0,00 11.835,35 881,75 1.687,71 0,00 2.569,46 9.265,89 685,50 543,46 31/12/2014
1007 617100 FILLIPE DA SILVA BRAGA ANALISTA DO MP ATIVO DIVINO - COMARCA; DIVINO-PJ-UNPJ 4.404,59 0,00 0,00 1.817,37 0,00 0,00 6.221,96 526,04 354,67 0,00 880,71 5.341,25 942,78 377,60 31/12/2014
1008 398400 FLAVIA ALVARES GUIMARAES OFICIAL DO MP ATIVO BELO HORIZONTE - COMARCA; CGMP-SECRETARIA DA CORREGEDORIA-GERAL DO MP 4.548,03 454,80 0,00 1.821,94 0,00 0,00 6.824,77 550,31 358,42 0,00 908,73 5.916,04 685,50 0,00 31/12/2014
1009 398200 FLAVIA ALVES DE ASSUNCAO RODRIGUES ANALISTA DO MP ATIVO DIVINÓPOLIS - COMARCA; COORD REG DO MA DA BACIA DO ALTO SAO FRANC 7.721,95 772,20 0,00 6.307,00 0,00 0,00 14.801,15 934,36 1.252,79 0,00 2.187,15 12.614,00 685,50 0,00 31/12/2014
1010 318500 FLAVIA BEATRIZ NUNES CRUZ VIEIRA ANALISTA DO MP ATIVO BARBACENA - COMARCA; BARBACENA-PJ-SECRETARIA 9.663,38 966,34 0,00 7.518,16 0,00 0,00 18.147,88 1.279,86 1.676,63 0,00 2.956,49 15.191,39 1.390,50 1.005,39 31/12/2014
1011 496500 FLAVIA CARAM BORLIDO ANALISTA DO MP ATIVO BELO HORIZONTE - COMARCA; EXTINTA - DIVISAO DE SERVICOS GERAIS 6.265,58 375,93 0,00 2.740,81 0,00 0,00 9.382,32 730,57 799,36 0,00 1.529,93 7.852,39 685,50 0,00 31/12/2014
1012 534800 FLAVIA CONDE SOARES ANALISTA DO MP ATIVO RIBEIRÃO DAS NEVES - COMARCA; RIBEIRAO DAS NEVES-PJ-10PJ 5.006,87 0,00 0,00 1.553,01 0,00 0,00 6.559,88 550,76 399,66 0,00 950,42 5.609,46 685,50 0,00 31/12/2014
1013 219500 FLAVIA CRISTINA ANCELMO OFICIAL DO MP ATIVO BELO HORIZONTE - COMARCA; BH-17PJ PATRIMONIO PUBLICO-SECRETARIA 6.265,58 1.253,12 0,00 1.883,80 0,00 0,00 9.402,50 905,30 1.014,05 0,00 1.919,35 7.483,15 685,50 711,24 31/12/2014
1014 329600 FLAVIA CRISTINA DE MATOS XAVIER ANALISTA DO MP ATIVO UBERABA - COMARCA; UBERABA-PJ-15PJ 9.663,38 1.932,68 0,00 2.556,22 0,00 0,00 14.152,28 1.396,21 1.913,14 0,00 3.309,35 10.842,93 920,50 1.096,77 31/12/2014
1015 207600 FLAVIA DE ANDRADE MANCINI ANALISTA DO MP ATIVO BELO HORIZONTE - COMARCA; ASSESSORIA JURIDICO-ADMINISTRATIVA 12.356,19 3.706,86 0,00 3.410,42 5.354,35 0,00 24.827,82 2.038,78 4.429,47 0,00 6.468,25 18.359,57 1.155,50 2.471,24 31/12/2014
1016 402801 FLAVIA MARIA DE RESENDE NASCIMENTO ANALISTA DO MP ATIVO SÃO JOÃO DEL REI - COMARCA; SAO JOAO DEL REI-PJ-04PJ 6.068,01 0,00 0,00 1.707,52 0,00 0,00 7.775,53 667,48 659,00 0,00 1.326,48 6.449,05 920,50 0,00 31/12/2014
1017 437500 FLAVIA MARIA TORRES MARCHETTI COORDENADOR/ANALISTA ATIVO BELO HORIZONTE - COMARCA; BH-13ª PJ JUÍXO DE TÓXICOS 0,00 906,36 9.063,59 2.734,16 3.323,32 0,00 16.027,43 848,74 2.497,26 0,00 3.346,00 12.681,43 1.155,50 0,00 31/12/2014
1018 386000 FLAVIA NEVES BRIGIDO OFICIAL DO MP ATIVO BELO HORIZONTE - COMARCA; PROMOT ESTADUAL DE DEF PATRI CULT E TUR DE MG 4.548,03 454,80 0,00 1.781,50 1.667,61 0,00 8.451,94 550,31 856,89 0,00 1.407,20 7.044,74 685,50 0,00 31/12/2014
1019 488600 FLAVIA PEREIRA COSTA ANALISTA DO MP ATIVO BELO HORIZONTE - COMARCA; CENTRAL DE APOIO TECNICO 6.265,58 375,93 0,00 2.077,57 0,00 0,00 8.719,08 730,57 799,36 0,00 1.529,93 7.189,15 685,50 17.391,03 31/12/2014
1020 365400 FLAVIA PEREIRA DA SILVA OFICIAL DO MP ATIVO BELO HORIZONTE - COMARCA; BH-15PJ M AMB 16PJ HAB URB-SECRETARIA 5.691,44 569,14 0,00 1.706,82 2.086,86 0,00 10.054,26 753,82 1.280,01 0,00 2.033,83 8.020,43 685,50 592,35 31/12/2014
1021 515400 FLAVIA RODRIGUES DE OLIVEIRA E SILVA PAIVA ANALISTA DO MP ATIVO CARATINGA - COMARCA; CARATINGA-PJ-01PJ 6.068,01 364,08 0,00 2.469,61 2.144,03 0,00 11.045,73 791,06 1.140,03 0,00 1.931,09 9.114,64 1.049,58 792,75 31/12/2014
1022 621600 FLAVIA SARMENTO RODRIGUES ANALISTA DO MP ATIVO BELO HORIZONTE - COMARCA; AUDITORIA INTERNA 4.404,59 0,00 0,00 1.633,37 0,00 0,00 6.037,96 484,50 279,06 0,00 763,56 5.274,40 920,50 0,00 31/12/2014
1023 535800 FLAVIA SILVA VALADAO OFICIAL DO MP ATIVO TRÊS CORACOES - COMARCA; TRES CORACOES-PJ-04PJ 2.952,15 0,00 0,00 1.088,35 984,05 0,00 5.024,55 324,74 209,62 0,00 534,36 4.490,19 920,50 0,00 31/12/2014
1024 515300 FLAVIA VIEIRA OLIVEIRA GOMES ANALISTA DO MP ATIVO BELO HORIZONTE - COMARCA; CAO-CRIMINAL-SECRETARIA 6.068,01 364,08 0,00 1.707,52 0,00 0,00 8.139,61 787,63 748,10 0,00 1.535,73 6.603,88 685,50 728,16 31/12/2014
1025 377500 FLAVIANA GONCALVES DE OLIVEIRA ANALISTA DO MP ATIVO TIMÓTEO - COMARCA; TIMOTEO-PJ-02PJ 8.233,02 823,30 0,00 2.100,10 0,00 0,00 11.156,42 1.090,44 1.390,38 0,00 2.480,82 8.675,60 685,50 951,93 31/12/2014
1026 273100 FLAVIANE DOS SANTOS CASTRO OFICIAL DO MP ATIVO CAXAMBU - COMARCA; CAXAMBU-PJ-SECRETARIA 6.265,58 1.253,12 0,00 2.888,22 0,00 0,00 10.406,92 827,06 915,21 0,00 1.742,27 8.664,65 1.155,50 0,00 31/12/2014
1027 310600 FLAVIANE NAVES ALCANTARA ASSESSOR/OFICIAL ATIVO BELO HORIZONTE - COMARCA; COMB CRIMES PRAT POR AG POL MUN-SECRETARIA 0,00 1.594,68 7.973,40 2.379,35 0,00 0,00 11.947,43 907,85 1.555,41 0,00 2.463,26 9.484,17 685,50 0,00 31/12/2014
1028 455800 FLAVIO ANTONIO RIBEIRO OFICIAL DO MP ATIVO BELO HORIZONTE - COMARCA; GRUPO ESP PROM PROC JUST DEF PROB ADM PAT PUB 3.694,41 221,66 0,00 3.297,53 0,00 0,00 7.213,60 430,77 187,77 0,00 618,54 6.595,06 685,50 0,00 31/12/2014
1029 458200 FLAVIO AUGUSTO BRAGA SOARES ANALISTA DO MP ATIVO BELO HORIZONTE - COMARCA; DIVISAO DE MANUTENCAO PREDIAL 6.793,15 407,59 0,00 2.151,67 0,00 0,00 9.352,41 792,08 1.254,23 0,00 2.046,31 7.306,10 685,50 1.156,34 31/12/2014
1030 516500 FLAVIO AUGUSTO RODRIGUES CORREA ANALISTA DO MP ATIVO BELO HORIZONTE - COMARCA; COORD REG BACIAS RIO VELHAS E PARAOPEBA 5.511,94 330,72 0,00 4.382,73 1.947,55 0,00 12.172,94 715,45 1.139,42 0,00 1.854,87 10.318,07 685,50 661,44 31/12/2014
1031 84300 FLAVIO DE FARIA BELTRAO OFICIAL DO MP ATIVO BELO HORIZONTE - COMARCA; DIRETORIA DE ADMINISTRACAO FINANCEIRA 18.218,36 12.752,85 0,00 18.032,56 8.863,23 0,00 57.867,00 2.924,86 8.069,64 4.381,53 15.376,03 42.490,97 685,50 0,00 31/12/2014
1032 266600 FLAVIO GUIMARAES LANA ANALISTA DO MP ATIVO BELO HORIZONTE - COMARCA; CENTRAL DE APOIO TECN-SETOR DE MEIO AMBIENTE 9.063,59 1.812,72 0,00 7.844,09 0,00 0,00 18.720,40 1.196,39 1.835,83 0,00 3.032,22 15.688,18 685,50 0,00 31/12/2014
1033 552600 FLAVIO HENRIQUE EVARISTO GOMES ASSESSOR/ANALISTA ATIVO BELO HORIZONTE - COMARCA; DIRETORIA DE SUPORTE E MANUTENCAO 0,00 0,00 7.973,40 3.704,12 0,00 0,00 11.677,52 550,76 1.215,08 0,00 1.765,84 9.911,68 685,50 0,00 31/12/2014
1034 241500 FLAVIO HENRIQUE SILVA MARTINS LAGE OFICIAL DO MP ATIVO BELO HORIZONTE - COMARCA; CAO-DIREITOS HUMANOS E APOIO COMUNITARIO 6.469,61 1.940,88 0,00 2.047,77 0,00 0,00 10.458,26 925,15 1.232,32 0,00 2.157,47 8.300,79 685,50 0,00 31/12/2014
1035 86700 FLAVIO LUCAS TOMAZ AGENTE DO MP ATIVO BELO HORIZONTE - COMARCA; BH-06PJ JUIZO CIVEL-SECRETARIA 5.338,12 2.669,06 0,00 2.357,65 2.669,06 0,00 13.033,89 964,08 1.306,06 0,00 2.270,14 10.763,75 685,50 757,17 31/12/2014
1036 407200 FLAVIO LUCIO MONTEIRO PENA ANALISTA DO MP ATIVO BELO HORIZONTE - COMARCA; DIRETORIA DE IMPRENSA 7.014,37 701,44 0,00 2.246,49 2.571,94 0,00 12.534,24 848,74 1.769,58 0,00 2.618,32 9.915,92 685,50 0,00 31/12/2014
1037 451700 FLAVIO MAGALHAES PEREIRA ANALISTA DO MP ATIVO BELO HORIZONTE - COMARCA; BH-12PJ JUIZO CRIMINAL-GAB 098PJ 6.793,15 407,59 0,00 1.872,06 0,00 0,00 9.072,80 792,08 936,23 0,00 1.728,31 7.344,49 685,50 0,00 31/12/2014
1038 481500 FLAVIO NEVES GUELBER DE MACEDO OFICIAL DO MP ATIVO SÃO JOÃO NEPOMUCENO - COMARCA; SAO JOAO NEPOMUCENO-PJ-02PJ 3.694,41 221,66 0,00 1.339,49 0,00 0,00 5.255,56 430,77 187,77 0,00 618,54 4.637,02 685,50 0,00 31/12/2014
1039 547500 FRANCELINO MOREIRA DA SILVA ANALISTA DO MP ATIVO BELO HORIZONTE - COMARCA; BH-10PJ EXECUÇÃO PENAL-SECRETARIA 4.548,03 0,00 0,00 1.465,95 0,00 0,00 6.013,98 500,28 307,78 0,00 808,06 5.205,92 920,50 0,00 31/12/2014
1040 278100 FRANCIANE MARY DE SOUZA DOMENICI DE BRITO E CASTRO ANALISTA DO MP ATIVO BELO HORIZONTE - COMARCA; BH-12PJ JUIZO CRIMINAL 10.638,28 2.127,66 0,00 2.671,36 4.255,31 0,00 19.692,61 1.540,88 3.419,10 0,00 4.959,98 14.732,63 4.633,33 1.604,00 31/12/2014
1041 192501 FRANCIELLE REIS DE OLIVEIRA ANALISTA DO MP ATIVO PASSOS - COMARCA; PASSOS-PJ-04PJ 9.977,95 1.995,59 0,00 2.902,31 0,00 0,00 14.875,85 1.317,09 1.956,11 0,00 3.273,20 11.602,65 920,50 0,00 31/12/2014
1042 523600 FRANCINE MOURA LIMIRIO OFICIAL DO MP ATIVO UBERABA - COMARCA; UBERABA-PJ-02PJ 3.577,90 0,00 0,00 1.520,86 0,00 0,00 5.098,76 393,57 142,62 0,00 536,19 4.562,57 685,50 0,00 31/12/2014
1043 467200 FRANCINI RENNO ANALISTA DO MP ATIVO CASSIA - COMARCA; CASSIA-PJ-02PJ 6.265,58 375,93 0,00 1.702,43 0,00 0,00 8.343,94 931,40 799,36 0,00 1.730,76 6.613,18 685,50 1.825,77 31/12/2014
1044 189300 FRANCIS BERNARDO DO NASCIMENTO OFICIAL DO MP ATIVO VARGINHA - COMARCA; VARGINHA-PJ-05PJ 9.358,72 2.807,62 0,00 2.480,77 4.055,45 0,00 18.702,56 1.706,25 3.217,39 0,00 4.923,64 13.778,92 920,50 3.345,03 31/12/2014
1045 207800 FRANCISCO CAMPOS PIRES DE MORAIS ANALISTA DO MP ATIVO BELO HORIZONTE - COMARCA; CENTRAL DE APOIO TECN-SETOR DE MEIO AMBIENTE 13.353,95 4.006,19 0,00 3.252,58 0,00 0,00 20.612,72 2.203,40 3.323,90 0,00 5.527,30 15.085,42 685,50 2.670,80 31/12/2014
1046 424200 FRANCISCO DE FREITAS JUNIOR ANALISTA DO MP ATIVO MONTE AZUL - COMARCA; MONTE AZUL-PJ-UNPJ 7.014,37 701,44 0,00 5.804,78 0,00 0,00 13.520,59 848,74 1.062,29 0,00 1.911,03 11.609,56 685,50 0,00 31/12/2014
1047 607700 FRANCISCO EDUARDO DE CASTRO ANALISTA DO MP ATIVO BELO HORIZONTE - COMARCA; DIR ANALISES TECNOLOGIA INTELIGENCIA 4.404,59 0,00 0,00 1.438,73 0,00 0,00 5.843,32 484,50 279,06 0,00 763,56 5.079,76 685,50 0,00 31/12/2014
1048 204600 FRANCISCO FERREIRA NOVAIS OFICIAL DO MP ATIVO IPATINGA - COMARCA; IPATINGA-PJ-08PJ 6.793,15 2.037,95 0,00 2.207,71 2.943,70 0,00 13.982,51 971,42 2.045,94 0,00 3.017,36 10.965,15 685,50 0,00 31/12/2014
1049 60500 FRANCISCO OLIMPIO TEIXEIRA AGENTE DO MP ATIVO BELO HORIZONTE - COMARCA; EXTINTA - DIVISAO DE TRANSPORTES 4.696,06 3.756,85 0,00 1.946,49 2.817,64 1.296,42 14.513,46 1.296,42 3.041,48 0,00 4.337,90 10.175,56 685,50 4.262,52 31/12/2014
1050 411600 FRANCISCO PAIVA BRITO ANALISTA DO MP ATIVO BELO HORIZONTE - COMARCA; TRIBUNAL DO JURI-07 PJ-02 TRIBUNAL 7.014,37 701,44 0,00 1.859,83 0,00 0,00 9.575,64 1.046,49 1.062,29 0,00 2.108,78 7.466,86 685,50 1.797,72 31/12/2014
1051 515800 FRANCISCO RAFAEL DA SILVA NETO ANALISTA DO MP ATIVO SACRAMENTO - COMARCA; SACRAMENTO-PJ-01PJ 5.006,87 300,41 0,00 1.633,87 0,00 0,00 6.941,15 649,90 378,95 0,00 1.028,85 5.912,30 685,50 600,82 31/12/2014
1052 515200 FRANCISLEI ELIAS GONCALVES OFICIAL DO MP ATIVO PASSOS - COMARCA; PASSOS-PJ-07PJ 3.250,03 650,01 0,00 3.366,28 0,00 0,00 7.266,32 429,00 104,76 0,00 533,76 6.732,56 933,30 0,00 31/12/2014
1053 443600 FRANCISLEI MARTINS DE SOUSA ANALISTA DO MP ATIVO TIMÓTEO - COMARCA; TIMOTEO-PJ-01PJ 7.014,37 701,44 0,00 2.047,39 0,00 0,00 9.763,20 929,04 1.062,29 0,00 1.991,33 7.771,87 685,50 730,02 31/12/2014
1054 424500 FREDERICO AUGUSTO COBRA MULLER ANALISTA DO MP ATIVO POUSO ALEGRE - COMARCA; POUSO ALEGRE-PJ-02PJ 7.014,37 701,44 0,00 2.902,39 2.571,94 0,00 13.190,14 848,74 1.769,58 0,00 2.618,32 10.571,82 685,50 0,00 31/12/2014
1055 473100 FREDERICO AUGUSTO LIMA FELICIO ANALISTA DO MP ATIVO CONCEIÇÃO DO MATO DENTRO - COMARCA; CONCEICAO DO MATO DENTRO-PJ-UNPJ 6.265,58 375,93 0,00 1.790,82 2.213,84 0,00 10.646,17 730,57 1.408,16 0,00 2.138,73 8.507,44 685,50 0,00 31/12/2014
1056 318100 FREDERICO BIANCHINI JOVIANO DOS SANTOS ASSESSOR/OFICIAL ATIVO BELO HORIZONTE - COMARCA; PROMOT ESTADUAL DE DEF PATRI CULT E TUR DE MG 0,00 1.594,68 7.973,40 3.927,10 0,00 0,00 13.495,18 619,88 1.634,61 0,00 2.254,49 11.240,69 685,50 0,00 31/12/2014
1057 124200 FREDERICO DE SOUZA ROCHA OFICIAL DO MP ATIVO ESPINOSA - COMARCA; ESPINOSA-PJ-SECRETARIA 10.302,83 7.211,98 0,00 3.235,89 5.838,27 0,00 26.588,97 2.786,54 5.702,12 0,00 8.488,66 18.100,31 784,06 7.817,34 31/12/2014
1058 177100 FREDERICO FERNANDES DE ANDRADE OFICIAL DO MP ATIVO BELO HORIZONTE - COMARCA; SUPERINTENDENCIA DE TECNOLOGIA DA INFORMACAO 7.973,40 2.392,02 0,00 3.454,09 3.455,14 0,00 17.274,65 1.315,62 2.660,95 0,00 3.976,57 13.298,08 685,50 1.594,68 31/12/2014
1059 456200 FREDERICO FERNANDES PASSOS ANALISTA DO MP ATIVO BELO HORIZONTE - COMARCA; DIRETORIA DE REDES E BANCOS DE DADOS 6.793,15 407,59 0,00 2.151,67 0,00 0,00 9.352,41 819,24 996,67 0,00 1.815,91 7.536,50 685,50 246,92 31/12/2014
1060 400900 FREDERICO LUCIANO BORGES REIS ANALISTA DO MP ATIVO BELO HORIZONTE - COMARCA; DIRETORIA DE SISTEMAS DE INFORMACAO 7.973,40 797,34 0,00 2.627,56 2.923,58 0,00 14.321,88 1.047,48 2.308,48 0,00 3.355,96 10.965,92 685,50 751,80 31/12/2014
1061 466200 FREDERICO LUIS FERNANDES ANALISTA DO MP ATIVO BELO HORIZONTE - COMARCA; BH-12PJ JUIZO CRIMINAL-GAB 106PJ 6.793,15 407,59 0,00 1.840,24 2.400,25 0,00 11.441,23 976,62 1.546,88 0,00 2.523,50 8.917,73 685,50 1.677,66 31/12/2014
1062 419700 FREDERICO MECKLER SANTOS ANALISTA DO MP ATIVO CLÁUDIO - COMARCA; CLAUDIO-PJ-UNPJ 7.014,37 701,44 0,00 1.946,87 2.571,94 0,00 12.234,62 848,74 1.769,58 0,00 2.618,32 9.616,30 685,50 0,00 31/12/2014
1063 257100 FULVIA HERONVILLE DA SILVA OFICIAL DO MP ATIVO BELO HORIZONTE - COMARCA; DIVISAO DE MEMORIA INSTITUCIONAL 6.793,15 1.358,63 0,00 2.863,51 2.717,26 0,00 13.732,55 1.105,62 1.866,82 0,00 2.972,44 10.760,11 1.255,02 1.929,90 31/12/2014
1064 621700 GABRIEL ANDRADE SOUZA GROSSI RIBEIRO OFICIAL DO MP ATIVO BETIM - COMARCA; BETIM-PJ-SECRETARIA 2.859,08 0,00 0,00 1.060,24 0,00 0,00 3.919,32 314,50 56,76 0,00 371,26 3.548,06 685,50 0,00 31/12/2014
1065 613600 GABRIEL BASTOS MEIRELES ANALISTA DO MP ATIVO BELO HORIZONTE - COMARCA; BH-16PJ HABITACAO E URBANISMO 4.404,59 0,00 0,00 1.732,93 0,00 0,00 6.137,52 484,50 279,06 0,00 763,56 5.373,96 685,50 0,00 31/12/2014
1066 397200 GABRIEL DEIVID MARTINS LEITE OFICIAL DO MP ATIVO MONTE CARMELO - COMARCA; MONTE CARMELO-PJ-02PJ 5.169,86 516,99 0,00 1.626,12 0,00 0,00 7.312,97 684,71 565,71 0,00 1.250,42 6.062,55 1.128,96 554,30 31/12/2014
1067 629500 GABRIEL TEIXEIRA DE OLIVEIRA ANALISTA DO MP ATIVO UBERLÂNDIA - COMARCA; UBERLANDIA-PJ-02PJ 4.404,59 0,00 0,00 980,02 0,00 0,00 5.384,61 484,50 279,06 0,00 763,56 4.621,05 685,50 0,00 31/12/2014
1068 617900 GABRIELA CIRILA ROQUE ANALISTA DO MP ATIVO ITABIRA - COMARCA; ITABIRA-PJ-SECRETARIA 4.848,98 0,00 0,00 2.095,65 0,00 0,00 6.944,63 533,39 368,05 0,00 901,44 6.043,19 685,50 0,00 31/12/2014
1069 386800 GABRIELA SIMOES CHAVES ANALISTA DO MP ATIVO BELO HORIZONTE - COMARCA; EXTINTA - DIVISÃO DE COMPRAS 8.233,02 823,30 0,00 2.100,10 0,00 0,00 11.156,42 1.090,44 1.390,38 0,00 2.480,82 8.675,60 685,50 856,74 31/12/2014
1070 449700 GABRIELE COSTA FERREIRA OFICIAL DO MP ATIVO BELO HORIZONTE - COMARCA; DIRETORIA DE ORCAMENTO-DIOR/SPC 3.694,41 221,66 0,00 1.339,49 1.305,36 0,00 6.560,92 430,77 491,28 0,00 922,05 5.638,87 685,50 0,00 31/12/2014
1071 357600 GABRIELLA CRUZ EMRICH OFICIAL DO MP ATIVO ARCOS - COMARCA; ARCOS-PJ-SECRETARIA 4.696,06 469,61 0,00 1.813,14 0,00 0,00 6.978,81 568,22 438,15 0,00 1.006,37 5.972,44 685,50 0,00 31/12/2014
1072 470600 GABRIELLA SPIRANDELLI COIMBRA ANALISTA DO MP ATIVO UBERLÂNDIA - COMARCA; UBERLANDIA-PJ-19PJ 6.265,58 375,93 0,00 1.790,82 0,00 0,00 8.432,33 730,57 799,36 0,00 1.529,93 6.902,40 685,50 0,00 31/12/2014
1073 86000 GASPAR GOMES DE SOUSA AGENTE DO MP ATIVO BELO HORIZONTE - COMARCA; BH-15PJ M AMB PAT HIST CULT-RECEPCAO 18.218,36 14.574,69 0,00 4.688,30 8.863,23 0,00 46.344,58 2.924,86 8.119,06 6.203,37 17.247,29 29.097,29 685,50 0,00 31/12/2014
1074 183100 GECIELLE FERNANDA SILVA OFICIAL DO MP ATIVO PITANGUI - COMARCA; PITANGUI-PJ-02PJ 9.358,72 2.807,62 0,00 2.307,88 0,00 0,00 14.474,22 1.883,85 2.151,56 0,00 4.035,41 10.438,81 685,50 4.959,46 31/12/2014
1075 387300 GEOFFREY GIULLIANO OLIVEIRA ALMEIDA ANALISTA DO MP ATIVO JANAÚBA - COMARCA; JANAUBA-PJ-03PJ 7.014,37 701,44 0,00 5.804,78 2.571,94 0,00 16.092,53 848,74 1.769,58 0,00 2.618,32 13.474,21 685,50 0,00 31/12/2014
1076 277700 GEORGIA CRISTINA BASILIO MEDRADO ANALISTA DO MP ATIVO BELO HORIZONTE - COMARCA; SERVICO MEDICO-DEPTO PERIC MED